<?xml version="1.0" encoding="UTF-8" standalone="no" ?>
<gpx xmlns="http://www.topografix.com/GPX/1/1" xmlns:xsi="http://www.w3.org/2001/XMLSchema-instance" xsi:schemaLocation="http://www.topografix.com/GPX/1/1 http://www.topografix.com/GPX/1/1/gpx.xsd" version="1.1" creator="VisuGPX - https://www.visugpx.com">
  <metadata>
    <name>Tour du Cap Sizun en 2 jours</name>
    <desc><![CDATA[

Boucle de 64 km au départ de Pont-Croix.
Jour 1 - Pont-Croix, Beuzec Cap-Sizun, Pointe du Van, Étape à l'hôtel de la Baie des Trépassés (33 km).
Jour 2 - Baie des Trépassés, Point du Raz, Bestrée, Plouhinec, Audierne, vallée du Goyen, Pont-Croix (31 km).
]]></desc>
  </metadata>
  <trk>
    <name><![CDATA[11022045-Tour du Cap Sizun en 2 jours]]></name>
    <trkseg>
      <trkpt lat="48.04081" lon="-4.48928">
        <ele>31</ele>
        <time>2020-02-17T14:18:58Z</time>
      </trkpt>
      <trkpt lat="48.04091" lon="-4.4888">
        <ele>34</ele>
        <time>2020-02-17T14:19:43Z</time>
      </trkpt>
      <trkpt lat="48.04114" lon="-4.48893">
        <ele>34</ele>
        <time>2020-02-17T14:20:16Z</time>
      </trkpt>
      <trkpt lat="48.04104" lon="-4.4895">
        <ele>31</ele>
        <time>2020-02-17T14:21:08Z</time>
      </trkpt>
      <trkpt lat="48.04107" lon="-4.48949">
        <ele>31</ele>
        <time>2020-02-17T14:21:12Z</time>
      </trkpt>
      <trkpt lat="48.0411" lon="-4.48935">
        <ele>32</ele>
        <time>2020-02-17T14:21:25Z</time>
      </trkpt>
      <trkpt lat="48.04129" lon="-4.48937">
        <ele>33</ele>
        <time>2020-02-17T14:21:51Z</time>
      </trkpt>
      <trkpt lat="48.04153" lon="-4.48934">
        <ele>34</ele>
        <time>2020-02-17T14:22:23Z</time>
      </trkpt>
      <trkpt lat="48.04174" lon="-4.48945">
        <ele>34</ele>
        <time>2020-02-17T14:22:53Z</time>
      </trkpt>
      <trkpt lat="48.04206" lon="-4.48948">
        <ele>34</ele>
        <time>2020-02-17T14:23:36Z</time>
      </trkpt>
      <trkpt lat="48.04215" lon="-4.48936">
        <ele>34</ele>
        <time>2020-02-17T14:23:52Z</time>
      </trkpt>
      <trkpt lat="48.04233" lon="-4.48937">
        <ele>34</ele>
        <time>2020-02-17T14:24:16Z</time>
      </trkpt>
      <trkpt lat="48.04239" lon="-4.4891">
        <ele>34</ele>
        <time>2020-02-17T14:24:41Z</time>
      </trkpt>
      <trkpt lat="48.0425" lon="-4.48913">
        <ele>34</ele>
        <time>2020-02-17T14:24:56Z</time>
      </trkpt>
      <trkpt lat="48.04248" lon="-4.48954">
        <ele>34</ele>
        <time>2020-02-17T14:25:33Z</time>
      </trkpt>
      <trkpt lat="48.04507" lon="-4.48931">
        <ele>49</ele>
        <time>2020-02-17T14:31:19Z</time>
      </trkpt>
      <trkpt lat="48.04642" lon="-4.48868">
        <ele>58</ele>
        <time>2020-02-17T14:34:28Z</time>
      </trkpt>
      <trkpt lat="48.0475" lon="-4.48852">
        <ele>63</ele>
        <time>2020-02-17T14:36:52Z</time>
      </trkpt>
      <trkpt lat="48.04843" lon="-4.48846">
        <ele>64</ele>
        <time>2020-02-17T14:38:57Z</time>
      </trkpt>
      <trkpt lat="48.05055" lon="-4.48882">
        <ele>59</ele>
        <time>2020-02-17T14:43:41Z</time>
      </trkpt>
      <trkpt lat="48.05091" lon="-4.48896">
        <ele>57</ele>
        <time>2020-02-17T14:44:31Z</time>
      </trkpt>
      <trkpt lat="48.05245" lon="-4.48987">
        <ele>53</ele>
        <time>2020-02-17T14:48:12Z</time>
      </trkpt>
      <trkpt lat="48.05283" lon="-4.49">
        <ele>52</ele>
        <time>2020-02-17T14:49:04Z</time>
      </trkpt>
      <trkpt lat="48.05315" lon="-4.48987">
        <ele>52</ele>
        <time>2020-02-17T14:49:48Z</time>
      </trkpt>
      <trkpt lat="48.05356" lon="-4.48933">
        <ele>51</ele>
        <time>2020-02-17T14:51:01Z</time>
      </trkpt>
      <trkpt lat="48.05374" lon="-4.48936">
        <ele>51</ele>
        <time>2020-02-17T14:51:25Z</time>
      </trkpt>
      <trkpt lat="48.05412" lon="-4.48959">
        <ele>50</ele>
        <time>2020-02-17T14:52:20Z</time>
      </trkpt>
      <trkpt lat="48.05419" lon="-4.48963">
        <ele>49</ele>
        <time>2020-02-17T14:52:30Z</time>
      </trkpt>
      <trkpt lat="48.05448" lon="-4.49019">
        <ele>49</ele>
        <time>2020-02-17T14:53:33Z</time>
      </trkpt>
      <trkpt lat="48.05457" lon="-4.49042">
        <ele>49</ele>
        <time>2020-02-17T14:53:57Z</time>
      </trkpt>
      <trkpt lat="48.05576" lon="-4.49122">
        <ele>51</ele>
        <time>2020-02-17T14:56:51Z</time>
      </trkpt>
      <trkpt lat="48.05608" lon="-4.49191">
        <ele>52</ele>
        <time>2020-02-17T14:58:06Z</time>
      </trkpt>
      <trkpt lat="48.05643" lon="-4.49246">
        <ele>55</ele>
        <time>2020-02-17T14:59:14Z</time>
      </trkpt>
      <trkpt lat="48.05707" lon="-4.49336">
        <ele>60</ele>
        <time>2020-02-17T15:01:11Z</time>
      </trkpt>
      <trkpt lat="48.05805" lon="-4.49395">
        <ele>62</ele>
        <time>2020-02-17T15:03:32Z</time>
      </trkpt>
      <trkpt lat="48.05962" lon="-4.49474">
        <ele>60</ele>
        <time>2020-02-17T15:07:13Z</time>
      </trkpt>
      <trkpt lat="48.05998" lon="-4.49481">
        <ele>60</ele>
        <time>2020-02-17T15:08:01Z</time>
      </trkpt>
      <trkpt lat="48.06055" lon="-4.4948">
        <ele>61</ele>
        <time>2020-02-17T15:09:17Z</time>
      </trkpt>
      <trkpt lat="48.06113" lon="-4.49465">
        <ele>64</ele>
        <time>2020-02-17T15:10:36Z</time>
      </trkpt>
      <trkpt lat="48.06152" lon="-4.49471">
        <ele>66</ele>
        <time>2020-02-17T15:11:28Z</time>
      </trkpt>
      <trkpt lat="48.06207" lon="-4.49513">
        <ele>69</ele>
        <time>2020-02-17T15:12:51Z</time>
      </trkpt>
      <trkpt lat="48.06318" lon="-4.4955">
        <ele>73</ele>
        <time>2020-02-17T15:15:22Z</time>
      </trkpt>
      <trkpt lat="48.06347" lon="-4.49538">
        <ele>75</ele>
        <time>2020-02-17T15:16:03Z</time>
      </trkpt>
      <trkpt lat="48.0637" lon="-4.49521">
        <ele>76</ele>
        <time>2020-02-17T15:16:37Z</time>
      </trkpt>
      <trkpt lat="48.06441" lon="-4.49486">
        <ele>78</ele>
        <time>2020-02-17T15:18:17Z</time>
      </trkpt>
      <trkpt lat="48.06476" lon="-4.49475">
        <ele>78</ele>
        <time>2020-02-17T15:19:04Z</time>
      </trkpt>
      <trkpt lat="48.06539" lon="-4.49437">
        <ele>78</ele>
        <time>2020-02-17T15:20:35Z</time>
      </trkpt>
      <trkpt lat="48.06559" lon="-4.49428">
        <ele>79</ele>
        <time>2020-02-17T15:21:03Z</time>
      </trkpt>
      <trkpt lat="48.06584" lon="-4.49481">
        <ele>79</ele>
        <time>2020-02-17T15:22:01Z</time>
      </trkpt>
      <trkpt lat="48.06652" lon="-4.49578">
        <ele>79</ele>
        <time>2020-02-17T15:24:06Z</time>
      </trkpt>
      <trkpt lat="48.06668" lon="-4.49626">
        <ele>78</ele>
        <time>2020-02-17T15:24:54Z</time>
      </trkpt>
      <trkpt lat="48.0668" lon="-4.50046">
        <ele>64</ele>
        <time>2020-02-17T15:31:09Z</time>
      </trkpt>
      <trkpt lat="48.06695" lon="-4.5014">
        <ele>65</ele>
        <time>2020-02-17T15:32:35Z</time>
      </trkpt>
      <trkpt lat="48.06726" lon="-4.50212">
        <ele>67</ele>
        <time>2020-02-17T15:33:51Z</time>
      </trkpt>
      <trkpt lat="48.06728" lon="-4.50385">
        <ele>72</ele>
        <time>2020-02-17T15:36:26Z</time>
      </trkpt>
      <trkpt lat="48.06736" lon="-4.50421">
        <ele>73</ele>
        <time>2020-02-17T15:36:59Z</time>
      </trkpt>
      <trkpt lat="48.06757" lon="-4.50436">
        <ele>73</ele>
        <time>2020-02-17T15:37:30Z</time>
      </trkpt>
      <trkpt lat="48.06819" lon="-4.50453">
        <ele>75</ele>
        <time>2020-02-17T15:38:55Z</time>
      </trkpt>
      <trkpt lat="48.06976" lon="-4.50522">
        <ele>78</ele>
        <time>2020-02-17T15:42:33Z</time>
      </trkpt>
      <trkpt lat="48.07057" lon="-4.5058">
        <ele>77</ele>
        <time>2020-02-17T15:44:33Z</time>
      </trkpt>
      <trkpt lat="48.07154" lon="-4.50725">
        <ele>77</ele>
        <time>2020-02-17T15:47:36Z</time>
      </trkpt>
      <trkpt lat="48.07268" lon="-4.50975">
        <ele>77</ele>
        <time>2020-02-17T15:52:06Z</time>
      </trkpt>
      <trkpt lat="48.07414" lon="-4.51061">
        <ele>83</ele>
        <time>2020-02-17T15:55:35Z</time>
      </trkpt>
      <trkpt lat="48.07469" lon="-4.5113">
        <ele>87</ele>
        <time>2020-02-17T15:57:11Z</time>
      </trkpt>
      <trkpt lat="48.07513" lon="-4.51164">
        <ele>90</ele>
        <time>2020-02-17T15:58:17Z</time>
      </trkpt>
      <trkpt lat="48.07518" lon="-4.51183">
        <ele>90</ele>
        <time>2020-02-17T15:58:35Z</time>
      </trkpt>
      <trkpt lat="48.07555" lon="-4.51184">
        <ele>91</ele>
        <time>2020-02-17T15:59:24Z</time>
      </trkpt>
      <trkpt lat="48.07556" lon="-4.51198">
        <ele>91</ele>
        <time>2020-02-17T15:59:37Z</time>
      </trkpt>
      <trkpt lat="48.07587" lon="-4.51206">
        <ele>92</ele>
        <time>2020-02-17T16:00:19Z</time>
      </trkpt>
      <trkpt lat="48.07596" lon="-4.51234">
        <ele>91</ele>
        <time>2020-02-17T16:00:47Z</time>
      </trkpt>
      <trkpt lat="48.07614" lon="-4.51261">
        <ele>90</ele>
        <time>2020-02-17T16:01:21Z</time>
      </trkpt>
      <trkpt lat="48.07631" lon="-4.51282">
        <ele>89</ele>
        <time>2020-02-17T16:01:50Z</time>
      </trkpt>
      <trkpt lat="48.07666" lon="-4.51307">
        <ele>88</ele>
        <time>2020-02-17T16:02:42Z</time>
      </trkpt>
      <trkpt lat="48.07716" lon="-4.5133">
        <ele>85</ele>
        <time>2020-02-17T16:03:52Z</time>
      </trkpt>
      <trkpt lat="48.07751" lon="-4.51364">
        <ele>83</ele>
        <time>2020-02-17T16:04:47Z</time>
      </trkpt>
      <trkpt lat="48.07767" lon="-4.51458">
        <ele>81</ele>
        <time>2020-02-17T16:06:14Z</time>
      </trkpt>
      <trkpt lat="48.07759" lon="-4.51507">
        <ele>80</ele>
        <time>2020-02-17T16:06:59Z</time>
      </trkpt>
      <trkpt lat="48.07917" lon="-4.51544">
        <ele>82</ele>
        <time>2020-02-17T16:10:32Z</time>
      </trkpt>
      <trkpt lat="48.07979" lon="-4.51556">
        <ele>81</ele>
        <time>2020-02-17T16:11:56Z</time>
      </trkpt>
      <trkpt lat="48.08466" lon="-4.51855">
        <ele>81</ele>
        <time>2020-02-17T16:23:38Z</time>
      </trkpt>
      <trkpt lat="48.08477" lon="-4.51855">
        <ele>80</ele>
        <time>2020-02-17T16:23:53Z</time>
      </trkpt>
      <trkpt lat="48.08506" lon="-4.51873">
        <ele>78</ele>
        <time>2020-02-17T16:24:35Z</time>
      </trkpt>
      <trkpt lat="48.08518" lon="-4.51867">
        <ele>77</ele>
        <time>2020-02-17T16:24:52Z</time>
      </trkpt>
      <trkpt lat="48.08523" lon="-4.51866">
        <ele>76</ele>
        <time>2020-02-17T16:24:58Z</time>
      </trkpt>
      <trkpt lat="48.08539" lon="-4.51872">
        <ele>74</ele>
        <time>2020-02-17T16:25:20Z</time>
      </trkpt>
      <trkpt lat="48.08574" lon="-4.5187">
        <ele>70</ele>
        <time>2020-02-17T16:26:07Z</time>
      </trkpt>
      <trkpt lat="48.08608" lon="-4.51889">
        <ele>65</ele>
        <time>2020-02-17T16:26:55Z</time>
      </trkpt>
      <trkpt lat="48.0862" lon="-4.51898">
        <ele>64</ele>
        <time>2020-02-17T16:27:13Z</time>
      </trkpt>
      <trkpt lat="48.08626" lon="-4.51906">
        <ele>63</ele>
        <time>2020-02-17T16:27:24Z</time>
      </trkpt>
      <trkpt lat="48.08648" lon="-4.51924">
        <ele>59</ele>
        <time>2020-02-17T16:27:58Z</time>
      </trkpt>
      <trkpt lat="48.08657" lon="-4.51937">
        <ele>57</ele>
        <time>2020-02-17T16:28:14Z</time>
      </trkpt>
      <trkpt lat="48.08678" lon="-4.51959">
        <ele>51</ele>
        <time>2020-02-17T16:28:48Z</time>
      </trkpt>
      <trkpt lat="48.08682" lon="-4.51977">
        <ele>49</ele>
        <time>2020-02-17T16:29:05Z</time>
      </trkpt>
      <trkpt lat="48.08684" lon="-4.52017">
        <ele>44</ele>
        <time>2020-02-17T16:29:41Z</time>
      </trkpt>
      <trkpt lat="48.08661" lon="-4.52053">
        <ele>41</ele>
        <time>2020-02-17T16:30:26Z</time>
      </trkpt>
      <trkpt lat="48.08647" lon="-4.52084">
        <ele>39</ele>
        <time>2020-02-17T16:30:59Z</time>
      </trkpt>
      <trkpt lat="48.08634" lon="-4.52105">
        <ele>38</ele>
        <time>2020-02-17T16:31:24Z</time>
      </trkpt>
      <trkpt lat="48.08621" lon="-4.52121">
        <ele>39</ele>
        <time>2020-02-17T16:31:47Z</time>
      </trkpt>
      <trkpt lat="48.08618" lon="-4.5213">
        <ele>38</ele>
        <time>2020-02-17T16:31:56Z</time>
      </trkpt>
      <trkpt lat="48.08616" lon="-4.52143">
        <ele>36</ele>
        <time>2020-02-17T16:32:08Z</time>
      </trkpt>
      <trkpt lat="48.08608" lon="-4.52172">
        <ele>32</ele>
        <time>2020-02-17T16:32:36Z</time>
      </trkpt>
      <trkpt lat="48.08598" lon="-4.52198">
        <ele>30</ele>
        <time>2020-02-17T16:33:02Z</time>
      </trkpt>
      <trkpt lat="48.0859" lon="-4.52211">
        <ele>30</ele>
        <time>2020-02-17T16:33:18Z</time>
      </trkpt>
      <trkpt lat="48.08569" lon="-4.52233">
        <ele>32</ele>
        <time>2020-02-17T16:33:52Z</time>
      </trkpt>
      <trkpt lat="48.08528" lon="-4.52259">
        <ele>45</ele>
        <time>2020-02-17T16:34:52Z</time>
      </trkpt>
      <trkpt lat="48.08515" lon="-4.52273">
        <ele>49</ele>
        <time>2020-02-17T16:35:13Z</time>
      </trkpt>
      <trkpt lat="48.08512" lon="-4.52283">
        <ele>50</ele>
        <time>2020-02-17T16:35:23Z</time>
      </trkpt>
      <trkpt lat="48.08512" lon="-4.52294">
        <ele>49</ele>
        <time>2020-02-17T16:35:33Z</time>
      </trkpt>
      <trkpt lat="48.08508" lon="-4.52314">
        <ele>49</ele>
        <time>2020-02-17T16:35:51Z</time>
      </trkpt>
      <trkpt lat="48.08509" lon="-4.5233">
        <ele>47</ele>
        <time>2020-02-17T16:36:06Z</time>
      </trkpt>
      <trkpt lat="48.08511" lon="-4.52338">
        <ele>47</ele>
        <time>2020-02-17T16:36:13Z</time>
      </trkpt>
      <trkpt lat="48.0853" lon="-4.52366">
        <ele>42</ele>
        <time>2020-02-17T16:36:49Z</time>
      </trkpt>
      <trkpt lat="48.08539" lon="-4.52375">
        <ele>41</ele>
        <time>2020-02-17T16:37:03Z</time>
      </trkpt>
      <trkpt lat="48.08562" lon="-4.52408">
        <ele>39</ele>
        <time>2020-02-17T16:37:46Z</time>
      </trkpt>
      <trkpt lat="48.08569" lon="-4.52408">
        <ele>38</ele>
        <time>2020-02-17T16:37:55Z</time>
      </trkpt>
      <trkpt lat="48.08575" lon="-4.52411">
        <ele>37</ele>
        <time>2020-02-17T16:38:04Z</time>
      </trkpt>
      <trkpt lat="48.08589" lon="-4.52412">
        <ele>33</ele>
        <time>2020-02-17T16:38:22Z</time>
      </trkpt>
      <trkpt lat="48.08597" lon="-4.52418">
        <ele>31</ele>
        <time>2020-02-17T16:38:34Z</time>
      </trkpt>
      <trkpt lat="48.08607" lon="-4.52415">
        <ele>27</ele>
        <time>2020-02-17T16:38:48Z</time>
      </trkpt>
      <trkpt lat="48.08608" lon="-4.52422">
        <ele>27</ele>
        <time>2020-02-17T16:38:54Z</time>
      </trkpt>
      <trkpt lat="48.08599" lon="-4.52435">
        <ele>28</ele>
        <time>2020-02-17T16:39:11Z</time>
      </trkpt>
      <trkpt lat="48.08581" lon="-4.52436">
        <ele>34</ele>
        <time>2020-02-17T16:39:35Z</time>
      </trkpt>
      <trkpt lat="48.08579" lon="-4.52438">
        <ele>34</ele>
        <time>2020-02-17T16:39:38Z</time>
      </trkpt>
      <trkpt lat="48.08573" lon="-4.52434">
        <ele>36</ele>
        <time>2020-02-17T16:39:47Z</time>
      </trkpt>
      <trkpt lat="48.08568" lon="-4.52435">
        <ele>36</ele>
        <time>2020-02-17T16:39:54Z</time>
      </trkpt>
      <trkpt lat="48.08559" lon="-4.52456">
        <ele>35</ele>
        <time>2020-02-17T16:40:16Z</time>
      </trkpt>
      <trkpt lat="48.08529" lon="-4.52503">
        <ele>36</ele>
        <time>2020-02-17T16:41:14Z</time>
      </trkpt>
      <trkpt lat="48.08519" lon="-4.52522">
        <ele>36</ele>
        <time>2020-02-17T16:41:35Z</time>
      </trkpt>
      <trkpt lat="48.08517" lon="-4.5253">
        <ele>35</ele>
        <time>2020-02-17T16:41:43Z</time>
      </trkpt>
      <trkpt lat="48.08491" lon="-4.52573">
        <ele>37</ele>
        <time>2020-02-17T16:42:35Z</time>
      </trkpt>
      <trkpt lat="48.0849" lon="-4.52598">
        <ele>37</ele>
        <time>2020-02-17T16:42:57Z</time>
      </trkpt>
      <trkpt lat="48.08492" lon="-4.52637">
        <ele>37</ele>
        <time>2020-02-17T16:43:32Z</time>
      </trkpt>
      <trkpt lat="48.08496" lon="-4.52644">
        <ele>37</ele>
        <time>2020-02-17T16:43:40Z</time>
      </trkpt>
      <trkpt lat="48.08505" lon="-4.5265">
        <ele>34</ele>
        <time>2020-02-17T16:43:53Z</time>
      </trkpt>
      <trkpt lat="48.08507" lon="-4.52654">
        <ele>34</ele>
        <time>2020-02-17T16:43:58Z</time>
      </trkpt>
      <trkpt lat="48.08506" lon="-4.52666">
        <ele>35</ele>
        <time>2020-02-17T16:44:09Z</time>
      </trkpt>
      <trkpt lat="48.08508" lon="-4.52673">
        <ele>34</ele>
        <time>2020-02-17T16:44:15Z</time>
      </trkpt>
      <trkpt lat="48.08515" lon="-4.5268">
        <ele>31</ele>
        <time>2020-02-17T16:44:27Z</time>
      </trkpt>
      <trkpt lat="48.08518" lon="-4.52701">
        <ele>30</ele>
        <time>2020-02-17T16:44:46Z</time>
      </trkpt>
      <trkpt lat="48.08522" lon="-4.52708">
        <ele>28</ele>
        <time>2020-02-17T16:44:54Z</time>
      </trkpt>
      <trkpt lat="48.08522" lon="-4.52713">
        <ele>28</ele>
        <time>2020-02-17T16:44:58Z</time>
      </trkpt>
      <trkpt lat="48.08539" lon="-4.52741">
        <ele>22</ele>
        <time>2020-02-17T16:45:32Z</time>
      </trkpt>
      <trkpt lat="48.08539" lon="-4.52748">
        <ele>22</ele>
        <time>2020-02-17T16:45:38Z</time>
      </trkpt>
      <trkpt lat="48.08533" lon="-4.52756">
        <ele>25</ele>
        <time>2020-02-17T16:45:49Z</time>
      </trkpt>
      <trkpt lat="48.08501" lon="-4.52773">
        <ele>36</ele>
        <time>2020-02-17T16:46:34Z</time>
      </trkpt>
      <trkpt lat="48.08497" lon="-4.5278">
        <ele>37</ele>
        <time>2020-02-17T16:46:43Z</time>
      </trkpt>
      <trkpt lat="48.085" lon="-4.52783">
        <ele>37</ele>
        <time>2020-02-17T16:46:47Z</time>
      </trkpt>
      <trkpt lat="48.08511" lon="-4.52786">
        <ele>34</ele>
        <time>2020-02-17T16:47:02Z</time>
      </trkpt>
      <trkpt lat="48.08523" lon="-4.52785">
        <ele>31</ele>
        <time>2020-02-17T16:47:18Z</time>
      </trkpt>
      <trkpt lat="48.08533" lon="-4.52787">
        <ele>28</ele>
        <time>2020-02-17T16:47:32Z</time>
      </trkpt>
      <trkpt lat="48.08537" lon="-4.52797">
        <ele>28</ele>
        <time>2020-02-17T16:47:42Z</time>
      </trkpt>
      <trkpt lat="48.08545" lon="-4.52806">
        <ele>27</ele>
        <time>2020-02-17T16:47:56Z</time>
      </trkpt>
      <trkpt lat="48.0857" lon="-4.52843">
        <ele>26</ele>
        <time>2020-02-17T16:48:43Z</time>
      </trkpt>
      <trkpt lat="48.0858" lon="-4.52842">
        <ele>23</ele>
        <time>2020-02-17T16:48:56Z</time>
      </trkpt>
      <trkpt lat="48.08605" lon="-4.52861">
        <ele>21</ele>
        <time>2020-02-17T16:49:33Z</time>
      </trkpt>
      <trkpt lat="48.08612" lon="-4.52864">
        <ele>20</ele>
        <time>2020-02-17T16:49:43Z</time>
      </trkpt>
      <trkpt lat="48.08621" lon="-4.52863">
        <ele>19</ele>
        <time>2020-02-17T16:49:55Z</time>
      </trkpt>
      <trkpt lat="48.0863" lon="-4.52868">
        <ele>17</ele>
        <time>2020-02-17T16:50:08Z</time>
      </trkpt>
      <trkpt lat="48.08636" lon="-4.52876">
        <ele>17</ele>
        <time>2020-02-17T16:50:19Z</time>
      </trkpt>
      <trkpt lat="48.08649" lon="-4.529">
        <ele>18</ele>
        <time>2020-02-17T16:50:46Z</time>
      </trkpt>
      <trkpt lat="48.08652" lon="-4.52909">
        <ele>18</ele>
        <time>2020-02-17T16:50:55Z</time>
      </trkpt>
      <trkpt lat="48.08644" lon="-4.52922">
        <ele>21</ele>
        <time>2020-02-17T16:51:11Z</time>
      </trkpt>
      <trkpt lat="48.08639" lon="-4.52934">
        <ele>23</ele>
        <time>2020-02-17T16:51:23Z</time>
      </trkpt>
      <trkpt lat="48.08638" lon="-4.52944">
        <ele>23</ele>
        <time>2020-02-17T16:51:32Z</time>
      </trkpt>
      <trkpt lat="48.08638" lon="-4.52951">
        <ele>23</ele>
        <time>2020-02-17T16:51:39Z</time>
      </trkpt>
      <trkpt lat="48.08642" lon="-4.52953">
        <ele>22</ele>
        <time>2020-02-17T16:51:44Z</time>
      </trkpt>
      <trkpt lat="48.08645" lon="-4.52959">
        <ele>22</ele>
        <time>2020-02-17T16:51:51Z</time>
      </trkpt>
      <trkpt lat="48.08646" lon="-4.52968">
        <ele>22</ele>
        <time>2020-02-17T16:51:59Z</time>
      </trkpt>
      <trkpt lat="48.08649" lon="-4.52977">
        <ele>21</ele>
        <time>2020-02-17T16:52:08Z</time>
      </trkpt>
      <trkpt lat="48.08646" lon="-4.52999">
        <ele>22</ele>
        <time>2020-02-17T16:52:28Z</time>
      </trkpt>
      <trkpt lat="48.08639" lon="-4.53015">
        <ele>23</ele>
        <time>2020-02-17T16:52:45Z</time>
      </trkpt>
      <trkpt lat="48.08633" lon="-4.53036">
        <ele>22</ele>
        <time>2020-02-17T16:53:06Z</time>
      </trkpt>
      <trkpt lat="48.08621" lon="-4.53069">
        <ele>23</ele>
        <time>2020-02-17T16:53:39Z</time>
      </trkpt>
      <trkpt lat="48.08615" lon="-4.53104">
        <ele>25</ele>
        <time>2020-02-17T16:54:11Z</time>
      </trkpt>
      <trkpt lat="48.08615" lon="-4.53115">
        <ele>25</ele>
        <time>2020-02-17T16:54:21Z</time>
      </trkpt>
      <trkpt lat="48.08626" lon="-4.53148">
        <ele>23</ele>
        <time>2020-02-17T16:54:54Z</time>
      </trkpt>
      <trkpt lat="48.08628" lon="-4.53159">
        <ele>23</ele>
        <time>2020-02-17T16:55:04Z</time>
      </trkpt>
      <trkpt lat="48.08628" lon="-4.53174">
        <ele>24</ele>
        <time>2020-02-17T16:55:17Z</time>
      </trkpt>
      <trkpt lat="48.08642" lon="-4.53232">
        <ele>30</ele>
        <time>2020-02-17T16:56:12Z</time>
      </trkpt>
      <trkpt lat="48.08656" lon="-4.53275">
        <ele>35</ele>
        <time>2020-02-17T16:56:55Z</time>
      </trkpt>
      <trkpt lat="48.08654" lon="-4.53286">
        <ele>38</ele>
        <time>2020-02-17T16:57:05Z</time>
      </trkpt>
      <trkpt lat="48.08672" lon="-4.5332">
        <ele>43</ele>
        <time>2020-02-17T16:57:44Z</time>
      </trkpt>
      <trkpt lat="48.08677" lon="-4.53327">
        <ele>44</ele>
        <time>2020-02-17T16:57:53Z</time>
      </trkpt>
      <trkpt lat="48.08688" lon="-4.53334">
        <ele>44</ele>
        <time>2020-02-17T16:58:09Z</time>
      </trkpt>
      <trkpt lat="48.08703" lon="-4.53333">
        <ele>42</ele>
        <time>2020-02-17T16:58:29Z</time>
      </trkpt>
      <trkpt lat="48.08744" lon="-4.53315">
        <ele>31</ele>
        <time>2020-02-17T16:59:26Z</time>
      </trkpt>
      <trkpt lat="48.08758" lon="-4.53311">
        <ele>28</ele>
        <time>2020-02-17T16:59:45Z</time>
      </trkpt>
      <trkpt lat="48.08787" lon="-4.53307">
        <ele>21</ele>
        <time>2020-02-17T17:00:24Z</time>
      </trkpt>
      <trkpt lat="48.08794" lon="-4.53309">
        <ele>21</ele>
        <time>2020-02-17T17:00:33Z</time>
      </trkpt>
      <trkpt lat="48.08807" lon="-4.5332">
        <ele>21</ele>
        <time>2020-02-17T17:00:53Z</time>
      </trkpt>
      <trkpt lat="48.08815" lon="-4.53328">
        <ele>21</ele>
        <time>2020-02-17T17:01:06Z</time>
      </trkpt>
      <trkpt lat="48.08828" lon="-4.53414">
        <ele>36</ele>
        <time>2020-02-17T17:02:25Z</time>
      </trkpt>
      <trkpt lat="48.08831" lon="-4.53443">
        <ele>37</ele>
        <time>2020-02-17T17:02:51Z</time>
      </trkpt>
      <trkpt lat="48.08842" lon="-4.53484">
        <ele>37</ele>
        <time>2020-02-17T17:03:30Z</time>
      </trkpt>
      <trkpt lat="48.08845" lon="-4.53504">
        <ele>37</ele>
        <time>2020-02-17T17:03:49Z</time>
      </trkpt>
      <trkpt lat="48.08846" lon="-4.53518">
        <ele>36</ele>
        <time>2020-02-17T17:04:01Z</time>
      </trkpt>
      <trkpt lat="48.08843" lon="-4.53529">
        <ele>36</ele>
        <time>2020-02-17T17:04:12Z</time>
      </trkpt>
      <trkpt lat="48.08833" lon="-4.53543">
        <ele>39</ele>
        <time>2020-02-17T17:04:30Z</time>
      </trkpt>
      <trkpt lat="48.08801" lon="-4.53628">
        <ele>41</ele>
        <time>2020-02-17T17:05:57Z</time>
      </trkpt>
      <trkpt lat="48.08803" lon="-4.53668">
        <ele>36</ele>
        <time>2020-02-17T17:06:33Z</time>
      </trkpt>
      <trkpt lat="48.08797" lon="-4.5372">
        <ele>32</ele>
        <time>2020-02-17T17:07:20Z</time>
      </trkpt>
      <trkpt lat="48.08771" lon="-4.53772">
        <ele>37</ele>
        <time>2020-02-17T17:08:18Z</time>
      </trkpt>
      <trkpt lat="48.08757" lon="-4.53806">
        <ele>38</ele>
        <time>2020-02-17T17:08:53Z</time>
      </trkpt>
      <trkpt lat="48.08746" lon="-4.53854">
        <ele>33</ele>
        <time>2020-02-17T17:09:39Z</time>
      </trkpt>
      <trkpt lat="48.08742" lon="-4.53879">
        <ele>27</ele>
        <time>2020-02-17T17:10:01Z</time>
      </trkpt>
      <trkpt lat="48.08735" lon="-4.53898">
        <ele>24</ele>
        <time>2020-02-17T17:10:21Z</time>
      </trkpt>
      <trkpt lat="48.08726" lon="-4.53911">
        <ele>22</ele>
        <time>2020-02-17T17:10:38Z</time>
      </trkpt>
      <trkpt lat="48.08713" lon="-4.5391">
        <ele>24</ele>
        <time>2020-02-17T17:10:55Z</time>
      </trkpt>
      <trkpt lat="48.08702" lon="-4.53914">
        <ele>25</ele>
        <time>2020-02-17T17:11:10Z</time>
      </trkpt>
      <trkpt lat="48.08681" lon="-4.53914">
        <ele>28</ele>
        <time>2020-02-17T17:11:38Z</time>
      </trkpt>
      <trkpt lat="48.08673" lon="-4.53916">
        <ele>28</ele>
        <time>2020-02-17T17:11:49Z</time>
      </trkpt>
      <trkpt lat="48.08656" lon="-4.53925">
        <ele>27</ele>
        <time>2020-02-17T17:12:13Z</time>
      </trkpt>
      <trkpt lat="48.08651" lon="-4.53931">
        <ele>25</ele>
        <time>2020-02-17T17:12:21Z</time>
      </trkpt>
      <trkpt lat="48.08642" lon="-4.5395">
        <ele>21</ele>
        <time>2020-02-17T17:12:42Z</time>
      </trkpt>
      <trkpt lat="48.08628" lon="-4.53944">
        <ele>22</ele>
        <time>2020-02-17T17:13:02Z</time>
      </trkpt>
      <trkpt lat="48.0861" lon="-4.53942">
        <ele>22</ele>
        <time>2020-02-17T17:13:26Z</time>
      </trkpt>
      <trkpt lat="48.086" lon="-4.53939">
        <ele>23</ele>
        <time>2020-02-17T17:13:39Z</time>
      </trkpt>
      <trkpt lat="48.08592" lon="-4.53932">
        <ele>24</ele>
        <time>2020-02-17T17:13:52Z</time>
      </trkpt>
      <trkpt lat="48.0858" lon="-4.53895">
        <ele>33</ele>
        <time>2020-02-17T17:14:28Z</time>
      </trkpt>
      <trkpt lat="48.08561" lon="-4.53856">
        <ele>44</ele>
        <time>2020-02-17T17:15:11Z</time>
      </trkpt>
      <trkpt lat="48.08553" lon="-4.53848">
        <ele>46</ele>
        <time>2020-02-17T17:15:24Z</time>
      </trkpt>
      <trkpt lat="48.08523" lon="-4.53841">
        <ele>47</ele>
        <time>2020-02-17T17:16:05Z</time>
      </trkpt>
      <trkpt lat="48.0852" lon="-4.53881">
        <ele>41</ele>
        <time>2020-02-17T17:16:41Z</time>
      </trkpt>
      <trkpt lat="48.08519" lon="-4.53934">
        <ele>31</ele>
        <time>2020-02-17T17:17:28Z</time>
      </trkpt>
      <trkpt lat="48.08517" lon="-4.53954">
        <ele>27</ele>
        <time>2020-02-17T17:17:46Z</time>
      </trkpt>
      <trkpt lat="48.08514" lon="-4.5397">
        <ele>23</ele>
        <time>2020-02-17T17:18:01Z</time>
      </trkpt>
      <trkpt lat="48.0851" lon="-4.53976">
        <ele>22</ele>
        <time>2020-02-17T17:18:08Z</time>
      </trkpt>
      <trkpt lat="48.08505" lon="-4.53975">
        <ele>23</ele>
        <time>2020-02-17T17:18:15Z</time>
      </trkpt>
      <trkpt lat="48.08489" lon="-4.53948">
        <ele>31</ele>
        <time>2020-02-17T17:18:47Z</time>
      </trkpt>
      <trkpt lat="48.08481" lon="-4.53946">
        <ele>32</ele>
        <time>2020-02-17T17:18:58Z</time>
      </trkpt>
      <trkpt lat="48.08473" lon="-4.53948">
        <ele>32</ele>
        <time>2020-02-17T17:19:09Z</time>
      </trkpt>
      <trkpt lat="48.08436" lon="-4.53937">
        <ele>37</ele>
        <time>2020-02-17T17:19:59Z</time>
      </trkpt>
      <trkpt lat="48.08411" lon="-4.53952">
        <ele>35</ele>
        <time>2020-02-17T17:20:35Z</time>
      </trkpt>
      <trkpt lat="48.08363" lon="-4.5397">
        <ele>40</ele>
        <time>2020-02-17T17:21:41Z</time>
      </trkpt>
      <trkpt lat="48.08355" lon="-4.53976">
        <ele>40</ele>
        <time>2020-02-17T17:21:53Z</time>
      </trkpt>
      <trkpt lat="48.08349" lon="-4.53984">
        <ele>40</ele>
        <time>2020-02-17T17:22:04Z</time>
      </trkpt>
      <trkpt lat="48.08337" lon="-4.5401">
        <ele>39</ele>
        <time>2020-02-17T17:22:32Z</time>
      </trkpt>
      <trkpt lat="48.0833" lon="-4.54032">
        <ele>36</ele>
        <time>2020-02-17T17:22:54Z</time>
      </trkpt>
      <trkpt lat="48.08327" lon="-4.54068">
        <ele>29</ele>
        <time>2020-02-17T17:23:26Z</time>
      </trkpt>
      <trkpt lat="48.08327" lon="-4.54094">
        <ele>24</ele>
        <time>2020-02-17T17:23:49Z</time>
      </trkpt>
      <trkpt lat="48.08325" lon="-4.54102">
        <ele>23</ele>
        <time>2020-02-17T17:23:57Z</time>
      </trkpt>
      <trkpt lat="48.08319" lon="-4.54103">
        <ele>23</ele>
        <time>2020-02-17T17:24:05Z</time>
      </trkpt>
      <trkpt lat="48.08312" lon="-4.541">
        <ele>24</ele>
        <time>2020-02-17T17:24:15Z</time>
      </trkpt>
      <trkpt lat="48.08305" lon="-4.541">
        <ele>24</ele>
        <time>2020-02-17T17:24:24Z</time>
      </trkpt>
      <trkpt lat="48.08297" lon="-4.54111">
        <ele>22</ele>
        <time>2020-02-17T17:24:38Z</time>
      </trkpt>
      <trkpt lat="48.08293" lon="-4.54124">
        <ele>19</ele>
        <time>2020-02-17T17:24:51Z</time>
      </trkpt>
      <trkpt lat="48.0829" lon="-4.54127">
        <ele>18</ele>
        <time>2020-02-17T17:24:56Z</time>
      </trkpt>
      <trkpt lat="48.0828" lon="-4.54127">
        <ele>18</ele>
        <time>2020-02-17T17:25:09Z</time>
      </trkpt>
      <trkpt lat="48.08262" lon="-4.5411">
        <ele>23</ele>
        <time>2020-02-17T17:25:38Z</time>
      </trkpt>
      <trkpt lat="48.08244" lon="-4.54107">
        <ele>23</ele>
        <time>2020-02-17T17:26:02Z</time>
      </trkpt>
      <trkpt lat="48.0823" lon="-4.54099">
        <ele>23</ele>
        <time>2020-02-17T17:26:22Z</time>
      </trkpt>
      <trkpt lat="48.08189" lon="-4.54089">
        <ele>20</ele>
        <time>2020-02-17T17:27:17Z</time>
      </trkpt>
      <trkpt lat="48.08175" lon="-4.54083">
        <ele>18</ele>
        <time>2020-02-17T17:27:37Z</time>
      </trkpt>
      <trkpt lat="48.08166" lon="-4.54077">
        <ele>18</ele>
        <time>2020-02-17T17:27:50Z</time>
      </trkpt>
      <trkpt lat="48.08163" lon="-4.54067">
        <ele>21</ele>
        <time>2020-02-17T17:28:00Z</time>
      </trkpt>
      <trkpt lat="48.08157" lon="-4.54061">
        <ele>23</ele>
        <time>2020-02-17T17:28:09Z</time>
      </trkpt>
      <trkpt lat="48.08133" lon="-4.54046">
        <ele>28</ele>
        <time>2020-02-17T17:28:44Z</time>
      </trkpt>
      <trkpt lat="48.08123" lon="-4.54037">
        <ele>30</ele>
        <time>2020-02-17T17:29:00Z</time>
      </trkpt>
      <trkpt lat="48.0811" lon="-4.5402">
        <ele>31</ele>
        <time>2020-02-17T17:29:23Z</time>
      </trkpt>
      <trkpt lat="48.08106" lon="-4.54019">
        <ele>31</ele>
        <time>2020-02-17T17:29:28Z</time>
      </trkpt>
      <trkpt lat="48.08098" lon="-4.54012">
        <ele>31</ele>
        <time>2020-02-17T17:29:40Z</time>
      </trkpt>
      <trkpt lat="48.08097" lon="-4.54021">
        <ele>31</ele>
        <time>2020-02-17T17:29:49Z</time>
      </trkpt>
      <trkpt lat="48.08093" lon="-4.54023">
        <ele>31</ele>
        <time>2020-02-17T17:29:54Z</time>
      </trkpt>
      <trkpt lat="48.08094" lon="-4.54041">
        <ele>31</ele>
        <time>2020-02-17T17:30:10Z</time>
      </trkpt>
      <trkpt lat="48.08103" lon="-4.54064">
        <ele>30</ele>
        <time>2020-02-17T17:30:34Z</time>
      </trkpt>
      <trkpt lat="48.0811" lon="-4.54106">
        <ele>27</ele>
        <time>2020-02-17T17:31:13Z</time>
      </trkpt>
      <trkpt lat="48.08109" lon="-4.54121">
        <ele>27</ele>
        <time>2020-02-17T17:31:26Z</time>
      </trkpt>
      <trkpt lat="48.08103" lon="-4.54156">
        <ele>28</ele>
        <time>2020-02-17T17:31:58Z</time>
      </trkpt>
      <trkpt lat="48.08103" lon="-4.5418">
        <ele>29</ele>
        <time>2020-02-17T17:32:20Z</time>
      </trkpt>
      <trkpt lat="48.08089" lon="-4.54214">
        <ele>35</ele>
        <time>2020-02-17T17:32:55Z</time>
      </trkpt>
      <trkpt lat="48.08086" lon="-4.54229">
        <ele>36</ele>
        <time>2020-02-17T17:33:09Z</time>
      </trkpt>
      <trkpt lat="48.08088" lon="-4.5424">
        <ele>36</ele>
        <time>2020-02-17T17:33:19Z</time>
      </trkpt>
      <trkpt lat="48.08096" lon="-4.54252">
        <ele>33</ele>
        <time>2020-02-17T17:33:35Z</time>
      </trkpt>
      <trkpt lat="48.08104" lon="-4.54275">
        <ele>31</ele>
        <time>2020-02-17T17:33:58Z</time>
      </trkpt>
      <trkpt lat="48.08103" lon="-4.54337">
        <ele>34</ele>
        <time>2020-02-17T17:34:53Z</time>
      </trkpt>
      <trkpt lat="48.08104" lon="-4.54376">
        <ele>32</ele>
        <time>2020-02-17T17:35:28Z</time>
      </trkpt>
      <trkpt lat="48.081" lon="-4.54406">
        <ele>32</ele>
        <time>2020-02-17T17:35:55Z</time>
      </trkpt>
      <trkpt lat="48.08102" lon="-4.54411">
        <ele>31</ele>
        <time>2020-02-17T17:36:00Z</time>
      </trkpt>
      <trkpt lat="48.08102" lon="-4.54418">
        <ele>31</ele>
        <time>2020-02-17T17:36:06Z</time>
      </trkpt>
      <trkpt lat="48.08097" lon="-4.54428">
        <ele>31</ele>
        <time>2020-02-17T17:36:18Z</time>
      </trkpt>
      <trkpt lat="48.08104" lon="-4.54435">
        <ele>28</ele>
        <time>2020-02-17T17:36:29Z</time>
      </trkpt>
      <trkpt lat="48.08119" lon="-4.54436">
        <ele>23</ele>
        <time>2020-02-17T17:36:49Z</time>
      </trkpt>
      <trkpt lat="48.08104" lon="-4.54435">
        <ele>28</ele>
        <time>2020-02-17T17:37:09Z</time>
      </trkpt>
      <trkpt lat="48.08097" lon="-4.54428">
        <ele>31</ele>
        <time>2020-02-17T17:37:20Z</time>
      </trkpt>
      <trkpt lat="48.08089" lon="-4.54432">
        <ele>33</ele>
        <time>2020-02-17T17:37:31Z</time>
      </trkpt>
      <trkpt lat="48.0808" lon="-4.54426">
        <ele>37</ele>
        <time>2020-02-17T17:37:45Z</time>
      </trkpt>
      <trkpt lat="48.08074" lon="-4.54418">
        <ele>39</ele>
        <time>2020-02-17T17:37:55Z</time>
      </trkpt>
      <trkpt lat="48.08066" lon="-4.54418">
        <ele>40</ele>
        <time>2020-02-17T17:38:06Z</time>
      </trkpt>
      <trkpt lat="48.08063" lon="-4.54429">
        <ele>39</ele>
        <time>2020-02-17T17:38:17Z</time>
      </trkpt>
      <trkpt lat="48.08051" lon="-4.54448">
        <ele>38</ele>
        <time>2020-02-17T17:38:40Z</time>
      </trkpt>
      <trkpt lat="48.08039" lon="-4.54477">
        <ele>35</ele>
        <time>2020-02-17T17:39:10Z</time>
      </trkpt>
      <trkpt lat="48.08038" lon="-4.54487">
        <ele>33</ele>
        <time>2020-02-17T17:39:19Z</time>
      </trkpt>
      <trkpt lat="48.08025" lon="-4.54529">
        <ele>27</ele>
        <time>2020-02-17T17:40:01Z</time>
      </trkpt>
      <trkpt lat="48.08023" lon="-4.54548">
        <ele>22</ele>
        <time>2020-02-17T17:40:18Z</time>
      </trkpt>
      <trkpt lat="48.08016" lon="-4.54554">
        <ele>22</ele>
        <time>2020-02-17T17:40:28Z</time>
      </trkpt>
      <trkpt lat="48.07991" lon="-4.5455">
        <ele>24</ele>
        <time>2020-02-17T17:41:02Z</time>
      </trkpt>
      <trkpt lat="48.07963" lon="-4.54542">
        <ele>22</ele>
        <time>2020-02-17T17:41:40Z</time>
      </trkpt>
      <trkpt lat="48.07957" lon="-4.54542">
        <ele>21</ele>
        <time>2020-02-17T17:41:48Z</time>
      </trkpt>
      <trkpt lat="48.07939" lon="-4.54521">
        <ele>23</ele>
        <time>2020-02-17T17:42:19Z</time>
      </trkpt>
      <trkpt lat="48.07922" lon="-4.54508">
        <ele>23</ele>
        <time>2020-02-17T17:42:44Z</time>
      </trkpt>
      <trkpt lat="48.07914" lon="-4.54498">
        <ele>24</ele>
        <time>2020-02-17T17:42:58Z</time>
      </trkpt>
      <trkpt lat="48.07894" lon="-4.5447">
        <ele>32</ele>
        <time>2020-02-17T17:43:34Z</time>
      </trkpt>
      <trkpt lat="48.07881" lon="-4.54449">
        <ele>38</ele>
        <time>2020-02-17T17:44:00Z</time>
      </trkpt>
      <trkpt lat="48.07878" lon="-4.54447">
        <ele>38</ele>
        <time>2020-02-17T17:44:04Z</time>
      </trkpt>
      <trkpt lat="48.07873" lon="-4.54437">
        <ele>41</ele>
        <time>2020-02-17T17:44:16Z</time>
      </trkpt>
      <trkpt lat="48.07871" lon="-4.54438">
        <ele>41</ele>
        <time>2020-02-17T17:44:18Z</time>
      </trkpt>
      <trkpt lat="48.07867" lon="-4.54448">
        <ele>39</ele>
        <time>2020-02-17T17:44:29Z</time>
      </trkpt>
      <trkpt lat="48.07861" lon="-4.54454">
        <ele>38</ele>
        <time>2020-02-17T17:44:38Z</time>
      </trkpt>
      <trkpt lat="48.0785" lon="-4.54458">
        <ele>38</ele>
        <time>2020-02-17T17:44:53Z</time>
      </trkpt>
      <trkpt lat="48.07844" lon="-4.54465">
        <ele>37</ele>
        <time>2020-02-17T17:45:04Z</time>
      </trkpt>
      <trkpt lat="48.07828" lon="-4.54488">
        <ele>35</ele>
        <time>2020-02-17T17:45:33Z</time>
      </trkpt>
      <trkpt lat="48.07825" lon="-4.54498">
        <ele>34</ele>
        <time>2020-02-17T17:45:43Z</time>
      </trkpt>
      <trkpt lat="48.07822" lon="-4.54529">
        <ele>29</ele>
        <time>2020-02-17T17:46:11Z</time>
      </trkpt>
      <trkpt lat="48.07822" lon="-4.54536">
        <ele>28</ele>
        <time>2020-02-17T17:46:17Z</time>
      </trkpt>
      <trkpt lat="48.07826" lon="-4.54555">
        <ele>23</ele>
        <time>2020-02-17T17:46:35Z</time>
      </trkpt>
      <trkpt lat="48.07834" lon="-4.54568">
        <ele>18</ele>
        <time>2020-02-17T17:46:51Z</time>
      </trkpt>
      <trkpt lat="48.07834" lon="-4.54571">
        <ele>17</ele>
        <time>2020-02-17T17:46:53Z</time>
      </trkpt>
      <trkpt lat="48.07833" lon="-4.54574">
        <ele>17</ele>
        <time>2020-02-17T17:46:56Z</time>
      </trkpt>
      <trkpt lat="48.07829" lon="-4.54576">
        <ele>18</ele>
        <time>2020-02-17T17:47:02Z</time>
      </trkpt>
      <trkpt lat="48.07826" lon="-4.54573">
        <ele>19</ele>
        <time>2020-02-17T17:47:07Z</time>
      </trkpt>
      <trkpt lat="48.07821" lon="-4.54575">
        <ele>20</ele>
        <time>2020-02-17T17:47:14Z</time>
      </trkpt>
      <trkpt lat="48.07802" lon="-4.54569">
        <ele>27</ele>
        <time>2020-02-17T17:47:40Z</time>
      </trkpt>
      <trkpt lat="48.07782" lon="-4.54568">
        <ele>34</ele>
        <time>2020-02-17T17:48:06Z</time>
      </trkpt>
      <trkpt lat="48.07782" lon="-4.54559">
        <ele>35</ele>
        <time>2020-02-17T17:48:14Z</time>
      </trkpt>
      <trkpt lat="48.07784" lon="-4.54554">
        <ele>35</ele>
        <time>2020-02-17T17:48:20Z</time>
      </trkpt>
      <trkpt lat="48.07781" lon="-4.54551">
        <ele>37</ele>
        <time>2020-02-17T17:48:24Z</time>
      </trkpt>
      <trkpt lat="48.07766" lon="-4.54557">
        <ele>40</ele>
        <time>2020-02-17T17:48:45Z</time>
      </trkpt>
      <trkpt lat="48.0774" lon="-4.54552">
        <ele>47</ele>
        <time>2020-02-17T17:49:20Z</time>
      </trkpt>
      <trkpt lat="48.07739" lon="-4.54556">
        <ele>47</ele>
        <time>2020-02-17T17:49:24Z</time>
      </trkpt>
      <trkpt lat="48.07735" lon="-4.54557">
        <ele>47</ele>
        <time>2020-02-17T17:49:29Z</time>
      </trkpt>
      <trkpt lat="48.07724" lon="-4.54577">
        <ele>46</ele>
        <time>2020-02-17T17:49:52Z</time>
      </trkpt>
      <trkpt lat="48.07714" lon="-4.54604">
        <ele>45</ele>
        <time>2020-02-17T17:50:20Z</time>
      </trkpt>
      <trkpt lat="48.07713" lon="-4.54613">
        <ele>44</ele>
        <time>2020-02-17T17:50:28Z</time>
      </trkpt>
      <trkpt lat="48.07715" lon="-4.54625">
        <ele>42</ele>
        <time>2020-02-17T17:50:39Z</time>
      </trkpt>
      <trkpt lat="48.0771" lon="-4.54639">
        <ele>41</ele>
        <time>2020-02-17T17:50:53Z</time>
      </trkpt>
      <trkpt lat="48.07714" lon="-4.54656">
        <ele>38</ele>
        <time>2020-02-17T17:51:09Z</time>
      </trkpt>
      <trkpt lat="48.07715" lon="-4.54669">
        <ele>37</ele>
        <time>2020-02-17T17:51:21Z</time>
      </trkpt>
      <trkpt lat="48.07718" lon="-4.54675">
        <ele>35</ele>
        <time>2020-02-17T17:51:28Z</time>
      </trkpt>
      <trkpt lat="48.07718" lon="-4.54681">
        <ele>35</ele>
        <time>2020-02-17T17:51:33Z</time>
      </trkpt>
      <trkpt lat="48.07725" lon="-4.54701">
        <ele>31</ele>
        <time>2020-02-17T17:51:53Z</time>
      </trkpt>
      <trkpt lat="48.07726" lon="-4.54708">
        <ele>30</ele>
        <time>2020-02-17T17:51:59Z</time>
      </trkpt>
      <trkpt lat="48.07724" lon="-4.54729">
        <ele>29</ele>
        <time>2020-02-17T17:52:18Z</time>
      </trkpt>
      <trkpt lat="48.07731" lon="-4.54756">
        <ele>25</ele>
        <time>2020-02-17T17:52:44Z</time>
      </trkpt>
      <trkpt lat="48.07735" lon="-4.54793">
        <ele>22</ele>
        <time>2020-02-17T17:53:18Z</time>
      </trkpt>
      <trkpt lat="48.0774" lon="-4.54815">
        <ele>19</ele>
        <time>2020-02-17T17:53:38Z</time>
      </trkpt>
      <trkpt lat="48.07738" lon="-4.54826">
        <ele>19</ele>
        <time>2020-02-17T17:53:49Z</time>
      </trkpt>
      <trkpt lat="48.07742" lon="-4.54833">
        <ele>18</ele>
        <time>2020-02-17T17:53:57Z</time>
      </trkpt>
      <trkpt lat="48.07742" lon="-4.54841">
        <ele>17</ele>
        <time>2020-02-17T17:54:04Z</time>
      </trkpt>
      <trkpt lat="48.0773" lon="-4.54841">
        <ele>21</ele>
        <time>2020-02-17T17:54:20Z</time>
      </trkpt>
      <trkpt lat="48.0772" lon="-4.54848">
        <ele>25</ele>
        <time>2020-02-17T17:54:35Z</time>
      </trkpt>
      <trkpt lat="48.07717" lon="-4.54853">
        <ele>26</ele>
        <time>2020-02-17T17:54:41Z</time>
      </trkpt>
      <trkpt lat="48.07715" lon="-4.54871">
        <ele>26</ele>
        <time>2020-02-17T17:54:57Z</time>
      </trkpt>
      <trkpt lat="48.07712" lon="-4.54873">
        <ele>27</ele>
        <time>2020-02-17T17:55:01Z</time>
      </trkpt>
      <trkpt lat="48.07708" lon="-4.54872">
        <ele>29</ele>
        <time>2020-02-17T17:55:07Z</time>
      </trkpt>
      <trkpt lat="48.07701" lon="-4.54865">
        <ele>31</ele>
        <time>2020-02-17T17:55:18Z</time>
      </trkpt>
      <trkpt lat="48.07696" lon="-4.54867">
        <ele>33</ele>
        <time>2020-02-17T17:55:25Z</time>
      </trkpt>
      <trkpt lat="48.07692" lon="-4.5488">
        <ele>34</ele>
        <time>2020-02-17T17:55:38Z</time>
      </trkpt>
      <trkpt lat="48.07694" lon="-4.54899">
        <ele>34</ele>
        <time>2020-02-17T17:55:55Z</time>
      </trkpt>
      <trkpt lat="48.07693" lon="-4.54911">
        <ele>35</ele>
        <time>2020-02-17T17:56:05Z</time>
      </trkpt>
      <trkpt lat="48.07693" lon="-4.5493">
        <ele>35</ele>
        <time>2020-02-17T17:56:22Z</time>
      </trkpt>
      <trkpt lat="48.07691" lon="-4.54937">
        <ele>36</ele>
        <time>2020-02-17T17:56:29Z</time>
      </trkpt>
      <trkpt lat="48.0769" lon="-4.54952">
        <ele>36</ele>
        <time>2020-02-17T17:56:43Z</time>
      </trkpt>
      <trkpt lat="48.07705" lon="-4.54994">
        <ele>30</ele>
        <time>2020-02-17T17:57:25Z</time>
      </trkpt>
      <trkpt lat="48.07703" lon="-4.54999">
        <ele>31</ele>
        <time>2020-02-17T17:57:30Z</time>
      </trkpt>
      <trkpt lat="48.07702" lon="-4.5501">
        <ele>29</ele>
        <time>2020-02-17T17:57:40Z</time>
      </trkpt>
      <trkpt lat="48.07694" lon="-4.55025">
        <ele>29</ele>
        <time>2020-02-17T17:57:57Z</time>
      </trkpt>
      <trkpt lat="48.0769" lon="-4.55047">
        <ele>27</ele>
        <time>2020-02-17T17:58:18Z</time>
      </trkpt>
      <trkpt lat="48.07681" lon="-4.55055">
        <ele>28</ele>
        <time>2020-02-17T17:58:32Z</time>
      </trkpt>
      <trkpt lat="48.07664" lon="-4.55084">
        <ele>26</ele>
        <time>2020-02-17T17:59:06Z</time>
      </trkpt>
      <trkpt lat="48.07659" lon="-4.55095">
        <ele>24</ele>
        <time>2020-02-17T17:59:18Z</time>
      </trkpt>
      <trkpt lat="48.07655" lon="-4.55115">
        <ele>21</ele>
        <time>2020-02-17T17:59:37Z</time>
      </trkpt>
      <trkpt lat="48.07654" lon="-4.55117">
        <ele>20</ele>
        <time>2020-02-17T17:59:39Z</time>
      </trkpt>
      <trkpt lat="48.07647" lon="-4.55106">
        <ele>24</ele>
        <time>2020-02-17T17:59:52Z</time>
      </trkpt>
      <trkpt lat="48.0763" lon="-4.55107">
        <ele>25</ele>
        <time>2020-02-17T18:00:15Z</time>
      </trkpt>
      <trkpt lat="48.07627" lon="-4.55112">
        <ele>25</ele>
        <time>2020-02-17T18:00:21Z</time>
      </trkpt>
      <trkpt lat="48.07623" lon="-4.55114">
        <ele>25</ele>
        <time>2020-02-17T18:00:27Z</time>
      </trkpt>
      <trkpt lat="48.07598" lon="-4.55162">
        <ele>17</ele>
        <time>2020-02-17T18:01:21Z</time>
      </trkpt>
      <trkpt lat="48.07596" lon="-4.55169">
        <ele>16</ele>
        <time>2020-02-17T18:01:28Z</time>
      </trkpt>
      <trkpt lat="48.07596" lon="-4.55173">
        <ele>16</ele>
        <time>2020-02-17T18:01:31Z</time>
      </trkpt>
      <trkpt lat="48.07594" lon="-4.55185">
        <ele>16</ele>
        <time>2020-02-17T18:01:42Z</time>
      </trkpt>
      <trkpt lat="48.07588" lon="-4.55202">
        <ele>16</ele>
        <time>2020-02-17T18:01:59Z</time>
      </trkpt>
      <trkpt lat="48.07587" lon="-4.55213">
        <ele>17</ele>
        <time>2020-02-17T18:02:09Z</time>
      </trkpt>
      <trkpt lat="48.07592" lon="-4.55215">
        <ele>16</ele>
        <time>2020-02-17T18:02:16Z</time>
      </trkpt>
      <trkpt lat="48.07593" lon="-4.55224">
        <ele>16</ele>
        <time>2020-02-17T18:02:24Z</time>
      </trkpt>
      <trkpt lat="48.07596" lon="-4.55241">
        <ele>15</ele>
        <time>2020-02-17T18:02:40Z</time>
      </trkpt>
      <trkpt lat="48.07603" lon="-4.55247">
        <ele>14</ele>
        <time>2020-02-17T18:02:51Z</time>
      </trkpt>
      <trkpt lat="48.07617" lon="-4.55266">
        <ele>15</ele>
        <time>2020-02-17T18:03:16Z</time>
      </trkpt>
      <trkpt lat="48.07623" lon="-4.55281">
        <ele>17</ele>
        <time>2020-02-17T18:03:32Z</time>
      </trkpt>
      <trkpt lat="48.07649" lon="-4.55299">
        <ele>16</ele>
        <time>2020-02-17T18:04:10Z</time>
      </trkpt>
      <trkpt lat="48.07664" lon="-4.55312">
        <ele>16</ele>
        <time>2020-02-17T18:04:33Z</time>
      </trkpt>
      <trkpt lat="48.07668" lon="-4.55319">
        <ele>16</ele>
        <time>2020-02-17T18:04:41Z</time>
      </trkpt>
      <trkpt lat="48.07671" lon="-4.55334">
        <ele>18</ele>
        <time>2020-02-17T18:04:55Z</time>
      </trkpt>
      <trkpt lat="48.07681" lon="-4.55352">
        <ele>20</ele>
        <time>2020-02-17T18:05:16Z</time>
      </trkpt>
      <trkpt lat="48.07688" lon="-4.55372">
        <ele>21</ele>
        <time>2020-02-17T18:05:36Z</time>
      </trkpt>
      <trkpt lat="48.07692" lon="-4.55388">
        <ele>23</ele>
        <time>2020-02-17T18:05:51Z</time>
      </trkpt>
      <trkpt lat="48.07693" lon="-4.55416">
        <ele>26</ele>
        <time>2020-02-17T18:06:16Z</time>
      </trkpt>
      <trkpt lat="48.07698" lon="-4.55423">
        <ele>26</ele>
        <time>2020-02-17T18:06:25Z</time>
      </trkpt>
      <trkpt lat="48.07701" lon="-4.55433">
        <ele>26</ele>
        <time>2020-02-17T18:06:35Z</time>
      </trkpt>
      <trkpt lat="48.07712" lon="-4.55452">
        <ele>25</ele>
        <time>2020-02-17T18:06:58Z</time>
      </trkpt>
      <trkpt lat="48.0772" lon="-4.55473">
        <ele>26</ele>
        <time>2020-02-17T18:07:19Z</time>
      </trkpt>
      <trkpt lat="48.07725" lon="-4.55477">
        <ele>25</ele>
        <time>2020-02-17T18:07:27Z</time>
      </trkpt>
      <trkpt lat="48.0773" lon="-4.55485">
        <ele>25</ele>
        <time>2020-02-17T18:07:37Z</time>
      </trkpt>
      <trkpt lat="48.07733" lon="-4.55497">
        <ele>26</ele>
        <time>2020-02-17T18:07:48Z</time>
      </trkpt>
      <trkpt lat="48.07738" lon="-4.55498">
        <ele>25</ele>
        <time>2020-02-17T18:07:55Z</time>
      </trkpt>
      <trkpt lat="48.07756" lon="-4.55478">
        <ele>17</ele>
        <time>2020-02-17T18:08:25Z</time>
      </trkpt>
      <trkpt lat="48.0776" lon="-4.55478">
        <ele>16</ele>
        <time>2020-02-17T18:08:30Z</time>
      </trkpt>
      <trkpt lat="48.07767" lon="-4.55488">
        <ele>17</ele>
        <time>2020-02-17T18:08:43Z</time>
      </trkpt>
      <trkpt lat="48.07776" lon="-4.55497">
        <ele>16</ele>
        <time>2020-02-17T18:08:57Z</time>
      </trkpt>
      <trkpt lat="48.07789" lon="-4.5552">
        <ele>17</ele>
        <time>2020-02-17T18:09:24Z</time>
      </trkpt>
      <trkpt lat="48.07796" lon="-4.55525">
        <ele>16</ele>
        <time>2020-02-17T18:09:35Z</time>
      </trkpt>
      <trkpt lat="48.07805" lon="-4.55546">
        <ele>17</ele>
        <time>2020-02-17T18:09:57Z</time>
      </trkpt>
      <trkpt lat="48.07813" lon="-4.5555">
        <ele>15</ele>
        <time>2020-02-17T18:10:08Z</time>
      </trkpt>
      <trkpt lat="48.07817" lon="-4.55558">
        <ele>15</ele>
        <time>2020-02-17T18:10:17Z</time>
      </trkpt>
      <trkpt lat="48.07823" lon="-4.55564">
        <ele>14</ele>
        <time>2020-02-17T18:10:27Z</time>
      </trkpt>
      <trkpt lat="48.07827" lon="-4.55573">
        <ele>14</ele>
        <time>2020-02-17T18:10:36Z</time>
      </trkpt>
      <trkpt lat="48.07833" lon="-4.55605">
        <ele>13</ele>
        <time>2020-02-17T18:11:06Z</time>
      </trkpt>
      <trkpt lat="48.07831" lon="-4.55629">
        <ele>14</ele>
        <time>2020-02-17T18:11:27Z</time>
      </trkpt>
      <trkpt lat="48.07825" lon="-4.55653">
        <ele>17</ele>
        <time>2020-02-17T18:11:50Z</time>
      </trkpt>
      <trkpt lat="48.07824" lon="-4.55663">
        <ele>17</ele>
        <time>2020-02-17T18:11:59Z</time>
      </trkpt>
      <trkpt lat="48.07826" lon="-4.55674">
        <ele>16</ele>
        <time>2020-02-17T18:12:09Z</time>
      </trkpt>
      <trkpt lat="48.07833" lon="-4.55689">
        <ele>13</ele>
        <time>2020-02-17T18:12:26Z</time>
      </trkpt>
      <trkpt lat="48.07834" lon="-4.55701">
        <ele>11</ele>
        <time>2020-02-17T18:12:37Z</time>
      </trkpt>
      <trkpt lat="48.07841" lon="-4.5572">
        <ele>9</ele>
        <time>2020-02-17T18:12:56Z</time>
      </trkpt>
      <trkpt lat="48.07843" lon="-4.55735">
        <ele>8</ele>
        <time>2020-02-17T18:13:10Z</time>
      </trkpt>
      <trkpt lat="48.07836" lon="-4.55734">
        <ele>9</ele>
        <time>2020-02-17T18:13:19Z</time>
      </trkpt>
      <trkpt lat="48.07832" lon="-4.55724">
        <ele>10</ele>
        <time>2020-02-17T18:13:29Z</time>
      </trkpt>
      <trkpt lat="48.07823" lon="-4.55716">
        <ele>14</ele>
        <time>2020-02-17T18:13:43Z</time>
      </trkpt>
      <trkpt lat="48.07816" lon="-4.55714">
        <ele>16</ele>
        <time>2020-02-17T18:13:53Z</time>
      </trkpt>
      <trkpt lat="48.07812" lon="-4.55702">
        <ele>18</ele>
        <time>2020-02-17T18:14:05Z</time>
      </trkpt>
      <trkpt lat="48.07808" lon="-4.55699">
        <ele>20</ele>
        <time>2020-02-17T18:14:11Z</time>
      </trkpt>
      <trkpt lat="48.07803" lon="-4.55697">
        <ele>22</ele>
        <time>2020-02-17T18:14:18Z</time>
      </trkpt>
      <trkpt lat="48.07788" lon="-4.557">
        <ele>26</ele>
        <time>2020-02-17T18:14:38Z</time>
      </trkpt>
      <trkpt lat="48.07776" lon="-4.55711">
        <ele>29</ele>
        <time>2020-02-17T18:14:57Z</time>
      </trkpt>
      <trkpt lat="48.07764" lon="-4.55698">
        <ele>34</ele>
        <time>2020-02-17T18:15:16Z</time>
      </trkpt>
      <trkpt lat="48.07761" lon="-4.55701">
        <ele>35</ele>
        <time>2020-02-17T18:15:21Z</time>
      </trkpt>
      <trkpt lat="48.07758" lon="-4.55714">
        <ele>35</ele>
        <time>2020-02-17T18:15:33Z</time>
      </trkpt>
      <trkpt lat="48.07732" lon="-4.55742">
        <ele>38</ele>
        <time>2020-02-17T18:16:16Z</time>
      </trkpt>
      <trkpt lat="48.07726" lon="-4.55755">
        <ele>39</ele>
        <time>2020-02-17T18:16:30Z</time>
      </trkpt>
      <trkpt lat="48.07725" lon="-4.55762">
        <ele>39</ele>
        <time>2020-02-17T18:16:37Z</time>
      </trkpt>
      <trkpt lat="48.07725" lon="-4.55769">
        <ele>39</ele>
        <time>2020-02-17T18:16:43Z</time>
      </trkpt>
      <trkpt lat="48.0773" lon="-4.55776">
        <ele>38</ele>
        <time>2020-02-17T18:16:52Z</time>
      </trkpt>
      <trkpt lat="48.07742" lon="-4.55784">
        <ele>35</ele>
        <time>2020-02-17T18:17:10Z</time>
      </trkpt>
      <trkpt lat="48.07746" lon="-4.55796">
        <ele>34</ele>
        <time>2020-02-17T18:17:21Z</time>
      </trkpt>
      <trkpt lat="48.0775" lon="-4.55816">
        <ele>33</ele>
        <time>2020-02-17T18:17:40Z</time>
      </trkpt>
      <trkpt lat="48.0775" lon="-4.55845">
        <ele>33</ele>
        <time>2020-02-17T18:18:06Z</time>
      </trkpt>
      <trkpt lat="48.07753" lon="-4.55856">
        <ele>32</ele>
        <time>2020-02-17T18:18:17Z</time>
      </trkpt>
      <trkpt lat="48.07752" lon="-4.55873">
        <ele>33</ele>
        <time>2020-02-17T18:18:32Z</time>
      </trkpt>
      <trkpt lat="48.07745" lon="-4.55898">
        <ele>35</ele>
        <time>2020-02-17T18:18:56Z</time>
      </trkpt>
      <trkpt lat="48.07744" lon="-4.55942">
        <ele>37</ele>
        <time>2020-02-17T18:19:35Z</time>
      </trkpt>
      <trkpt lat="48.07735" lon="-4.55957">
        <ele>40</ele>
        <time>2020-02-17T18:19:53Z</time>
      </trkpt>
      <trkpt lat="48.07719" lon="-4.55972">
        <ele>45</ele>
        <time>2020-02-17T18:20:18Z</time>
      </trkpt>
      <trkpt lat="48.07715" lon="-4.55986">
        <ele>47</ele>
        <time>2020-02-17T18:20:32Z</time>
      </trkpt>
      <trkpt lat="48.07719" lon="-4.55997">
        <ele>46</ele>
        <time>2020-02-17T18:20:43Z</time>
      </trkpt>
      <trkpt lat="48.07724" lon="-4.56004">
        <ele>46</ele>
        <time>2020-02-17T18:20:52Z</time>
      </trkpt>
      <trkpt lat="48.0774" lon="-4.56007">
        <ele>43</ele>
        <time>2020-02-17T18:21:14Z</time>
      </trkpt>
      <trkpt lat="48.07749" lon="-4.56019">
        <ele>43</ele>
        <time>2020-02-17T18:21:30Z</time>
      </trkpt>
      <trkpt lat="48.0776" lon="-4.56045">
        <ele>44</ele>
        <time>2020-02-17T18:21:57Z</time>
      </trkpt>
      <trkpt lat="48.07788" lon="-4.56104">
        <ele>46</ele>
        <time>2020-02-17T18:23:02Z</time>
      </trkpt>
      <trkpt lat="48.07823" lon="-4.56211">
        <ele>61</ele>
        <time>2020-02-17T18:24:48Z</time>
      </trkpt>
      <trkpt lat="48.07827" lon="-4.56216">
        <ele>61</ele>
        <time>2020-02-17T18:24:55Z</time>
      </trkpt>
      <trkpt lat="48.07835" lon="-4.56219">
        <ele>61</ele>
        <time>2020-02-17T18:25:06Z</time>
      </trkpt>
      <trkpt lat="48.07865" lon="-4.56225">
        <ele>54</ele>
        <time>2020-02-17T18:25:46Z</time>
      </trkpt>
      <trkpt lat="48.07873" lon="-4.56233">
        <ele>54</ele>
        <time>2020-02-17T18:25:59Z</time>
      </trkpt>
      <trkpt lat="48.07876" lon="-4.56238">
        <ele>55</ele>
        <time>2020-02-17T18:26:05Z</time>
      </trkpt>
      <trkpt lat="48.07874" lon="-4.56251">
        <ele>59</ele>
        <time>2020-02-17T18:26:17Z</time>
      </trkpt>
      <trkpt lat="48.07875" lon="-4.56261">
        <ele>61</ele>
        <time>2020-02-17T18:26:26Z</time>
      </trkpt>
      <trkpt lat="48.07886" lon="-4.56273">
        <ele>61</ele>
        <time>2020-02-17T18:26:44Z</time>
      </trkpt>
      <trkpt lat="48.07904" lon="-4.56279">
        <ele>59</ele>
        <time>2020-02-17T18:27:09Z</time>
      </trkpt>
      <trkpt lat="48.07907" lon="-4.56283">
        <ele>60</ele>
        <time>2020-02-17T18:27:14Z</time>
      </trkpt>
      <trkpt lat="48.07921" lon="-4.56321">
        <ele>64</ele>
        <time>2020-02-17T18:27:53Z</time>
      </trkpt>
      <trkpt lat="48.07925" lon="-4.56324">
        <ele>62</ele>
        <time>2020-02-17T18:27:59Z</time>
      </trkpt>
      <trkpt lat="48.07927" lon="-4.56344">
        <ele>64</ele>
        <time>2020-02-17T18:28:17Z</time>
      </trkpt>
      <trkpt lat="48.07935" lon="-4.56348">
        <ele>59</ele>
        <time>2020-02-17T18:28:28Z</time>
      </trkpt>
      <trkpt lat="48.07945" lon="-4.56371">
        <ele>55</ele>
        <time>2020-02-17T18:28:53Z</time>
      </trkpt>
      <trkpt lat="48.07955" lon="-4.56377">
        <ele>50</ele>
        <time>2020-02-17T18:29:07Z</time>
      </trkpt>
      <trkpt lat="48.07956" lon="-4.56395">
        <ele>51</ele>
        <time>2020-02-17T18:29:23Z</time>
      </trkpt>
      <trkpt lat="48.07953" lon="-4.56442">
        <ele>54</ele>
        <time>2020-02-17T18:30:05Z</time>
      </trkpt>
      <trkpt lat="48.07945" lon="-4.56485">
        <ele>58</ele>
        <time>2020-02-17T18:30:45Z</time>
      </trkpt>
      <trkpt lat="48.07953" lon="-4.56509">
        <ele>56</ele>
        <time>2020-02-17T18:31:09Z</time>
      </trkpt>
      <trkpt lat="48.07952" lon="-4.56527">
        <ele>57</ele>
        <time>2020-02-17T18:31:25Z</time>
      </trkpt>
      <trkpt lat="48.07959" lon="-4.56558">
        <ele>57</ele>
        <time>2020-02-17T18:31:54Z</time>
      </trkpt>
      <trkpt lat="48.07958" lon="-4.56571">
        <ele>59</ele>
        <time>2020-02-17T18:32:06Z</time>
      </trkpt>
      <trkpt lat="48.07964" lon="-4.56585">
        <ele>58</ele>
        <time>2020-02-17T18:32:21Z</time>
      </trkpt>
      <trkpt lat="48.07982" lon="-4.56608">
        <ele>57</ele>
        <time>2020-02-17T18:32:52Z</time>
      </trkpt>
      <trkpt lat="48.07988" lon="-4.56628">
        <ele>59</ele>
        <time>2020-02-17T18:33:12Z</time>
      </trkpt>
      <trkpt lat="48.07995" lon="-4.5664">
        <ele>60</ele>
        <time>2020-02-17T18:33:26Z</time>
      </trkpt>
      <trkpt lat="48.0802" lon="-4.56657">
        <ele>55</ele>
        <time>2020-02-17T18:34:03Z</time>
      </trkpt>
      <trkpt lat="48.08025" lon="-4.56663">
        <ele>55</ele>
        <time>2020-02-17T18:34:11Z</time>
      </trkpt>
      <trkpt lat="48.08036" lon="-4.56669">
        <ele>52</ele>
        <time>2020-02-17T18:34:27Z</time>
      </trkpt>
      <trkpt lat="48.08045" lon="-4.56685">
        <ele>53</ele>
        <time>2020-02-17T18:34:46Z</time>
      </trkpt>
      <trkpt lat="48.08059" lon="-4.567">
        <ele>52</ele>
        <time>2020-02-17T18:35:08Z</time>
      </trkpt>
      <trkpt lat="48.08079" lon="-4.56729">
        <ele>54</ele>
        <time>2020-02-17T18:35:46Z</time>
      </trkpt>
      <trkpt lat="48.0809" lon="-4.56736">
        <ele>53</ele>
        <time>2020-02-17T18:36:02Z</time>
      </trkpt>
      <trkpt lat="48.081" lon="-4.5674">
        <ele>51</ele>
        <time>2020-02-17T18:36:15Z</time>
      </trkpt>
      <trkpt lat="48.08126" lon="-4.56725">
        <ele>38</ele>
        <time>2020-02-17T18:36:53Z</time>
      </trkpt>
      <trkpt lat="48.08141" lon="-4.56723">
        <ele>33</ele>
        <time>2020-02-17T18:37:13Z</time>
      </trkpt>
      <trkpt lat="48.08155" lon="-4.56725">
        <ele>29</ele>
        <time>2020-02-17T18:37:31Z</time>
      </trkpt>
      <trkpt lat="48.08141" lon="-4.5674">
        <ele>37</ele>
        <time>2020-02-17T18:37:54Z</time>
      </trkpt>
      <trkpt lat="48.08139" lon="-4.56746">
        <ele>39</ele>
        <time>2020-02-17T18:38:00Z</time>
      </trkpt>
      <trkpt lat="48.08149" lon="-4.56756">
        <ele>37</ele>
        <time>2020-02-17T18:38:16Z</time>
      </trkpt>
      <trkpt lat="48.0816" lon="-4.56771">
        <ele>35</ele>
        <time>2020-02-17T18:38:36Z</time>
      </trkpt>
      <trkpt lat="48.08164" lon="-4.56785">
        <ele>35</ele>
        <time>2020-02-17T18:38:50Z</time>
      </trkpt>
      <trkpt lat="48.0816" lon="-4.5682">
        <ele>39</ele>
        <time>2020-02-17T18:39:22Z</time>
      </trkpt>
      <trkpt lat="48.08155" lon="-4.56844">
        <ele>41</ele>
        <time>2020-02-17T18:39:44Z</time>
      </trkpt>
      <trkpt lat="48.08141" lon="-4.56877">
        <ele>43</ele>
        <time>2020-02-17T18:40:19Z</time>
      </trkpt>
      <trkpt lat="48.08128" lon="-4.56896">
        <ele>47</ele>
        <time>2020-02-17T18:40:43Z</time>
      </trkpt>
      <trkpt lat="48.0812" lon="-4.56904">
        <ele>50</ele>
        <time>2020-02-17T18:40:56Z</time>
      </trkpt>
      <trkpt lat="48.08105" lon="-4.5691">
        <ele>56</ele>
        <time>2020-02-17T18:41:17Z</time>
      </trkpt>
      <trkpt lat="48.08097" lon="-4.56925">
        <ele>58</ele>
        <time>2020-02-17T18:41:34Z</time>
      </trkpt>
      <trkpt lat="48.08085" lon="-4.56939">
        <ele>63</ele>
        <time>2020-02-17T18:41:54Z</time>
      </trkpt>
      <trkpt lat="48.0808" lon="-4.56954">
        <ele>63</ele>
        <time>2020-02-17T18:42:09Z</time>
      </trkpt>
      <trkpt lat="48.08081" lon="-4.56973">
        <ele>61</ele>
        <time>2020-02-17T18:42:26Z</time>
      </trkpt>
      <trkpt lat="48.08087" lon="-4.56993">
        <ele>58</ele>
        <time>2020-02-17T18:42:46Z</time>
      </trkpt>
      <trkpt lat="48.08086" lon="-4.57018">
        <ele>55</ele>
        <time>2020-02-17T18:43:08Z</time>
      </trkpt>
      <trkpt lat="48.08071" lon="-4.57043">
        <ele>56</ele>
        <time>2020-02-17T18:43:38Z</time>
      </trkpt>
      <trkpt lat="48.08046" lon="-4.57122">
        <ele>52</ele>
        <time>2020-02-17T18:44:56Z</time>
      </trkpt>
      <trkpt lat="48.08045" lon="-4.57136">
        <ele>50</ele>
        <time>2020-02-17T18:45:08Z</time>
      </trkpt>
      <trkpt lat="48.08056" lon="-4.57145">
        <ele>46</ele>
        <time>2020-02-17T18:45:25Z</time>
      </trkpt>
      <trkpt lat="48.08059" lon="-4.57161">
        <ele>42</ele>
        <time>2020-02-17T18:45:40Z</time>
      </trkpt>
      <trkpt lat="48.08053" lon="-4.57171">
        <ele>43</ele>
        <time>2020-02-17T18:45:52Z</time>
      </trkpt>
      <trkpt lat="48.08019" lon="-4.57202">
        <ele>51</ele>
        <time>2020-02-17T18:46:45Z</time>
      </trkpt>
      <trkpt lat="48.08019" lon="-4.57233">
        <ele>50</ele>
        <time>2020-02-17T18:47:13Z</time>
      </trkpt>
      <trkpt lat="48.08035" lon="-4.5726">
        <ele>45</ele>
        <time>2020-02-17T18:47:45Z</time>
      </trkpt>
      <trkpt lat="48.08068" lon="-4.57268">
        <ele>36</ele>
        <time>2020-02-17T18:48:29Z</time>
      </trkpt>
      <trkpt lat="48.08078" lon="-4.57274">
        <ele>34</ele>
        <time>2020-02-17T18:48:44Z</time>
      </trkpt>
      <trkpt lat="48.08085" lon="-4.57288">
        <ele>34</ele>
        <time>2020-02-17T18:48:59Z</time>
      </trkpt>
      <trkpt lat="48.08105" lon="-4.57317">
        <ele>32</ele>
        <time>2020-02-17T18:49:36Z</time>
      </trkpt>
      <trkpt lat="48.08121" lon="-4.57329">
        <ele>28</ele>
        <time>2020-02-17T18:50:00Z</time>
      </trkpt>
      <trkpt lat="48.0814" lon="-4.57311">
        <ele>19</ele>
        <time>2020-02-17T18:50:30Z</time>
      </trkpt>
      <trkpt lat="48.08157" lon="-4.57323">
        <ele>15</ele>
        <time>2020-02-17T18:50:55Z</time>
      </trkpt>
      <trkpt lat="48.0816" lon="-4.5735">
        <ele>17</ele>
        <time>2020-02-17T18:51:20Z</time>
      </trkpt>
      <trkpt lat="48.08156" lon="-4.57413">
        <ele>25</ele>
        <time>2020-02-17T18:52:16Z</time>
      </trkpt>
      <trkpt lat="48.0815" lon="-4.57443">
        <ele>27</ele>
        <time>2020-02-17T18:52:44Z</time>
      </trkpt>
      <trkpt lat="48.08147" lon="-4.57485">
        <ele>28</ele>
        <time>2020-02-17T18:53:22Z</time>
      </trkpt>
      <trkpt lat="48.08147" lon="-4.57528">
        <ele>27</ele>
        <time>2020-02-17T18:54:00Z</time>
      </trkpt>
      <trkpt lat="48.08139" lon="-4.57538">
        <ele>29</ele>
        <time>2020-02-17T18:54:14Z</time>
      </trkpt>
      <trkpt lat="48.08096" lon="-4.57548">
        <ele>44</ele>
        <time>2020-02-17T18:55:12Z</time>
      </trkpt>
      <trkpt lat="48.08083" lon="-4.57553">
        <ele>49</ele>
        <time>2020-02-17T18:55:30Z</time>
      </trkpt>
      <trkpt lat="48.08079" lon="-4.57564">
        <ele>50</ele>
        <time>2020-02-17T18:55:41Z</time>
      </trkpt>
      <trkpt lat="48.08084" lon="-4.57591">
        <ele>50</ele>
        <time>2020-02-17T18:56:06Z</time>
      </trkpt>
      <trkpt lat="48.08092" lon="-4.57616">
        <ele>48</ele>
        <time>2020-02-17T18:56:31Z</time>
      </trkpt>
      <trkpt lat="48.08093" lon="-4.57629">
        <ele>48</ele>
        <time>2020-02-17T18:56:43Z</time>
      </trkpt>
      <trkpt lat="48.08096" lon="-4.57642">
        <ele>47</ele>
        <time>2020-02-17T18:56:55Z</time>
      </trkpt>
      <trkpt lat="48.081" lon="-4.57712">
        <ele>43</ele>
        <time>2020-02-17T18:57:58Z</time>
      </trkpt>
      <trkpt lat="48.08099" lon="-4.57726">
        <ele>43</ele>
        <time>2020-02-17T18:58:10Z</time>
      </trkpt>
      <trkpt lat="48.08097" lon="-4.57737">
        <ele>43</ele>
        <time>2020-02-17T18:58:20Z</time>
      </trkpt>
      <trkpt lat="48.08075" lon="-4.57771">
        <ele>50</ele>
        <time>2020-02-17T18:59:02Z</time>
      </trkpt>
      <trkpt lat="48.08066" lon="-4.5778">
        <ele>51</ele>
        <time>2020-02-17T18:59:17Z</time>
      </trkpt>
      <trkpt lat="48.0806" lon="-4.5779">
        <ele>52</ele>
        <time>2020-02-17T18:59:29Z</time>
      </trkpt>
      <trkpt lat="48.0806" lon="-4.57802">
        <ele>51</ele>
        <time>2020-02-17T18:59:40Z</time>
      </trkpt>
      <trkpt lat="48.08059" lon="-4.57816">
        <ele>51</ele>
        <time>2020-02-17T18:59:52Z</time>
      </trkpt>
      <trkpt lat="48.08064" lon="-4.57825">
        <ele>50</ele>
        <time>2020-02-17T19:00:03Z</time>
      </trkpt>
      <trkpt lat="48.08071" lon="-4.57826">
        <ele>48</ele>
        <time>2020-02-17T19:00:12Z</time>
      </trkpt>
      <trkpt lat="48.0808" lon="-4.57841">
        <ele>46</ele>
        <time>2020-02-17T19:00:30Z</time>
      </trkpt>
      <trkpt lat="48.08084" lon="-4.57852">
        <ele>46</ele>
        <time>2020-02-17T19:00:41Z</time>
      </trkpt>
      <trkpt lat="48.08089" lon="-4.57863">
        <ele>44</ele>
        <time>2020-02-17T19:00:53Z</time>
      </trkpt>
      <trkpt lat="48.08094" lon="-4.5787">
        <ele>41</ele>
        <time>2020-02-17T19:01:02Z</time>
      </trkpt>
      <trkpt lat="48.08106" lon="-4.57897">
        <ele>36</ele>
        <time>2020-02-17T19:01:31Z</time>
      </trkpt>
      <trkpt lat="48.08109" lon="-4.57914">
        <ele>35</ele>
        <time>2020-02-17T19:01:47Z</time>
      </trkpt>
      <trkpt lat="48.08115" lon="-4.57926">
        <ele>32</ele>
        <time>2020-02-17T19:02:00Z</time>
      </trkpt>
      <trkpt lat="48.08124" lon="-4.57933">
        <ele>27</ele>
        <time>2020-02-17T19:02:14Z</time>
      </trkpt>
      <trkpt lat="48.08128" lon="-4.57942">
        <ele>25</ele>
        <time>2020-02-17T19:02:23Z</time>
      </trkpt>
      <trkpt lat="48.08142" lon="-4.57956">
        <ele>17</ele>
        <time>2020-02-17T19:02:46Z</time>
      </trkpt>
      <trkpt lat="48.08157" lon="-4.57978">
        <ele>7</ele>
        <time>2020-02-17T19:03:14Z</time>
      </trkpt>
      <trkpt lat="48.08174" lon="-4.58015">
        <ele>23.1</ele>
        <time>2020-02-17T19:03:54Z</time>
      </trkpt>
      <trkpt lat="48.08174" lon="-4.58063">
        <ele>25.1</ele>
        <time>2020-02-17T19:04:36Z</time>
      </trkpt>
      <trkpt lat="48.08171" lon="-4.58112">
        <ele>2</ele>
        <time>2020-02-17T19:05:20Z</time>
      </trkpt>
      <trkpt lat="48.08165" lon="-4.58152">
        <ele>5</ele>
        <time>2020-02-17T19:05:57Z</time>
      </trkpt>
      <trkpt lat="48.08162" lon="-4.58184">
        <ele>6</ele>
        <time>2020-02-17T19:06:26Z</time>
      </trkpt>
      <trkpt lat="48.08151" lon="-4.58192">
        <ele>8</ele>
        <time>2020-02-17T19:06:42Z</time>
      </trkpt>
      <trkpt lat="48.08115" lon="-4.58163">
        <ele>19</ele>
        <time>2020-02-17T19:07:37Z</time>
      </trkpt>
      <trkpt lat="48.0809" lon="-4.58164">
        <ele>26</ele>
        <time>2020-02-17T19:08:10Z</time>
      </trkpt>
      <trkpt lat="48.08039" lon="-4.58148">
        <ele>39</ele>
        <time>2020-02-17T19:09:20Z</time>
      </trkpt>
      <trkpt lat="48.08021" lon="-4.58149">
        <ele>41</ele>
        <time>2020-02-17T19:09:44Z</time>
      </trkpt>
      <trkpt lat="48.08006" lon="-4.58166">
        <ele>41</ele>
        <time>2020-02-17T19:10:09Z</time>
      </trkpt>
      <trkpt lat="48.07998" lon="-4.58192">
        <ele>37</ele>
        <time>2020-02-17T19:10:34Z</time>
      </trkpt>
      <trkpt lat="48.07991" lon="-4.58199">
        <ele>36</ele>
        <time>2020-02-17T19:10:45Z</time>
      </trkpt>
      <trkpt lat="48.07983" lon="-4.58211">
        <ele>35</ele>
        <time>2020-02-17T19:11:01Z</time>
      </trkpt>
      <trkpt lat="48.07963" lon="-4.58227">
        <ele>35</ele>
        <time>2020-02-17T19:11:31Z</time>
      </trkpt>
      <trkpt lat="48.07952" lon="-4.58229">
        <ele>37</ele>
        <time>2020-02-17T19:11:46Z</time>
      </trkpt>
      <trkpt lat="48.07942" lon="-4.58236">
        <ele>38</ele>
        <time>2020-02-17T19:12:00Z</time>
      </trkpt>
      <trkpt lat="48.0794" lon="-4.58248">
        <ele>36</ele>
        <time>2020-02-17T19:12:11Z</time>
      </trkpt>
      <trkpt lat="48.07942" lon="-4.58251">
        <ele>35</ele>
        <time>2020-02-17T19:12:15Z</time>
      </trkpt>
      <trkpt lat="48.07942" lon="-4.58257">
        <ele>35</ele>
        <time>2020-02-17T19:12:20Z</time>
      </trkpt>
      <trkpt lat="48.07939" lon="-4.58263">
        <ele>36</ele>
        <time>2020-02-17T19:12:27Z</time>
      </trkpt>
      <trkpt lat="48.07935" lon="-4.58283">
        <ele>36</ele>
        <time>2020-02-17T19:12:46Z</time>
      </trkpt>
      <trkpt lat="48.07936" lon="-4.5829">
        <ele>35</ele>
        <time>2020-02-17T19:12:52Z</time>
      </trkpt>
      <trkpt lat="48.07964" lon="-4.58304">
        <ele>27</ele>
        <time>2020-02-17T19:13:32Z</time>
      </trkpt>
      <trkpt lat="48.07965" lon="-4.5831">
        <ele>26</ele>
        <time>2020-02-17T19:13:37Z</time>
      </trkpt>
      <trkpt lat="48.07961" lon="-4.58316">
        <ele>27</ele>
        <time>2020-02-17T19:13:45Z</time>
      </trkpt>
      <trkpt lat="48.07952" lon="-4.58318">
        <ele>30</ele>
        <time>2020-02-17T19:13:57Z</time>
      </trkpt>
      <trkpt lat="48.07944" lon="-4.58323">
        <ele>32</ele>
        <time>2020-02-17T19:14:08Z</time>
      </trkpt>
      <trkpt lat="48.07937" lon="-4.58323">
        <ele>34</ele>
        <time>2020-02-17T19:14:18Z</time>
      </trkpt>
      <trkpt lat="48.07937" lon="-4.58333">
        <ele>34</ele>
        <time>2020-02-17T19:14:27Z</time>
      </trkpt>
      <trkpt lat="48.07944" lon="-4.58346">
        <ele>32</ele>
        <time>2020-02-17T19:14:41Z</time>
      </trkpt>
      <trkpt lat="48.07943" lon="-4.58349">
        <ele>33</ele>
        <time>2020-02-17T19:14:44Z</time>
      </trkpt>
      <trkpt lat="48.07935" lon="-4.58351">
        <ele>36</ele>
        <time>2020-02-17T19:14:55Z</time>
      </trkpt>
      <trkpt lat="48.07904" lon="-4.5834">
        <ele>43</ele>
        <time>2020-02-17T19:15:38Z</time>
      </trkpt>
      <trkpt lat="48.0789" lon="-4.58339">
        <ele>45</ele>
        <time>2020-02-17T19:15:56Z</time>
      </trkpt>
      <trkpt lat="48.0786" lon="-4.58379">
        <ele>52</ele>
        <time>2020-02-17T19:16:50Z</time>
      </trkpt>
      <trkpt lat="48.0785" lon="-4.58399">
        <ele>54</ele>
        <time>2020-02-17T19:17:12Z</time>
      </trkpt>
      <trkpt lat="48.07839" lon="-4.5841">
        <ele>56</ele>
        <time>2020-02-17T19:17:30Z</time>
      </trkpt>
      <trkpt lat="48.07805" lon="-4.58437">
        <ele>59</ele>
        <time>2020-02-17T19:18:21Z</time>
      </trkpt>
      <trkpt lat="48.07785" lon="-4.58459">
        <ele>60</ele>
        <time>2020-02-17T19:18:54Z</time>
      </trkpt>
      <trkpt lat="48.0777" lon="-4.58469">
        <ele>61</ele>
        <time>2020-02-17T19:19:16Z</time>
      </trkpt>
      <trkpt lat="48.07764" lon="-4.58475">
        <ele>62</ele>
        <time>2020-02-17T19:19:26Z</time>
      </trkpt>
      <trkpt lat="48.07684" lon="-4.58627">
        <ele>63</ele>
        <time>2020-02-17T19:22:19Z</time>
      </trkpt>
      <trkpt lat="48.07701" lon="-4.58645">
        <ele>62</ele>
        <time>2020-02-17T19:22:46Z</time>
      </trkpt>
      <trkpt lat="48.07694" lon="-4.58661">
        <ele>62</ele>
        <time>2020-02-17T19:23:03Z</time>
      </trkpt>
      <trkpt lat="48.07675" lon="-4.58674">
        <ele>63</ele>
        <time>2020-02-17T19:23:31Z</time>
      </trkpt>
      <trkpt lat="48.07661" lon="-4.58688">
        <ele>64</ele>
        <time>2020-02-17T19:23:54Z</time>
      </trkpt>
      <trkpt lat="48.0764" lon="-4.58721">
        <ele>65</ele>
        <time>2020-02-17T19:24:34Z</time>
      </trkpt>
      <trkpt lat="48.07622" lon="-4.58755">
        <ele>66</ele>
        <time>2020-02-17T19:25:13Z</time>
      </trkpt>
      <trkpt lat="48.07594" lon="-4.58811">
        <ele>67</ele>
        <time>2020-02-17T19:26:15Z</time>
      </trkpt>
      <trkpt lat="48.07583" lon="-4.58837">
        <ele>68</ele>
        <time>2020-02-17T19:26:43Z</time>
      </trkpt>
      <trkpt lat="48.07516" lon="-4.58917">
        <ele>65</ele>
        <time>2020-02-17T19:28:37Z</time>
      </trkpt>
      <trkpt lat="48.07482" lon="-4.58925">
        <ele>63</ele>
        <time>2020-02-17T19:29:23Z</time>
      </trkpt>
      <trkpt lat="48.0747" lon="-4.58932">
        <ele>62</ele>
        <time>2020-02-17T19:29:40Z</time>
      </trkpt>
      <trkpt lat="48.07464" lon="-4.58932">
        <ele>62</ele>
        <time>2020-02-17T19:29:48Z</time>
      </trkpt>
      <trkpt lat="48.0745" lon="-4.58938">
        <ele>61</ele>
        <time>2020-02-17T19:30:08Z</time>
      </trkpt>
      <trkpt lat="48.0744" lon="-4.58935">
        <ele>62</ele>
        <time>2020-02-17T19:30:21Z</time>
      </trkpt>
      <trkpt lat="48.07422" lon="-4.58941">
        <ele>61</ele>
        <time>2020-02-17T19:30:46Z</time>
      </trkpt>
      <trkpt lat="48.07402" lon="-4.58943">
        <ele>62</ele>
        <time>2020-02-17T19:31:13Z</time>
      </trkpt>
      <trkpt lat="48.07387" lon="-4.58948">
        <ele>62</ele>
        <time>2020-02-17T19:31:33Z</time>
      </trkpt>
      <trkpt lat="48.07372" lon="-4.58958">
        <ele>62</ele>
        <time>2020-02-17T19:31:55Z</time>
      </trkpt>
      <trkpt lat="48.07364" lon="-4.58978">
        <ele>61</ele>
        <time>2020-02-17T19:32:16Z</time>
      </trkpt>
      <trkpt lat="48.07356" lon="-4.58988">
        <ele>60</ele>
        <time>2020-02-17T19:32:30Z</time>
      </trkpt>
      <trkpt lat="48.07355" lon="-4.58994">
        <ele>60</ele>
        <time>2020-02-17T19:32:35Z</time>
      </trkpt>
      <trkpt lat="48.07357" lon="-4.59011">
        <ele>57</ele>
        <time>2020-02-17T19:32:51Z</time>
      </trkpt>
      <trkpt lat="48.07357" lon="-4.59023">
        <ele>54</ele>
        <time>2020-02-17T19:33:01Z</time>
      </trkpt>
      <trkpt lat="48.07349" lon="-4.59036">
        <ele>53</ele>
        <time>2020-02-17T19:33:17Z</time>
      </trkpt>
      <trkpt lat="48.07338" lon="-4.5904">
        <ele>54</ele>
        <time>2020-02-17T19:33:32Z</time>
      </trkpt>
      <trkpt lat="48.07318" lon="-4.59042">
        <ele>55</ele>
        <time>2020-02-17T19:33:59Z</time>
      </trkpt>
      <trkpt lat="48.07299" lon="-4.59039">
        <ele>57</ele>
        <time>2020-02-17T19:34:25Z</time>
      </trkpt>
      <trkpt lat="48.07273" lon="-4.59027">
        <ele>59</ele>
        <time>2020-02-17T19:35:01Z</time>
      </trkpt>
      <trkpt lat="48.07269" lon="-4.59017">
        <ele>60</ele>
        <time>2020-02-17T19:35:11Z</time>
      </trkpt>
      <trkpt lat="48.07262" lon="-4.59009">
        <ele>60</ele>
        <time>2020-02-17T19:35:23Z</time>
      </trkpt>
      <trkpt lat="48.07256" lon="-4.59011">
        <ele>60</ele>
        <time>2020-02-17T19:35:31Z</time>
      </trkpt>
      <trkpt lat="48.07255" lon="-4.59015">
        <ele>60</ele>
        <time>2020-02-17T19:35:35Z</time>
      </trkpt>
      <trkpt lat="48.07264" lon="-4.59037">
        <ele>60</ele>
        <time>2020-02-17T19:35:58Z</time>
      </trkpt>
      <trkpt lat="48.07266" lon="-4.59046">
        <ele>60</ele>
        <time>2020-02-17T19:36:07Z</time>
      </trkpt>
      <trkpt lat="48.07274" lon="-4.59061">
        <ele>58</ele>
        <time>2020-02-17T19:36:24Z</time>
      </trkpt>
      <trkpt lat="48.07281" lon="-4.59089">
        <ele>57</ele>
        <time>2020-02-17T19:36:50Z</time>
      </trkpt>
      <trkpt lat="48.07289" lon="-4.5911">
        <ele>56</ele>
        <time>2020-02-17T19:37:12Z</time>
      </trkpt>
      <trkpt lat="48.07298" lon="-4.59143">
        <ele>54</ele>
        <time>2020-02-17T19:37:44Z</time>
      </trkpt>
      <trkpt lat="48.07308" lon="-4.59162">
        <ele>52</ele>
        <time>2020-02-17T19:38:05Z</time>
      </trkpt>
      <trkpt lat="48.07315" lon="-4.59171">
        <ele>51</ele>
        <time>2020-02-17T19:38:18Z</time>
      </trkpt>
      <trkpt lat="48.07317" lon="-4.59178">
        <ele>51</ele>
        <time>2020-02-17T19:38:24Z</time>
      </trkpt>
      <trkpt lat="48.07316" lon="-4.59192">
        <ele>52</ele>
        <time>2020-02-17T19:38:37Z</time>
      </trkpt>
      <trkpt lat="48.07319" lon="-4.59199">
        <ele>52</ele>
        <time>2020-02-17T19:38:44Z</time>
      </trkpt>
      <trkpt lat="48.07316" lon="-4.59218">
        <ele>54</ele>
        <time>2020-02-17T19:39:02Z</time>
      </trkpt>
      <trkpt lat="48.07329" lon="-4.59212">
        <ele>51</ele>
        <time>2020-02-17T19:39:20Z</time>
      </trkpt>
      <trkpt lat="48.07333" lon="-4.59214">
        <ele>51</ele>
        <time>2020-02-17T19:39:25Z</time>
      </trkpt>
      <trkpt lat="48.07338" lon="-4.59224">
        <ele>49</ele>
        <time>2020-02-17T19:39:37Z</time>
      </trkpt>
      <trkpt lat="48.07351" lon="-4.59224">
        <ele>43</ele>
        <time>2020-02-17T19:39:54Z</time>
      </trkpt>
      <trkpt lat="48.07345" lon="-4.59237">
        <ele>47</ele>
        <time>2020-02-17T19:40:08Z</time>
      </trkpt>
      <trkpt lat="48.07343" lon="-4.59244">
        <ele>49</ele>
        <time>2020-02-17T19:40:15Z</time>
      </trkpt>
      <trkpt lat="48.07343" lon="-4.59265">
        <ele>50</ele>
        <time>2020-02-17T19:40:34Z</time>
      </trkpt>
      <trkpt lat="48.07341" lon="-4.59277">
        <ele>52</ele>
        <time>2020-02-17T19:40:45Z</time>
      </trkpt>
      <trkpt lat="48.07335" lon="-4.59334">
        <ele>59</ele>
        <time>2020-02-17T19:41:36Z</time>
      </trkpt>
      <trkpt lat="48.07343" lon="-4.59434">
        <ele>65</ele>
        <time>2020-02-17T19:43:06Z</time>
      </trkpt>
      <trkpt lat="48.07343" lon="-4.59464">
        <ele>67</ele>
        <time>2020-02-17T19:43:33Z</time>
      </trkpt>
      <trkpt lat="48.07341" lon="-4.59493">
        <ele>69</ele>
        <time>2020-02-17T19:43:59Z</time>
      </trkpt>
      <trkpt lat="48.07345" lon="-4.59505">
        <ele>69</ele>
        <time>2020-02-17T19:44:11Z</time>
      </trkpt>
      <trkpt lat="48.07352" lon="-4.59512">
        <ele>68</ele>
        <time>2020-02-17T19:44:22Z</time>
      </trkpt>
      <trkpt lat="48.07373" lon="-4.59518">
        <ele>67</ele>
        <time>2020-02-17T19:44:50Z</time>
      </trkpt>
      <trkpt lat="48.07379" lon="-4.59524">
        <ele>67</ele>
        <time>2020-02-17T19:45:00Z</time>
      </trkpt>
      <trkpt lat="48.07381" lon="-4.59537">
        <ele>67</ele>
        <time>2020-02-17T19:45:12Z</time>
      </trkpt>
      <trkpt lat="48.07378" lon="-4.59555">
        <ele>69</ele>
        <time>2020-02-17T19:45:28Z</time>
      </trkpt>
      <trkpt lat="48.07374" lon="-4.59567">
        <ele>70</ele>
        <time>2020-02-17T19:45:40Z</time>
      </trkpt>
      <trkpt lat="48.07373" lon="-4.59577">
        <ele>70</ele>
        <time>2020-02-17T19:45:49Z</time>
      </trkpt>
      <trkpt lat="48.07369" lon="-4.59591">
        <ele>71</ele>
        <time>2020-02-17T19:46:03Z</time>
      </trkpt>
      <trkpt lat="48.07362" lon="-4.59633">
        <ele>71</ele>
        <time>2020-02-17T19:46:41Z</time>
      </trkpt>
      <trkpt lat="48.07365" lon="-4.5965">
        <ele>71</ele>
        <time>2020-02-17T19:46:57Z</time>
      </trkpt>
      <trkpt lat="48.07366" lon="-4.59652">
        <ele>71</ele>
        <time>2020-02-17T19:46:59Z</time>
      </trkpt>
      <trkpt lat="48.07362" lon="-4.59674">
        <ele>70</ele>
        <time>2020-02-17T19:47:20Z</time>
      </trkpt>
      <trkpt lat="48.07368" lon="-4.59676">
        <ele>70</ele>
        <time>2020-02-17T19:47:28Z</time>
      </trkpt>
      <trkpt lat="48.07396" lon="-4.59697">
        <ele>70</ele>
        <time>2020-02-17T19:48:10Z</time>
      </trkpt>
      <trkpt lat="48.07411" lon="-4.59716">
        <ele>69</ele>
        <time>2020-02-17T19:48:36Z</time>
      </trkpt>
      <trkpt lat="48.07434" lon="-4.5973">
        <ele>67</ele>
        <time>2020-02-17T19:49:09Z</time>
      </trkpt>
      <trkpt lat="48.07452" lon="-4.59749">
        <ele>66</ele>
        <time>2020-02-17T19:49:38Z</time>
      </trkpt>
      <trkpt lat="48.0748" lon="-4.59768">
        <ele>63</ele>
        <time>2020-02-17T19:50:20Z</time>
      </trkpt>
      <trkpt lat="48.07482" lon="-4.59783">
        <ele>62</ele>
        <time>2020-02-17T19:50:33Z</time>
      </trkpt>
      <trkpt lat="48.07481" lon="-4.59798">
        <ele>62</ele>
        <time>2020-02-17T19:50:47Z</time>
      </trkpt>
      <trkpt lat="48.07482" lon="-4.59814">
        <ele>61</ele>
        <time>2020-02-17T19:51:01Z</time>
      </trkpt>
      <trkpt lat="48.07479" lon="-4.59828">
        <ele>60</ele>
        <time>2020-02-17T19:51:14Z</time>
      </trkpt>
      <trkpt lat="48.07479" lon="-4.59839">
        <ele>59</ele>
        <time>2020-02-17T19:51:24Z</time>
      </trkpt>
      <trkpt lat="48.07486" lon="-4.59854">
        <ele>56</ele>
        <time>2020-02-17T19:51:40Z</time>
      </trkpt>
      <trkpt lat="48.07487" lon="-4.59867">
        <ele>54</ele>
        <time>2020-02-17T19:51:52Z</time>
      </trkpt>
      <trkpt lat="48.07494" lon="-4.59901">
        <ele>48</ele>
        <time>2020-02-17T19:52:24Z</time>
      </trkpt>
      <trkpt lat="48.075" lon="-4.59911">
        <ele>45</ele>
        <time>2020-02-17T19:52:36Z</time>
      </trkpt>
      <trkpt lat="48.075" lon="-4.59917">
        <ele>44</ele>
        <time>2020-02-17T19:52:41Z</time>
      </trkpt>
      <trkpt lat="48.07496" lon="-4.59931">
        <ele>44</ele>
        <time>2020-02-17T19:52:54Z</time>
      </trkpt>
      <trkpt lat="48.07483" lon="-4.59961">
        <ele>45</ele>
        <time>2020-02-17T19:53:26Z</time>
      </trkpt>
      <trkpt lat="48.0748" lon="-4.59981">
        <ele>45</ele>
        <time>2020-02-17T19:53:45Z</time>
      </trkpt>
      <trkpt lat="48.07473" lon="-4.59996">
        <ele>47</ele>
        <time>2020-02-17T19:54:01Z</time>
      </trkpt>
      <trkpt lat="48.07474" lon="-4.60009">
        <ele>47</ele>
        <time>2020-02-17T19:54:13Z</time>
      </trkpt>
      <trkpt lat="48.07471" lon="-4.60027">
        <ele>49</ele>
        <time>2020-02-17T19:54:29Z</time>
      </trkpt>
      <trkpt lat="48.07469" lon="-4.60034">
        <ele>50</ele>
        <time>2020-02-17T19:54:36Z</time>
      </trkpt>
      <trkpt lat="48.07461" lon="-4.60046">
        <ele>53</ele>
        <time>2020-02-17T19:54:51Z</time>
      </trkpt>
      <trkpt lat="48.07455" lon="-4.60059">
        <ele>56</ele>
        <time>2020-02-17T19:55:05Z</time>
      </trkpt>
      <trkpt lat="48.07447" lon="-4.60088">
        <ele>61</ele>
        <time>2020-02-17T19:55:33Z</time>
      </trkpt>
      <trkpt lat="48.07449" lon="-4.60104">
        <ele>60</ele>
        <time>2020-02-17T19:55:48Z</time>
      </trkpt>
      <trkpt lat="48.07442" lon="-4.60118">
        <ele>63</ele>
        <time>2020-02-17T19:56:03Z</time>
      </trkpt>
      <trkpt lat="48.07427" lon="-4.60171">
        <ele>71</ele>
        <time>2020-02-17T19:56:55Z</time>
      </trkpt>
      <trkpt lat="48.07434" lon="-4.60253">
        <ele>67</ele>
        <time>2020-02-17T19:58:08Z</time>
      </trkpt>
      <trkpt lat="48.07444" lon="-4.60319">
        <ele>64</ele>
        <time>2020-02-17T19:59:09Z</time>
      </trkpt>
      <trkpt lat="48.07445" lon="-4.6033">
        <ele>63</ele>
        <time>2020-02-17T19:59:18Z</time>
      </trkpt>
      <trkpt lat="48.07445" lon="-4.60345">
        <ele>62</ele>
        <time>2020-02-17T19:59:32Z</time>
      </trkpt>
      <trkpt lat="48.0745" lon="-4.6035">
        <ele>59</ele>
        <time>2020-02-17T19:59:40Z</time>
      </trkpt>
      <trkpt lat="48.07447" lon="-4.60355">
        <ele>60</ele>
        <time>2020-02-17T19:59:46Z</time>
      </trkpt>
      <trkpt lat="48.07439" lon="-4.6036">
        <ele>61</ele>
        <time>2020-02-17T19:59:57Z</time>
      </trkpt>
      <trkpt lat="48.0743" lon="-4.60373">
        <ele>62</ele>
        <time>2020-02-17T20:00:14Z</time>
      </trkpt>
      <trkpt lat="48.07411" lon="-4.60384">
        <ele>64</ele>
        <time>2020-02-17T20:00:41Z</time>
      </trkpt>
      <trkpt lat="48.07403" lon="-4.60393">
        <ele>63</ele>
        <time>2020-02-17T20:00:55Z</time>
      </trkpt>
      <trkpt lat="48.07387" lon="-4.60401">
        <ele>64</ele>
        <time>2020-02-17T20:01:17Z</time>
      </trkpt>
      <trkpt lat="48.07376" lon="-4.6042">
        <ele>63</ele>
        <time>2020-02-17T20:01:40Z</time>
      </trkpt>
      <trkpt lat="48.07361" lon="-4.60467">
        <ele>61</ele>
        <time>2020-02-17T20:02:26Z</time>
      </trkpt>
      <trkpt lat="48.07362" lon="-4.60486">
        <ele>60</ele>
        <time>2020-02-17T20:02:43Z</time>
      </trkpt>
      <trkpt lat="48.07385" lon="-4.60574">
        <ele>41</ele>
        <time>2020-02-17T20:04:07Z</time>
      </trkpt>
      <trkpt lat="48.07384" lon="-4.60586">
        <ele>39</ele>
        <time>2020-02-17T20:04:18Z</time>
      </trkpt>
      <trkpt lat="48.0738" lon="-4.60595">
        <ele>39</ele>
        <time>2020-02-17T20:04:28Z</time>
      </trkpt>
      <trkpt lat="48.07376" lon="-4.606">
        <ele>39</ele>
        <time>2020-02-17T20:04:35Z</time>
      </trkpt>
      <trkpt lat="48.07363" lon="-4.6061">
        <ele>42</ele>
        <time>2020-02-17T20:04:54Z</time>
      </trkpt>
      <trkpt lat="48.07353" lon="-4.60622">
        <ele>43</ele>
        <time>2020-02-17T20:05:11Z</time>
      </trkpt>
      <trkpt lat="48.0735" lon="-4.60632">
        <ele>43</ele>
        <time>2020-02-17T20:05:21Z</time>
      </trkpt>
      <trkpt lat="48.0735" lon="-4.60651">
        <ele>40</ele>
        <time>2020-02-17T20:05:38Z</time>
      </trkpt>
      <trkpt lat="48.07347" lon="-4.60669">
        <ele>37</ele>
        <time>2020-02-17T20:05:55Z</time>
      </trkpt>
      <trkpt lat="48.07323" lon="-4.60697">
        <ele>36</ele>
        <time>2020-02-17T20:06:35Z</time>
      </trkpt>
      <trkpt lat="48.07318" lon="-4.60702">
        <ele>36</ele>
        <time>2020-02-17T20:06:43Z</time>
      </trkpt>
      <trkpt lat="48.07307" lon="-4.60703">
        <ele>37</ele>
        <time>2020-02-17T20:06:58Z</time>
      </trkpt>
      <trkpt lat="48.07302" lon="-4.60706">
        <ele>37</ele>
        <time>2020-02-17T20:07:05Z</time>
      </trkpt>
      <trkpt lat="48.07287" lon="-4.60728">
        <ele>35</ele>
        <time>2020-02-17T20:07:33Z</time>
      </trkpt>
      <trkpt lat="48.07278" lon="-4.60731">
        <ele>36</ele>
        <time>2020-02-17T20:07:45Z</time>
      </trkpt>
      <trkpt lat="48.07268" lon="-4.60748">
        <ele>35</ele>
        <time>2020-02-17T20:08:06Z</time>
      </trkpt>
      <trkpt lat="48.0724" lon="-4.60759">
        <ele>36</ele>
        <time>2020-02-17T20:08:44Z</time>
      </trkpt>
      <trkpt lat="48.07226" lon="-4.60775">
        <ele>34</ele>
        <time>2020-02-17T20:09:08Z</time>
      </trkpt>
      <trkpt lat="48.07202" lon="-4.60782">
        <ele>36</ele>
        <time>2020-02-17T20:09:40Z</time>
      </trkpt>
      <trkpt lat="48.07216" lon="-4.60803">
        <ele>31</ele>
        <time>2020-02-17T20:10:07Z</time>
      </trkpt>
      <trkpt lat="48.07214" lon="-4.60817">
        <ele>30</ele>
        <time>2020-02-17T20:10:20Z</time>
      </trkpt>
      <trkpt lat="48.07211" lon="-4.60819">
        <ele>30</ele>
        <time>2020-02-17T20:10:24Z</time>
      </trkpt>
      <trkpt lat="48.07209" lon="-4.60823">
        <ele>30</ele>
        <time>2020-02-17T20:10:28Z</time>
      </trkpt>
      <trkpt lat="48.07198" lon="-4.6082">
        <ele>32</ele>
        <time>2020-02-17T20:10:43Z</time>
      </trkpt>
      <trkpt lat="48.07178" lon="-4.60819">
        <ele>36</ele>
        <time>2020-02-17T20:11:10Z</time>
      </trkpt>
      <trkpt lat="48.07175" lon="-4.60834">
        <ele>35</ele>
        <time>2020-02-17T20:11:24Z</time>
      </trkpt>
      <trkpt lat="48.07159" lon="-4.60844">
        <ele>39</ele>
        <time>2020-02-17T20:11:47Z</time>
      </trkpt>
      <trkpt lat="48.07158" lon="-4.60847">
        <ele>40</ele>
        <time>2020-02-17T20:11:50Z</time>
      </trkpt>
      <trkpt lat="48.07172" lon="-4.60873">
        <ele>39</ele>
        <time>2020-02-17T20:12:20Z</time>
      </trkpt>
      <trkpt lat="48.07173" lon="-4.6088">
        <ele>40</ele>
        <time>2020-02-17T20:12:26Z</time>
      </trkpt>
      <trkpt lat="48.07169" lon="-4.60882">
        <ele>41</ele>
        <time>2020-02-17T20:12:32Z</time>
      </trkpt>
      <trkpt lat="48.07145" lon="-4.60879">
        <ele>44</ele>
        <time>2020-02-17T20:13:04Z</time>
      </trkpt>
      <trkpt lat="48.07133" lon="-4.60872">
        <ele>46</ele>
        <time>2020-02-17T20:13:21Z</time>
      </trkpt>
      <trkpt lat="48.07126" lon="-4.60865">
        <ele>46</ele>
        <time>2020-02-17T20:13:32Z</time>
      </trkpt>
      <trkpt lat="48.07121" lon="-4.60865">
        <ele>47</ele>
        <time>2020-02-17T20:13:39Z</time>
      </trkpt>
      <trkpt lat="48.07115" lon="-4.60883">
        <ele>50</ele>
        <time>2020-02-17T20:13:57Z</time>
      </trkpt>
      <trkpt lat="48.07105" lon="-4.60896">
        <ele>52</ele>
        <time>2020-02-17T20:14:15Z</time>
      </trkpt>
      <trkpt lat="48.07048" lon="-4.60999">
        <ele>65</ele>
        <time>2020-02-17T20:16:14Z</time>
      </trkpt>
      <trkpt lat="48.06991" lon="-4.61136">
        <ele>70</ele>
        <time>2020-02-17T20:18:38Z</time>
      </trkpt>
      <trkpt lat="48.06983" lon="-4.6115">
        <ele>70</ele>
        <time>2020-02-17T20:18:54Z</time>
      </trkpt>
      <trkpt lat="48.06987" lon="-4.61154">
        <ele>69</ele>
        <time>2020-02-17T20:19:01Z</time>
      </trkpt>
      <trkpt lat="48.06989" lon="-4.61163">
        <ele>69</ele>
        <time>2020-02-17T20:19:09Z</time>
      </trkpt>
      <trkpt lat="48.06987" lon="-4.61174">
        <ele>69</ele>
        <time>2020-02-17T20:19:19Z</time>
      </trkpt>
      <trkpt lat="48.0698" lon="-4.61191">
        <ele>69</ele>
        <time>2020-02-17T20:19:37Z</time>
      </trkpt>
      <trkpt lat="48.06965" lon="-4.61222">
        <ele>69</ele>
        <time>2020-02-17T20:20:11Z</time>
      </trkpt>
      <trkpt lat="48.06946" lon="-4.61283">
        <ele>67</ele>
        <time>2020-02-17T20:21:11Z</time>
      </trkpt>
      <trkpt lat="48.06928" lon="-4.61353">
        <ele>67</ele>
        <time>2020-02-17T20:22:18Z</time>
      </trkpt>
      <trkpt lat="48.06896" lon="-4.61462">
        <ele>67</ele>
        <time>2020-02-17T20:24:04Z</time>
      </trkpt>
      <trkpt lat="48.06884" lon="-4.61494">
        <ele>66</ele>
        <time>2020-02-17T20:24:37Z</time>
      </trkpt>
      <trkpt lat="48.06869" lon="-4.61549">
        <ele>65</ele>
        <time>2020-02-17T20:25:30Z</time>
      </trkpt>
      <trkpt lat="48.06871" lon="-4.61555">
        <ele>65</ele>
        <time>2020-02-17T20:25:36Z</time>
      </trkpt>
      <trkpt lat="48.06901" lon="-4.61569">
        <ele>65</ele>
        <time>2020-02-17T20:26:18Z</time>
      </trkpt>
      <trkpt lat="48.06942" lon="-4.61583">
        <ele>57</ele>
        <time>2020-02-17T20:27:14Z</time>
      </trkpt>
      <trkpt lat="48.06953" lon="-4.61592">
        <ele>53</ele>
        <time>2020-02-17T20:27:31Z</time>
      </trkpt>
      <trkpt lat="48.06957" lon="-4.61605">
        <ele>52</ele>
        <time>2020-02-17T20:27:44Z</time>
      </trkpt>
      <trkpt lat="48.06957" lon="-4.61612">
        <ele>51</ele>
        <time>2020-02-17T20:27:50Z</time>
      </trkpt>
      <trkpt lat="48.06946" lon="-4.61631">
        <ele>54</ele>
        <time>2020-02-17T20:28:12Z</time>
      </trkpt>
      <trkpt lat="48.06943" lon="-4.61648">
        <ele>55</ele>
        <time>2020-02-17T20:28:28Z</time>
      </trkpt>
      <trkpt lat="48.06938" lon="-4.61652">
        <ele>56</ele>
        <time>2020-02-17T20:28:36Z</time>
      </trkpt>
      <trkpt lat="48.06943" lon="-4.61662">
        <ele>54</ele>
        <time>2020-02-17T20:28:47Z</time>
      </trkpt>
      <trkpt lat="48.06944" lon="-4.61677">
        <ele>54</ele>
        <time>2020-02-17T20:29:00Z</time>
      </trkpt>
      <trkpt lat="48.0694" lon="-4.61689">
        <ele>55</ele>
        <time>2020-02-17T20:29:12Z</time>
      </trkpt>
      <trkpt lat="48.06933" lon="-4.61702">
        <ele>57</ele>
        <time>2020-02-17T20:29:27Z</time>
      </trkpt>
      <trkpt lat="48.06947" lon="-4.61745">
        <ele>50</ele>
        <time>2020-02-17T20:30:10Z</time>
      </trkpt>
      <trkpt lat="48.06949" lon="-4.61777">
        <ele>46</ele>
        <time>2020-02-17T20:30:38Z</time>
      </trkpt>
      <trkpt lat="48.06948" lon="-4.61786">
        <ele>46</ele>
        <time>2020-02-17T20:30:46Z</time>
      </trkpt>
      <trkpt lat="48.06943" lon="-4.61796">
        <ele>47</ele>
        <time>2020-02-17T20:30:58Z</time>
      </trkpt>
      <trkpt lat="48.0694" lon="-4.618">
        <ele>48</ele>
        <time>2020-02-17T20:31:03Z</time>
      </trkpt>
      <trkpt lat="48.06931" lon="-4.61803">
        <ele>52</ele>
        <time>2020-02-17T20:31:15Z</time>
      </trkpt>
      <trkpt lat="48.06925" lon="-4.61813">
        <ele>54</ele>
        <time>2020-02-17T20:31:27Z</time>
      </trkpt>
      <trkpt lat="48.0689" lon="-4.61856">
        <ele>55</ele>
        <time>2020-02-17T20:32:28Z</time>
      </trkpt>
      <trkpt lat="48.06875" lon="-4.6188">
        <ele>54</ele>
        <time>2020-02-17T20:32:57Z</time>
      </trkpt>
      <trkpt lat="48.06869" lon="-4.61898">
        <ele>54</ele>
        <time>2020-02-17T20:33:15Z</time>
      </trkpt>
      <trkpt lat="48.0685" lon="-4.61939">
        <ele>52</ele>
        <time>2020-02-17T20:33:59Z</time>
      </trkpt>
      <trkpt lat="48.06852" lon="-4.61972">
        <ele>45</ele>
        <time>2020-02-17T20:34:29Z</time>
      </trkpt>
      <trkpt lat="48.06849" lon="-4.61984">
        <ele>44</ele>
        <time>2020-02-17T20:34:40Z</time>
      </trkpt>
      <trkpt lat="48.06839" lon="-4.62003">
        <ele>43</ele>
        <time>2020-02-17T20:35:02Z</time>
      </trkpt>
      <trkpt lat="48.06827" lon="-4.62017">
        <ele>42</ele>
        <time>2020-02-17T20:35:22Z</time>
      </trkpt>
      <trkpt lat="48.06817" lon="-4.62017">
        <ele>43</ele>
        <time>2020-02-17T20:35:36Z</time>
      </trkpt>
      <trkpt lat="48.06782" lon="-4.61997">
        <ele>48</ele>
        <time>2020-02-17T20:36:26Z</time>
      </trkpt>
      <trkpt lat="48.06767" lon="-4.61977">
        <ele>50</ele>
        <time>2020-02-17T20:36:52Z</time>
      </trkpt>
      <trkpt lat="48.06752" lon="-4.61961">
        <ele>52</ele>
        <time>2020-02-17T20:37:17Z</time>
      </trkpt>
      <trkpt lat="48.0674" lon="-4.61955">
        <ele>53</ele>
        <time>2020-02-17T20:37:34Z</time>
      </trkpt>
      <trkpt lat="48.06722" lon="-4.61933">
        <ele>55</ele>
        <time>2020-02-17T20:38:05Z</time>
      </trkpt>
      <trkpt lat="48.06712" lon="-4.6193">
        <ele>56</ele>
        <time>2020-02-17T20:38:18Z</time>
      </trkpt>
      <trkpt lat="48.06707" lon="-4.61931">
        <ele>56</ele>
        <time>2020-02-17T20:38:25Z</time>
      </trkpt>
      <trkpt lat="48.06712" lon="-4.61943">
        <ele>55</ele>
        <time>2020-02-17T20:38:38Z</time>
      </trkpt>
      <trkpt lat="48.06715" lon="-4.6196">
        <ele>54</ele>
        <time>2020-02-17T20:38:53Z</time>
      </trkpt>
      <trkpt lat="48.06723" lon="-4.61975">
        <ele>53</ele>
        <time>2020-02-17T20:39:11Z</time>
      </trkpt>
      <trkpt lat="48.06722" lon="-4.61977">
        <ele>53</ele>
        <time>2020-02-17T20:39:13Z</time>
      </trkpt>
      <trkpt lat="48.06714" lon="-4.61972">
        <ele>54</ele>
        <time>2020-02-17T20:39:24Z</time>
      </trkpt>
      <trkpt lat="48.06713" lon="-4.61974">
        <ele>54</ele>
        <time>2020-02-17T20:39:27Z</time>
      </trkpt>
      <trkpt lat="48.06711" lon="-4.6205">
        <ele>54</ele>
        <time>2020-02-17T20:40:34Z</time>
      </trkpt>
      <trkpt lat="48.0671" lon="-4.62109">
        <ele>52</ele>
        <time>2020-02-17T20:41:27Z</time>
      </trkpt>
      <trkpt lat="48.06712" lon="-4.6214">
        <ele>50</ele>
        <time>2020-02-17T20:41:55Z</time>
      </trkpt>
      <trkpt lat="48.0672" lon="-4.6215">
        <ele>49</ele>
        <time>2020-02-17T20:42:09Z</time>
      </trkpt>
      <trkpt lat="48.06715" lon="-4.62159">
        <ele>49</ele>
        <time>2020-02-17T20:42:19Z</time>
      </trkpt>
      <trkpt lat="48.06714" lon="-4.62172">
        <ele>49</ele>
        <time>2020-02-17T20:42:31Z</time>
      </trkpt>
      <trkpt lat="48.06693" lon="-4.62189">
        <ele>52</ele>
        <time>2020-02-17T20:43:03Z</time>
      </trkpt>
      <trkpt lat="48.06687" lon="-4.62198">
        <ele>53</ele>
        <time>2020-02-17T20:43:14Z</time>
      </trkpt>
      <trkpt lat="48.06686" lon="-4.62213">
        <ele>53</ele>
        <time>2020-02-17T20:43:27Z</time>
      </trkpt>
      <trkpt lat="48.0674" lon="-4.62223">
        <ele>46</ele>
        <time>2020-02-17T20:44:40Z</time>
      </trkpt>
      <trkpt lat="48.06844" lon="-4.62225">
        <ele>26</ele>
        <time>2020-02-17T20:46:59Z</time>
      </trkpt>
      <trkpt lat="48.06856" lon="-4.6223">
        <ele>25</ele>
        <time>2020-02-17T20:47:15Z</time>
      </trkpt>
      <trkpt lat="48.06865" lon="-4.62237">
        <ele>25</ele>
        <time>2020-02-17T20:47:29Z</time>
      </trkpt>
      <trkpt lat="48.06927" lon="-4.62326">
        <ele>38</ele>
        <time>2020-02-17T20:49:24Z</time>
      </trkpt>
      <trkpt lat="48.06951" lon="-4.62355">
        <ele>36</ele>
        <time>2020-02-17T20:50:05Z</time>
      </trkpt>
      <trkpt lat="48.06966" lon="-4.6237">
        <ele>34</ele>
        <time>2020-02-17T20:50:29Z</time>
      </trkpt>
      <trkpt lat="48.0697" lon="-4.62379">
        <ele>35</ele>
        <time>2020-02-17T20:50:39Z</time>
      </trkpt>
      <trkpt lat="48.0697" lon="-4.62386">
        <ele>36</ele>
        <time>2020-02-17T20:50:45Z</time>
      </trkpt>
      <trkpt lat="48.06979" lon="-4.62399">
        <ele>36</ele>
        <time>2020-02-17T20:51:01Z</time>
      </trkpt>
      <trkpt lat="48.06984" lon="-4.62439">
        <ele>42</ele>
        <time>2020-02-17T20:51:38Z</time>
      </trkpt>
      <trkpt lat="48.06983" lon="-4.62475">
        <ele>47</ele>
        <time>2020-02-17T20:52:10Z</time>
      </trkpt>
      <trkpt lat="48.06986" lon="-4.62509">
        <ele>51</ele>
        <time>2020-02-17T20:52:40Z</time>
      </trkpt>
      <trkpt lat="48.0699" lon="-4.62526">
        <ele>52</ele>
        <time>2020-02-17T20:52:57Z</time>
      </trkpt>
      <trkpt lat="48.0701" lon="-4.62582">
        <ele>51</ele>
        <time>2020-02-17T20:53:53Z</time>
      </trkpt>
      <trkpt lat="48.07013" lon="-4.62604">
        <ele>52</ele>
        <time>2020-02-17T20:54:13Z</time>
      </trkpt>
      <trkpt lat="48.07011" lon="-4.62613">
        <ele>53</ele>
        <time>2020-02-17T20:54:22Z</time>
      </trkpt>
      <trkpt lat="48.07013" lon="-4.62636">
        <ele>55</ele>
        <time>2020-02-17T20:54:42Z</time>
      </trkpt>
      <trkpt lat="48.07022" lon="-4.62683">
        <ele>55</ele>
        <time>2020-02-17T20:55:26Z</time>
      </trkpt>
      <trkpt lat="48.07029" lon="-4.62699">
        <ele>54</ele>
        <time>2020-02-17T20:55:43Z</time>
      </trkpt>
      <trkpt lat="48.07043" lon="-4.62722">
        <ele>52</ele>
        <time>2020-02-17T20:56:11Z</time>
      </trkpt>
      <trkpt lat="48.07047" lon="-4.62737">
        <ele>52</ele>
        <time>2020-02-17T20:56:25Z</time>
      </trkpt>
      <trkpt lat="48.07077" lon="-4.62797">
        <ele>53</ele>
        <time>2020-02-17T20:57:32Z</time>
      </trkpt>
      <trkpt lat="48.07075" lon="-4.62813">
        <ele>55</ele>
        <time>2020-02-17T20:57:46Z</time>
      </trkpt>
      <trkpt lat="48.07028" lon="-4.62786">
        <ele>58</ele>
        <time>2020-02-17T20:58:54Z</time>
      </trkpt>
      <trkpt lat="48.07019" lon="-4.6277">
        <ele>60</ele>
        <time>2020-02-17T20:59:12Z</time>
      </trkpt>
      <trkpt lat="48.07008" lon="-4.62757">
        <ele>64</ele>
        <time>2020-02-17T20:59:31Z</time>
      </trkpt>
      <trkpt lat="48.06988" lon="-4.62753">
        <ele>66</ele>
        <time>2020-02-17T20:59:58Z</time>
      </trkpt>
      <trkpt lat="48.06913" lon="-4.62746">
        <ele>65</ele>
        <time>2020-02-17T21:01:38Z</time>
      </trkpt>
      <trkpt lat="48.06854" lon="-4.62751">
        <ele>64</ele>
        <time>2020-02-17T21:02:57Z</time>
      </trkpt>
      <trkpt lat="48.06841" lon="-4.6275">
        <ele>64</ele>
        <time>2020-02-17T21:03:14Z</time>
      </trkpt>
      <trkpt lat="48.06837" lon="-4.62759">
        <ele>63</ele>
        <time>2020-02-17T21:03:24Z</time>
      </trkpt>
      <trkpt lat="48.06829" lon="-4.62765">
        <ele>63</ele>
        <time>2020-02-17T21:03:36Z</time>
      </trkpt>
      <trkpt lat="48.06822" lon="-4.62765">
        <ele>63</ele>
        <time>2020-02-17T21:03:45Z</time>
      </trkpt>
      <trkpt lat="48.06801" lon="-4.62759">
        <ele>63</ele>
        <time>2020-02-17T21:04:14Z</time>
      </trkpt>
      <trkpt lat="48.06791" lon="-4.62761">
        <ele>63</ele>
        <time>2020-02-17T21:04:27Z</time>
      </trkpt>
      <trkpt lat="48.06724" lon="-4.62846">
        <ele>58</ele>
        <time>2020-02-17T21:06:25Z</time>
      </trkpt>
      <trkpt lat="48.06718" lon="-4.6285">
        <ele>58</ele>
        <time>2020-02-17T21:06:33Z</time>
      </trkpt>
      <trkpt lat="48.06704" lon="-4.6285">
        <ele>59</ele>
        <time>2020-02-17T21:06:52Z</time>
      </trkpt>
      <trkpt lat="48.06697" lon="-4.62847">
        <ele>60</ele>
        <time>2020-02-17T21:07:02Z</time>
      </trkpt>
      <trkpt lat="48.06699" lon="-4.62881">
        <ele>54</ele>
        <time>2020-02-17T21:07:32Z</time>
      </trkpt>
      <trkpt lat="48.06696" lon="-4.62892">
        <ele>52</ele>
        <time>2020-02-17T21:07:43Z</time>
      </trkpt>
      <trkpt lat="48.06697" lon="-4.62902">
        <ele>50</ele>
        <time>2020-02-17T21:07:52Z</time>
      </trkpt>
      <trkpt lat="48.06695" lon="-4.62909">
        <ele>49</ele>
        <time>2020-02-17T21:07:59Z</time>
      </trkpt>
      <trkpt lat="48.06696" lon="-4.62921">
        <ele>47</ele>
        <time>2020-02-17T21:08:09Z</time>
      </trkpt>
      <trkpt lat="48.06698" lon="-4.62922">
        <ele>47</ele>
        <time>2020-02-17T21:08:12Z</time>
      </trkpt>
      <trkpt lat="48.06699" lon="-4.62931">
        <ele>45</ele>
        <time>2020-02-17T21:08:20Z</time>
      </trkpt>
      <trkpt lat="48.06694" lon="-4.62947">
        <ele>42</ele>
        <time>2020-02-17T21:08:36Z</time>
      </trkpt>
      <trkpt lat="48.06694" lon="-4.6298">
        <ele>36</ele>
        <time>2020-02-17T21:09:05Z</time>
      </trkpt>
      <trkpt lat="48.06692" lon="-4.62993">
        <ele>34</ele>
        <time>2020-02-17T21:09:17Z</time>
      </trkpt>
      <trkpt lat="48.06685" lon="-4.63009">
        <ele>34</ele>
        <time>2020-02-17T21:09:34Z</time>
      </trkpt>
      <trkpt lat="48.06681" lon="-4.63022">
        <ele>35</ele>
        <time>2020-02-17T21:09:47Z</time>
      </trkpt>
      <trkpt lat="48.0668" lon="-4.63039">
        <ele>36</ele>
        <time>2020-02-17T21:10:02Z</time>
      </trkpt>
      <trkpt lat="48.06676" lon="-4.63047">
        <ele>37</ele>
        <time>2020-02-17T21:10:11Z</time>
      </trkpt>
      <trkpt lat="48.06679" lon="-4.63064">
        <ele>37</ele>
        <time>2020-02-17T21:10:27Z</time>
      </trkpt>
      <trkpt lat="48.06678" lon="-4.63074">
        <ele>37</ele>
        <time>2020-02-17T21:10:36Z</time>
      </trkpt>
      <trkpt lat="48.06671" lon="-4.63099">
        <ele>41</ele>
        <time>2020-02-17T21:11:00Z</time>
      </trkpt>
      <trkpt lat="48.0667" lon="-4.63109">
        <ele>42</ele>
        <time>2020-02-17T21:11:09Z</time>
      </trkpt>
      <trkpt lat="48.06672" lon="-4.63121">
        <ele>42</ele>
        <time>2020-02-17T21:11:20Z</time>
      </trkpt>
      <trkpt lat="48.0667" lon="-4.63148">
        <ele>45</ele>
        <time>2020-02-17T21:11:44Z</time>
      </trkpt>
      <trkpt lat="48.06655" lon="-4.63179">
        <ele>52</ele>
        <time>2020-02-17T21:12:19Z</time>
      </trkpt>
      <trkpt lat="48.06652" lon="-4.63181">
        <ele>53</ele>
        <time>2020-02-17T21:12:23Z</time>
      </trkpt>
      <trkpt lat="48.06646" lon="-4.63192">
        <ele>55</ele>
        <time>2020-02-17T21:12:36Z</time>
      </trkpt>
      <trkpt lat="48.06639" lon="-4.63195">
        <ele>57</ele>
        <time>2020-02-17T21:12:45Z</time>
      </trkpt>
      <trkpt lat="48.06635" lon="-4.63193">
        <ele>58</ele>
        <time>2020-02-17T21:12:51Z</time>
      </trkpt>
      <trkpt lat="48.06634" lon="-4.63197">
        <ele>58</ele>
        <time>2020-02-17T21:12:55Z</time>
      </trkpt>
      <trkpt lat="48.06637" lon="-4.63224">
        <ele>59</ele>
        <time>2020-02-17T21:13:19Z</time>
      </trkpt>
      <trkpt lat="48.06635" lon="-4.63233">
        <ele>60</ele>
        <time>2020-02-17T21:13:28Z</time>
      </trkpt>
      <trkpt lat="48.06627" lon="-4.63247">
        <ele>63</ele>
        <time>2020-02-17T21:13:44Z</time>
      </trkpt>
      <trkpt lat="48.06626" lon="-4.63255">
        <ele>64</ele>
        <time>2020-02-17T21:13:51Z</time>
      </trkpt>
      <trkpt lat="48.06638" lon="-4.63279">
        <ele>62</ele>
        <time>2020-02-17T21:14:18Z</time>
      </trkpt>
      <trkpt lat="48.06648" lon="-4.63304">
        <ele>62</ele>
        <time>2020-02-17T21:14:44Z</time>
      </trkpt>
      <trkpt lat="48.06652" lon="-4.63328">
        <ele>64</ele>
        <time>2020-02-17T21:15:06Z</time>
      </trkpt>
      <trkpt lat="48.06651" lon="-4.63344">
        <ele>66</ele>
        <time>2020-02-17T21:15:20Z</time>
      </trkpt>
      <trkpt lat="48.06658" lon="-4.63355">
        <ele>66</ele>
        <time>2020-02-17T21:15:34Z</time>
      </trkpt>
      <trkpt lat="48.06674" lon="-4.63395">
        <ele>66</ele>
        <time>2020-02-17T21:16:16Z</time>
      </trkpt>
      <trkpt lat="48.06683" lon="-4.63407">
        <ele>63</ele>
        <time>2020-02-17T21:16:32Z</time>
      </trkpt>
      <trkpt lat="48.06693" lon="-4.63414">
        <ele>60</ele>
        <time>2020-02-17T21:16:46Z</time>
      </trkpt>
      <trkpt lat="48.06704" lon="-4.63429">
        <ele>57</ele>
        <time>2020-02-17T21:17:06Z</time>
      </trkpt>
      <trkpt lat="48.06706" lon="-4.63436">
        <ele>57</ele>
        <time>2020-02-17T21:17:13Z</time>
      </trkpt>
      <trkpt lat="48.06705" lon="-4.63451">
        <ele>59</ele>
        <time>2020-02-17T21:17:26Z</time>
      </trkpt>
      <trkpt lat="48.06713" lon="-4.6347">
        <ele>58</ele>
        <time>2020-02-17T21:17:47Z</time>
      </trkpt>
      <trkpt lat="48.06719" lon="-4.63487">
        <ele>58</ele>
        <time>2020-02-17T21:18:04Z</time>
      </trkpt>
      <trkpt lat="48.06724" lon="-4.63512">
        <ele>59</ele>
        <time>2020-02-17T21:18:27Z</time>
      </trkpt>
      <trkpt lat="48.06725" lon="-4.63522">
        <ele>59</ele>
        <time>2020-02-17T21:18:36Z</time>
      </trkpt>
      <trkpt lat="48.06723" lon="-4.63528">
        <ele>60</ele>
        <time>2020-02-17T21:18:42Z</time>
      </trkpt>
      <trkpt lat="48.06726" lon="-4.63544">
        <ele>61</ele>
        <time>2020-02-17T21:18:57Z</time>
      </trkpt>
      <trkpt lat="48.06724" lon="-4.63567">
        <ele>63</ele>
        <time>2020-02-17T21:19:17Z</time>
      </trkpt>
      <trkpt lat="48.06728" lon="-4.63605">
        <ele>65</ele>
        <time>2020-02-17T21:19:52Z</time>
      </trkpt>
      <trkpt lat="48.06731" lon="-4.63619">
        <ele>66</ele>
        <time>2020-02-17T21:20:05Z</time>
      </trkpt>
      <trkpt lat="48.06728" lon="-4.6363">
        <ele>67</ele>
        <time>2020-02-17T21:20:15Z</time>
      </trkpt>
      <trkpt lat="48.06729" lon="-4.63635">
        <ele>68</ele>
        <time>2020-02-17T21:20:20Z</time>
      </trkpt>
      <trkpt lat="48.06733" lon="-4.63645">
        <ele>68</ele>
        <time>2020-02-17T21:20:30Z</time>
      </trkpt>
      <trkpt lat="48.0674" lon="-4.63653">
        <ele>68</ele>
        <time>2020-02-17T21:20:42Z</time>
      </trkpt>
      <trkpt lat="48.0675" lon="-4.63671">
        <ele>68</ele>
        <time>2020-02-17T21:21:03Z</time>
      </trkpt>
      <trkpt lat="48.0676" lon="-4.63678">
        <ele>63</ele>
        <time>2020-02-17T21:21:18Z</time>
      </trkpt>
      <trkpt lat="48.06764" lon="-4.63683">
        <ele>60</ele>
        <time>2020-02-17T21:21:25Z</time>
      </trkpt>
      <trkpt lat="48.06766" lon="-4.63698">
        <ele>60</ele>
        <time>2020-02-17T21:21:38Z</time>
      </trkpt>
      <trkpt lat="48.06765" lon="-4.63704">
        <ele>61</ele>
        <time>2020-02-17T21:21:44Z</time>
      </trkpt>
      <trkpt lat="48.06762" lon="-4.6371">
        <ele>62</ele>
        <time>2020-02-17T21:21:51Z</time>
      </trkpt>
      <trkpt lat="48.0676" lon="-4.63736">
        <ele>65</ele>
        <time>2020-02-17T21:22:14Z</time>
      </trkpt>
      <trkpt lat="48.0675" lon="-4.63805">
        <ele>68</ele>
        <time>2020-02-17T21:23:17Z</time>
      </trkpt>
      <trkpt lat="48.06749" lon="-4.63828">
        <ele>66</ele>
        <time>2020-02-17T21:23:38Z</time>
      </trkpt>
      <trkpt lat="48.06753" lon="-4.63835">
        <ele>64</ele>
        <time>2020-02-17T21:23:46Z</time>
      </trkpt>
      <trkpt lat="48.06753" lon="-4.6387">
        <ele>56</ele>
        <time>2020-02-17T21:24:17Z</time>
      </trkpt>
      <trkpt lat="48.06751" lon="-4.63885">
        <ele>54</ele>
        <time>2020-02-17T21:24:31Z</time>
      </trkpt>
      <trkpt lat="48.06747" lon="-4.639">
        <ele>52</ele>
        <time>2020-02-17T21:24:45Z</time>
      </trkpt>
      <trkpt lat="48.06744" lon="-4.6391">
        <ele>51</ele>
        <time>2020-02-17T21:24:55Z</time>
      </trkpt>
      <trkpt lat="48.0673" lon="-4.63925">
        <ele>53</ele>
        <time>2020-02-17T21:25:18Z</time>
      </trkpt>
      <trkpt lat="48.0672" lon="-4.63948">
        <ele>51</ele>
        <time>2020-02-17T21:25:42Z</time>
      </trkpt>
      <trkpt lat="48.06712" lon="-4.63961">
        <ele>51</ele>
        <time>2020-02-17T21:25:58Z</time>
      </trkpt>
      <trkpt lat="48.067" lon="-4.63971">
        <ele>54</ele>
        <time>2020-02-17T21:26:16Z</time>
      </trkpt>
      <trkpt lat="48.06688" lon="-4.63988">
        <ele>57</ele>
        <time>2020-02-17T21:26:38Z</time>
      </trkpt>
      <trkpt lat="48.06672" lon="-4.63999">
        <ele>63</ele>
        <time>2020-02-17T21:27:02Z</time>
      </trkpt>
      <trkpt lat="48.06662" lon="-4.64011">
        <ele>65</ele>
        <time>2020-02-17T21:27:19Z</time>
      </trkpt>
      <trkpt lat="48.06648" lon="-4.64038">
        <ele>64</ele>
        <time>2020-02-17T21:27:49Z</time>
      </trkpt>
      <trkpt lat="48.06645" lon="-4.64051">
        <ele>63</ele>
        <time>2020-02-17T21:28:02Z</time>
      </trkpt>
      <trkpt lat="48.06646" lon="-4.6408">
        <ele>60</ele>
        <time>2020-02-17T21:28:28Z</time>
      </trkpt>
      <trkpt lat="48.06652" lon="-4.64125">
        <ele>56</ele>
        <time>2020-02-17T21:29:08Z</time>
      </trkpt>
      <trkpt lat="48.06649" lon="-4.64139">
        <ele>56</ele>
        <time>2020-02-17T21:29:22Z</time>
      </trkpt>
      <trkpt lat="48.06651" lon="-4.64192">
        <ele>54</ele>
        <time>2020-02-17T21:30:09Z</time>
      </trkpt>
      <trkpt lat="48.06655" lon="-4.64219">
        <ele>52</ele>
        <time>2020-02-17T21:30:34Z</time>
      </trkpt>
      <trkpt lat="48.06653" lon="-4.64235">
        <ele>52</ele>
        <time>2020-02-17T21:30:48Z</time>
      </trkpt>
      <trkpt lat="48.06649" lon="-4.64254">
        <ele>53</ele>
        <time>2020-02-17T21:31:06Z</time>
      </trkpt>
      <trkpt lat="48.06641" lon="-4.64268">
        <ele>55</ele>
        <time>2020-02-17T21:31:22Z</time>
      </trkpt>
      <trkpt lat="48.06635" lon="-4.64304">
        <ele>56</ele>
        <time>2020-02-17T21:31:55Z</time>
      </trkpt>
      <trkpt lat="48.06637" lon="-4.6432">
        <ele>55</ele>
        <time>2020-02-17T21:32:10Z</time>
      </trkpt>
      <trkpt lat="48.06645" lon="-4.64344">
        <ele>53</ele>
        <time>2020-02-17T21:32:34Z</time>
      </trkpt>
      <trkpt lat="48.06646" lon="-4.64357">
        <ele>54</ele>
        <time>2020-02-17T21:32:46Z</time>
      </trkpt>
      <trkpt lat="48.06659" lon="-4.64379">
        <ele>53</ele>
        <time>2020-02-17T21:33:12Z</time>
      </trkpt>
      <trkpt lat="48.06665" lon="-4.64391">
        <ele>53</ele>
        <time>2020-02-17T21:33:25Z</time>
      </trkpt>
      <trkpt lat="48.06667" lon="-4.64402">
        <ele>54</ele>
        <time>2020-02-17T21:33:35Z</time>
      </trkpt>
      <trkpt lat="48.06671" lon="-4.64409">
        <ele>53</ele>
        <time>2020-02-17T21:33:43Z</time>
      </trkpt>
      <trkpt lat="48.06672" lon="-4.64428">
        <ele>54</ele>
        <time>2020-02-17T21:34:00Z</time>
      </trkpt>
      <trkpt lat="48.0668" lon="-4.64451">
        <ele>53</ele>
        <time>2020-02-17T21:34:24Z</time>
      </trkpt>
      <trkpt lat="48.06685" lon="-4.64475">
        <ele>54</ele>
        <time>2020-02-17T21:34:46Z</time>
      </trkpt>
      <trkpt lat="48.06691" lon="-4.64491">
        <ele>53</ele>
        <time>2020-02-17T21:35:02Z</time>
      </trkpt>
      <trkpt lat="48.0669" lon="-4.64498">
        <ele>55</ele>
        <time>2020-02-17T21:35:09Z</time>
      </trkpt>
      <trkpt lat="48.06684" lon="-4.64509">
        <ele>58</ele>
        <time>2020-02-17T21:35:21Z</time>
      </trkpt>
      <trkpt lat="48.06683" lon="-4.64513">
        <ele>59</ele>
        <time>2020-02-17T21:35:25Z</time>
      </trkpt>
      <trkpt lat="48.06684" lon="-4.64515">
        <ele>59</ele>
        <time>2020-02-17T21:35:27Z</time>
      </trkpt>
      <trkpt lat="48.06697" lon="-4.64506">
        <ele>53</ele>
        <time>2020-02-17T21:35:47Z</time>
      </trkpt>
      <trkpt lat="48.06705" lon="-4.64504">
        <ele>50</ele>
        <time>2020-02-17T21:35:57Z</time>
      </trkpt>
      <trkpt lat="48.06709" lon="-4.64518">
        <ele>50</ele>
        <time>2020-02-17T21:36:11Z</time>
      </trkpt>
      <trkpt lat="48.06722" lon="-4.64536">
        <ele>49</ele>
        <time>2020-02-17T21:36:35Z</time>
      </trkpt>
      <trkpt lat="48.06726" lon="-4.64555">
        <ele>51</ele>
        <time>2020-02-17T21:36:52Z</time>
      </trkpt>
      <trkpt lat="48.06732" lon="-4.64577">
        <ele>54</ele>
        <time>2020-02-17T21:37:14Z</time>
      </trkpt>
      <trkpt lat="48.06742" lon="-4.64594">
        <ele>55</ele>
        <time>2020-02-17T21:37:34Z</time>
      </trkpt>
      <trkpt lat="48.06748" lon="-4.646">
        <ele>55</ele>
        <time>2020-02-17T21:37:43Z</time>
      </trkpt>
      <trkpt lat="48.06758" lon="-4.64609">
        <ele>52</ele>
        <time>2020-02-17T21:37:59Z</time>
      </trkpt>
      <trkpt lat="48.0676" lon="-4.64608">
        <ele>51</ele>
        <time>2020-02-17T21:38:02Z</time>
      </trkpt>
      <trkpt lat="48.0677" lon="-4.64613">
        <ele>47</ele>
        <time>2020-02-17T21:38:16Z</time>
      </trkpt>
      <trkpt lat="48.06775" lon="-4.64619">
        <ele>46</ele>
        <time>2020-02-17T21:38:24Z</time>
      </trkpt>
      <trkpt lat="48.06784" lon="-4.64646">
        <ele>47</ele>
        <time>2020-02-17T21:38:51Z</time>
      </trkpt>
      <trkpt lat="48.06794" lon="-4.64686">
        <ele>51</ele>
        <time>2020-02-17T21:39:29Z</time>
      </trkpt>
      <trkpt lat="48.068" lon="-4.64698">
        <ele>50</ele>
        <time>2020-02-17T21:39:43Z</time>
      </trkpt>
      <trkpt lat="48.06812" lon="-4.64711">
        <ele>49</ele>
        <time>2020-02-17T21:40:02Z</time>
      </trkpt>
      <trkpt lat="48.06811" lon="-4.64729">
        <ele>52</ele>
        <time>2020-02-17T21:40:19Z</time>
      </trkpt>
      <trkpt lat="48.06807" lon="-4.6474">
        <ele>55</ele>
        <time>2020-02-17T21:40:30Z</time>
      </trkpt>
      <trkpt lat="48.06807" lon="-4.64752">
        <ele>57</ele>
        <time>2020-02-17T21:40:40Z</time>
      </trkpt>
      <trkpt lat="48.06811" lon="-4.64763">
        <ele>58</ele>
        <time>2020-02-17T21:40:52Z</time>
      </trkpt>
      <trkpt lat="48.06808" lon="-4.64779">
        <ele>60</ele>
        <time>2020-02-17T21:41:06Z</time>
      </trkpt>
      <trkpt lat="48.0681" lon="-4.64791">
        <ele>61</ele>
        <time>2020-02-17T21:41:17Z</time>
      </trkpt>
      <trkpt lat="48.06824" lon="-4.64826">
        <ele>62</ele>
        <time>2020-02-17T21:41:54Z</time>
      </trkpt>
      <trkpt lat="48.0683" lon="-4.64837">
        <ele>63</ele>
        <time>2020-02-17T21:42:07Z</time>
      </trkpt>
      <trkpt lat="48.06843" lon="-4.64849">
        <ele>59</ele>
        <time>2020-02-17T21:42:27Z</time>
      </trkpt>
      <trkpt lat="48.06846" lon="-4.64854">
        <ele>58</ele>
        <time>2020-02-17T21:42:33Z</time>
      </trkpt>
      <trkpt lat="48.06847" lon="-4.64859">
        <ele>58</ele>
        <time>2020-02-17T21:42:38Z</time>
      </trkpt>
      <trkpt lat="48.06842" lon="-4.64881">
        <ele>63</ele>
        <time>2020-02-17T21:42:58Z</time>
      </trkpt>
      <trkpt lat="48.06841" lon="-4.64897">
        <ele>66</ele>
        <time>2020-02-17T21:43:13Z</time>
      </trkpt>
      <trkpt lat="48.06849" lon="-4.6495">
        <ele>66</ele>
        <time>2020-02-17T21:44:01Z</time>
      </trkpt>
      <trkpt lat="48.06857" lon="-4.64978">
        <ele>64</ele>
        <time>2020-02-17T21:44:28Z</time>
      </trkpt>
      <trkpt lat="48.0686" lon="-4.64986">
        <ele>63</ele>
        <time>2020-02-17T21:44:36Z</time>
      </trkpt>
      <trkpt lat="48.06863" lon="-4.65003">
        <ele>63</ele>
        <time>2020-02-17T21:44:52Z</time>
      </trkpt>
      <trkpt lat="48.06867" lon="-4.65006">
        <ele>61</ele>
        <time>2020-02-17T21:44:58Z</time>
      </trkpt>
      <trkpt lat="48.06869" lon="-4.65012">
        <ele>60</ele>
        <time>2020-02-17T21:45:04Z</time>
      </trkpt>
      <trkpt lat="48.06879" lon="-4.65014">
        <ele>56</ele>
        <time>2020-02-17T21:45:17Z</time>
      </trkpt>
      <trkpt lat="48.06885" lon="-4.65022">
        <ele>53</ele>
        <time>2020-02-17T21:45:28Z</time>
      </trkpt>
      <trkpt lat="48.06887" lon="-4.65027">
        <ele>52</ele>
        <time>2020-02-17T21:45:33Z</time>
      </trkpt>
      <trkpt lat="48.06886" lon="-4.6507">
        <ele>48</ele>
        <time>2020-02-17T21:46:12Z</time>
      </trkpt>
      <trkpt lat="48.06874" lon="-4.65063">
        <ele>53</ele>
        <time>2020-02-17T21:46:29Z</time>
      </trkpt>
      <trkpt lat="48.06837" lon="-4.65059">
        <ele>67</ele>
        <time>2020-02-17T21:47:18Z</time>
      </trkpt>
      <trkpt lat="48.06805" lon="-4.65061">
        <ele>70</ele>
        <time>2020-02-17T21:48:01Z</time>
      </trkpt>
      <trkpt lat="48.06796" lon="-4.65064">
        <ele>71</ele>
        <time>2020-02-17T21:48:14Z</time>
      </trkpt>
      <trkpt lat="48.06785" lon="-4.65085">
        <ele>70</ele>
        <time>2020-02-17T21:48:37Z</time>
      </trkpt>
      <trkpt lat="48.06783" lon="-4.65094">
        <ele>70</ele>
        <time>2020-02-17T21:48:46Z</time>
      </trkpt>
      <trkpt lat="48.06783" lon="-4.65106">
        <ele>69</ele>
        <time>2020-02-17T21:48:56Z</time>
      </trkpt>
      <trkpt lat="48.06789" lon="-4.6514">
        <ele>65</ele>
        <time>2020-02-17T21:49:28Z</time>
      </trkpt>
      <trkpt lat="48.06795" lon="-4.65158">
        <ele>62</ele>
        <time>2020-02-17T21:49:46Z</time>
      </trkpt>
      <trkpt lat="48.06806" lon="-4.6522">
        <ele>58</ele>
        <time>2020-02-17T21:50:43Z</time>
      </trkpt>
      <trkpt lat="48.06809" lon="-4.65226">
        <ele>57</ele>
        <time>2020-02-17T21:50:50Z</time>
      </trkpt>
      <trkpt lat="48.0681" lon="-4.65233">
        <ele>57</ele>
        <time>2020-02-17T21:50:56Z</time>
      </trkpt>
      <trkpt lat="48.06822" lon="-4.65254">
        <ele>54</ele>
        <time>2020-02-17T21:51:21Z</time>
      </trkpt>
      <trkpt lat="48.06825" lon="-4.65282">
        <ele>53</ele>
        <time>2020-02-17T21:51:46Z</time>
      </trkpt>
      <trkpt lat="48.06825" lon="-4.65304">
        <ele>53</ele>
        <time>2020-02-17T21:52:06Z</time>
      </trkpt>
      <trkpt lat="48.06828" lon="-4.65318">
        <ele>52</ele>
        <time>2020-02-17T21:52:19Z</time>
      </trkpt>
      <trkpt lat="48.06822" lon="-4.65343">
        <ele>53</ele>
        <time>2020-02-17T21:52:42Z</time>
      </trkpt>
      <trkpt lat="48.06822" lon="-4.65349">
        <ele>52</ele>
        <time>2020-02-17T21:52:48Z</time>
      </trkpt>
      <trkpt lat="48.06835" lon="-4.65413">
        <ele>44</ele>
        <time>2020-02-17T21:53:47Z</time>
      </trkpt>
      <trkpt lat="48.06827" lon="-4.65443">
        <ele>40</ele>
        <time>2020-02-17T21:54:16Z</time>
      </trkpt>
      <trkpt lat="48.06816" lon="-4.65444">
        <ele>44</ele>
        <time>2020-02-17T21:54:31Z</time>
      </trkpt>
      <trkpt lat="48.06789" lon="-4.65459">
        <ele>49</ele>
        <time>2020-02-17T21:55:09Z</time>
      </trkpt>
      <trkpt lat="48.06772" lon="-4.65475">
        <ele>52</ele>
        <time>2020-02-17T21:55:36Z</time>
      </trkpt>
      <trkpt lat="48.0676" lon="-4.65489">
        <ele>53</ele>
        <time>2020-02-17T21:55:56Z</time>
      </trkpt>
      <trkpt lat="48.06754" lon="-4.65499">
        <ele>54</ele>
        <time>2020-02-17T21:56:08Z</time>
      </trkpt>
      <trkpt lat="48.06752" lon="-4.65513">
        <ele>52</ele>
        <time>2020-02-17T21:56:21Z</time>
      </trkpt>
      <trkpt lat="48.06748" lon="-4.6552">
        <ele>52</ele>
        <time>2020-02-17T21:56:29Z</time>
      </trkpt>
      <trkpt lat="48.06751" lon="-4.65525">
        <ele>51</ele>
        <time>2020-02-17T21:56:35Z</time>
      </trkpt>
      <trkpt lat="48.06752" lon="-4.65536">
        <ele>49</ele>
        <time>2020-02-17T21:56:45Z</time>
      </trkpt>
      <trkpt lat="48.06743" lon="-4.65543">
        <ele>49</ele>
        <time>2020-02-17T21:56:59Z</time>
      </trkpt>
      <trkpt lat="48.06746" lon="-4.6555">
        <ele>48</ele>
        <time>2020-02-17T21:57:06Z</time>
      </trkpt>
      <trkpt lat="48.06736" lon="-4.65556">
        <ele>49</ele>
        <time>2020-02-17T21:57:21Z</time>
      </trkpt>
      <trkpt lat="48.06733" lon="-4.65561">
        <ele>49</ele>
        <time>2020-02-17T21:57:27Z</time>
      </trkpt>
      <trkpt lat="48.06719" lon="-4.65558">
        <ele>52</ele>
        <time>2020-02-17T21:57:45Z</time>
      </trkpt>
      <trkpt lat="48.06716" lon="-4.65561">
        <ele>52</ele>
        <time>2020-02-17T21:57:50Z</time>
      </trkpt>
      <trkpt lat="48.06715" lon="-4.65567">
        <ele>52</ele>
        <time>2020-02-17T21:57:56Z</time>
      </trkpt>
      <trkpt lat="48.06715" lon="-4.65574">
        <ele>51</ele>
        <time>2020-02-17T21:58:02Z</time>
      </trkpt>
      <trkpt lat="48.0673" lon="-4.65594">
        <ele>47</ele>
        <time>2020-02-17T21:58:29Z</time>
      </trkpt>
      <trkpt lat="48.0675" lon="-4.65613">
        <ele>45</ele>
        <time>2020-02-17T21:59:00Z</time>
      </trkpt>
      <trkpt lat="48.06753" lon="-4.65623">
        <ele>45</ele>
        <time>2020-02-17T21:59:10Z</time>
      </trkpt>
      <trkpt lat="48.06759" lon="-4.65633">
        <ele>43</ele>
        <time>2020-02-17T21:59:22Z</time>
      </trkpt>
      <trkpt lat="48.06758" lon="-4.65636">
        <ele>44</ele>
        <time>2020-02-17T21:59:25Z</time>
      </trkpt>
      <trkpt lat="48.06747" lon="-4.65646">
        <ele>49</ele>
        <time>2020-02-17T21:59:42Z</time>
      </trkpt>
      <trkpt lat="48.06744" lon="-4.65653">
        <ele>50</ele>
        <time>2020-02-17T21:59:50Z</time>
      </trkpt>
      <trkpt lat="48.06745" lon="-4.65655">
        <ele>50</ele>
        <time>2020-02-17T21:59:52Z</time>
      </trkpt>
      <trkpt lat="48.06756" lon="-4.65658">
        <ele>46</ele>
        <time>2020-02-17T22:00:07Z</time>
      </trkpt>
      <trkpt lat="48.06759" lon="-4.65664">
        <ele>46</ele>
        <time>2020-02-17T22:00:14Z</time>
      </trkpt>
      <trkpt lat="48.0676" lon="-4.65694">
        <ele>48</ele>
        <time>2020-02-17T22:00:40Z</time>
      </trkpt>
      <trkpt lat="48.06781" lon="-4.65779">
        <ele>46</ele>
        <time>2020-02-17T22:02:01Z</time>
      </trkpt>
      <trkpt lat="48.06786" lon="-4.65815">
        <ele>48</ele>
        <time>2020-02-17T22:02:34Z</time>
      </trkpt>
      <trkpt lat="48.06803" lon="-4.65837">
        <ele>46</ele>
        <time>2020-02-17T22:03:04Z</time>
      </trkpt>
      <trkpt lat="48.06816" lon="-4.65848">
        <ele>44</ele>
        <time>2020-02-17T22:03:24Z</time>
      </trkpt>
      <trkpt lat="48.06818" lon="-4.65901">
        <ele>52</ele>
        <time>2020-02-17T22:04:11Z</time>
      </trkpt>
      <trkpt lat="48.06843" lon="-4.65922">
        <ele>47</ele>
        <time>2020-02-17T22:04:50Z</time>
      </trkpt>
      <trkpt lat="48.06849" lon="-4.65925">
        <ele>45</ele>
        <time>2020-02-17T22:04:58Z</time>
      </trkpt>
      <trkpt lat="48.06845" lon="-4.65952">
        <ele>47</ele>
        <time>2020-02-17T22:05:23Z</time>
      </trkpt>
      <trkpt lat="48.06846" lon="-4.65962">
        <ele>47</ele>
        <time>2020-02-17T22:05:32Z</time>
      </trkpt>
      <trkpt lat="48.06854" lon="-4.65989">
        <ele>43</ele>
        <time>2020-02-17T22:05:58Z</time>
      </trkpt>
      <trkpt lat="48.06852" lon="-4.65993">
        <ele>44</ele>
        <time>2020-02-17T22:06:02Z</time>
      </trkpt>
      <trkpt lat="48.06844" lon="-4.65994">
        <ele>48</ele>
        <time>2020-02-17T22:06:13Z</time>
      </trkpt>
      <trkpt lat="48.06811" lon="-4.66039">
        <ele>53</ele>
        <time>2020-02-17T22:07:13Z</time>
      </trkpt>
      <trkpt lat="48.06806" lon="-4.66056">
        <ele>52</ele>
        <time>2020-02-17T22:07:29Z</time>
      </trkpt>
      <trkpt lat="48.06802" lon="-4.66085">
        <ele>51</ele>
        <time>2020-02-17T22:07:56Z</time>
      </trkpt>
      <trkpt lat="48.06803" lon="-4.66095">
        <ele>51</ele>
        <time>2020-02-17T22:08:05Z</time>
      </trkpt>
      <trkpt lat="48.06797" lon="-4.66125">
        <ele>51</ele>
        <time>2020-02-17T22:08:33Z</time>
      </trkpt>
      <trkpt lat="48.06791" lon="-4.66176">
        <ele>52</ele>
        <time>2020-02-17T22:09:19Z</time>
      </trkpt>
      <trkpt lat="48.06791" lon="-4.66199">
        <ele>52</ele>
        <time>2020-02-17T22:09:39Z</time>
      </trkpt>
      <trkpt lat="48.06788" lon="-4.66221">
        <ele>53</ele>
        <time>2020-02-17T22:09:59Z</time>
      </trkpt>
      <trkpt lat="48.06788" lon="-4.66238">
        <ele>53</ele>
        <time>2020-02-17T22:10:15Z</time>
      </trkpt>
      <trkpt lat="48.06781" lon="-4.66275">
        <ele>57</ele>
        <time>2020-02-17T22:10:49Z</time>
      </trkpt>
      <trkpt lat="48.06783" lon="-4.66287">
        <ele>57</ele>
        <time>2020-02-17T22:11:00Z</time>
      </trkpt>
      <trkpt lat="48.0679" lon="-4.66301">
        <ele>56</ele>
        <time>2020-02-17T22:11:15Z</time>
      </trkpt>
      <trkpt lat="48.06808" lon="-4.66316">
        <ele>54</ele>
        <time>2020-02-17T22:11:43Z</time>
      </trkpt>
      <trkpt lat="48.0682" lon="-4.66322">
        <ele>53</ele>
        <time>2020-02-17T22:12:00Z</time>
      </trkpt>
      <trkpt lat="48.06835" lon="-4.66334">
        <ele>52</ele>
        <time>2020-02-17T22:12:23Z</time>
      </trkpt>
      <trkpt lat="48.06843" lon="-4.66337">
        <ele>51</ele>
        <time>2020-02-17T22:12:34Z</time>
      </trkpt>
      <trkpt lat="48.06858" lon="-4.66353">
        <ele>51</ele>
        <time>2020-02-17T22:12:58Z</time>
      </trkpt>
      <trkpt lat="48.06878" lon="-4.66353">
        <ele>48</ele>
        <time>2020-02-17T22:13:25Z</time>
      </trkpt>
      <trkpt lat="48.06883" lon="-4.66366">
        <ele>50</ele>
        <time>2020-02-17T22:13:38Z</time>
      </trkpt>
      <trkpt lat="48.06891" lon="-4.66374">
        <ele>51</ele>
        <time>2020-02-17T22:13:51Z</time>
      </trkpt>
      <trkpt lat="48.06899" lon="-4.66375">
        <ele>50</ele>
        <time>2020-02-17T22:14:02Z</time>
      </trkpt>
      <trkpt lat="48.06906" lon="-4.6638">
        <ele>50</ele>
        <time>2020-02-17T22:14:12Z</time>
      </trkpt>
      <trkpt lat="48.06907" lon="-4.66385">
        <ele>51</ele>
        <time>2020-02-17T22:14:17Z</time>
      </trkpt>
      <trkpt lat="48.06903" lon="-4.66399">
        <ele>55</ele>
        <time>2020-02-17T22:14:30Z</time>
      </trkpt>
      <trkpt lat="48.06905" lon="-4.66423">
        <ele>59</ele>
        <time>2020-02-17T22:14:52Z</time>
      </trkpt>
      <trkpt lat="48.06903" lon="-4.66433">
        <ele>60</ele>
        <time>2020-02-17T22:15:01Z</time>
      </trkpt>
      <trkpt lat="48.06993" lon="-4.66459">
        <ele>57</ele>
        <time>2020-02-17T22:17:04Z</time>
      </trkpt>
      <trkpt lat="48.07014" lon="-4.66442">
        <ele>54</ele>
        <time>2020-02-17T22:17:35Z</time>
      </trkpt>
      <trkpt lat="48.07031" lon="-4.66433">
        <ele>53</ele>
        <time>2020-02-17T22:17:59Z</time>
      </trkpt>
      <trkpt lat="48.0704" lon="-4.66429">
        <ele>52</ele>
        <time>2020-02-17T22:18:12Z</time>
      </trkpt>
      <trkpt lat="48.07054" lon="-4.66429">
        <ele>52</ele>
        <time>2020-02-17T22:18:31Z</time>
      </trkpt>
      <trkpt lat="48.07062" lon="-4.66427">
        <ele>52</ele>
        <time>2020-02-17T22:18:41Z</time>
      </trkpt>
      <trkpt lat="48.07091" lon="-4.66414">
        <ele>49</ele>
        <time>2020-02-17T22:19:22Z</time>
      </trkpt>
      <trkpt lat="48.07143" lon="-4.66416">
        <ele>37</ele>
        <time>2020-02-17T22:20:31Z</time>
      </trkpt>
      <trkpt lat="48.07146" lon="-4.66418">
        <ele>37</ele>
        <time>2020-02-17T22:20:36Z</time>
      </trkpt>
      <trkpt lat="48.07149" lon="-4.66426">
        <ele>36</ele>
        <time>2020-02-17T22:20:44Z</time>
      </trkpt>
      <trkpt lat="48.07149" lon="-4.66447">
        <ele>36</ele>
        <time>2020-02-17T22:21:03Z</time>
      </trkpt>
      <trkpt lat="48.07143" lon="-4.6646">
        <ele>38</ele>
        <time>2020-02-17T22:21:17Z</time>
      </trkpt>
      <trkpt lat="48.07131" lon="-4.66478">
        <ele>41</ele>
        <time>2020-02-17T22:21:39Z</time>
      </trkpt>
      <trkpt lat="48.0713" lon="-4.66485">
        <ele>42</ele>
        <time>2020-02-17T22:21:46Z</time>
      </trkpt>
      <trkpt lat="48.07128" lon="-4.66484">
        <ele>43</ele>
        <time>2020-02-17T22:21:49Z</time>
      </trkpt>
      <trkpt lat="48.07102" lon="-4.66497">
        <ele>52</ele>
        <time>2020-02-17T22:22:25Z</time>
      </trkpt>
      <trkpt lat="48.07083" lon="-4.66525">
        <ele>54</ele>
        <time>2020-02-17T22:23:01Z</time>
      </trkpt>
      <trkpt lat="48.07061" lon="-4.66567">
        <ele>52</ele>
        <time>2020-02-17T22:23:48Z</time>
      </trkpt>
      <trkpt lat="48.07055" lon="-4.66602">
        <ele>49</ele>
        <time>2020-02-17T22:24:21Z</time>
      </trkpt>
      <trkpt lat="48.07051" lon="-4.66606">
        <ele>49</ele>
        <time>2020-02-17T22:24:27Z</time>
      </trkpt>
      <trkpt lat="48.07049" lon="-4.66611">
        <ele>49</ele>
        <time>2020-02-17T22:24:32Z</time>
      </trkpt>
      <trkpt lat="48.07044" lon="-4.66635">
        <ele>46</ele>
        <time>2020-02-17T22:24:55Z</time>
      </trkpt>
      <trkpt lat="48.07042" lon="-4.66647">
        <ele>45</ele>
        <time>2020-02-17T22:25:06Z</time>
      </trkpt>
      <trkpt lat="48.07045" lon="-4.66656">
        <ele>43</ele>
        <time>2020-02-17T22:25:15Z</time>
      </trkpt>
      <trkpt lat="48.07046" lon="-4.66669">
        <ele>40</ele>
        <time>2020-02-17T22:25:26Z</time>
      </trkpt>
      <trkpt lat="48.07037" lon="-4.66675">
        <ele>41</ele>
        <time>2020-02-17T22:25:39Z</time>
      </trkpt>
      <trkpt lat="48.07006" lon="-4.66678">
        <ele>50</ele>
        <time>2020-02-17T22:26:21Z</time>
      </trkpt>
      <trkpt lat="48.06988" lon="-4.66684">
        <ele>51</ele>
        <time>2020-02-17T22:26:45Z</time>
      </trkpt>
      <trkpt lat="48.06987" lon="-4.66688">
        <ele>50</ele>
        <time>2020-02-17T22:26:49Z</time>
      </trkpt>
      <trkpt lat="48.06976" lon="-4.66689">
        <ele>51</ele>
        <time>2020-02-17T22:27:04Z</time>
      </trkpt>
      <trkpt lat="48.06971" lon="-4.66686">
        <ele>52</ele>
        <time>2020-02-17T22:27:11Z</time>
      </trkpt>
      <trkpt lat="48.06947" lon="-4.66687">
        <ele>54</ele>
        <time>2020-02-17T22:27:43Z</time>
      </trkpt>
      <trkpt lat="48.06922" lon="-4.66698">
        <ele>53</ele>
        <time>2020-02-17T22:28:18Z</time>
      </trkpt>
      <trkpt lat="48.06916" lon="-4.66707">
        <ele>51</ele>
        <time>2020-02-17T22:28:29Z</time>
      </trkpt>
      <trkpt lat="48.06912" lon="-4.6672">
        <ele>49</ele>
        <time>2020-02-17T22:28:42Z</time>
      </trkpt>
      <trkpt lat="48.069" lon="-4.66729">
        <ele>48</ele>
        <time>2020-02-17T22:29:00Z</time>
      </trkpt>
      <trkpt lat="48.06886" lon="-4.66752">
        <ele>44</ele>
        <time>2020-02-17T22:29:28Z</time>
      </trkpt>
      <trkpt lat="48.06877" lon="-4.66783">
        <ele>34</ele>
        <time>2020-02-17T22:29:58Z</time>
      </trkpt>
      <trkpt lat="48.06871" lon="-4.66786">
        <ele>34</ele>
        <time>2020-02-17T22:30:06Z</time>
      </trkpt>
      <trkpt lat="48.06867" lon="-4.66778">
        <ele>37</ele>
        <time>2020-02-17T22:30:15Z</time>
      </trkpt>
      <trkpt lat="48.06862" lon="-4.66772">
        <ele>40</ele>
        <time>2020-02-17T22:30:24Z</time>
      </trkpt>
      <trkpt lat="48.06856" lon="-4.66742">
        <ele>50</ele>
        <time>2020-02-17T22:30:52Z</time>
      </trkpt>
      <trkpt lat="48.06852" lon="-4.6674">
        <ele>51</ele>
        <time>2020-02-17T22:30:57Z</time>
      </trkpt>
      <trkpt lat="48.06835" lon="-4.66716">
        <ele>57</ele>
        <time>2020-02-17T22:31:28Z</time>
      </trkpt>
      <trkpt lat="48.06829" lon="-4.66712">
        <ele>57</ele>
        <time>2020-02-17T22:31:37Z</time>
      </trkpt>
      <trkpt lat="48.06824" lon="-4.66713">
        <ele>56</ele>
        <time>2020-02-17T22:31:44Z</time>
      </trkpt>
      <trkpt lat="48.06804" lon="-4.66721">
        <ele>53</ele>
        <time>2020-02-17T22:32:12Z</time>
      </trkpt>
      <trkpt lat="48.06783" lon="-4.66741">
        <ele>46</ele>
        <time>2020-02-17T22:32:45Z</time>
      </trkpt>
      <trkpt lat="48.06779" lon="-4.66743">
        <ele>45</ele>
        <time>2020-02-17T22:32:50Z</time>
      </trkpt>
      <trkpt lat="48.06776" lon="-4.66741">
        <ele>45</ele>
        <time>2020-02-17T22:32:55Z</time>
      </trkpt>
      <trkpt lat="48.06759" lon="-4.66718">
        <ele>50</ele>
        <time>2020-02-17T22:33:25Z</time>
      </trkpt>
      <trkpt lat="48.06744" lon="-4.66706">
        <ele>53</ele>
        <time>2020-02-17T22:33:48Z</time>
      </trkpt>
      <trkpt lat="48.06717" lon="-4.66692">
        <ele>57</ele>
        <time>2020-02-17T22:34:26Z</time>
      </trkpt>
      <trkpt lat="48.06701" lon="-4.66692">
        <ele>57</ele>
        <time>2020-02-17T22:34:48Z</time>
      </trkpt>
      <trkpt lat="48.0669" lon="-4.66688">
        <ele>58</ele>
        <time>2020-02-17T22:35:03Z</time>
      </trkpt>
      <trkpt lat="48.06678" lon="-4.66676">
        <ele>61</ele>
        <time>2020-02-17T22:35:22Z</time>
      </trkpt>
      <trkpt lat="48.06671" lon="-4.66676">
        <ele>61</ele>
        <time>2020-02-17T22:35:31Z</time>
      </trkpt>
      <trkpt lat="48.06665" lon="-4.66684">
        <ele>59</ele>
        <time>2020-02-17T22:35:42Z</time>
      </trkpt>
      <trkpt lat="48.06659" lon="-4.667">
        <ele>57</ele>
        <time>2020-02-17T22:35:58Z</time>
      </trkpt>
      <trkpt lat="48.06643" lon="-4.66718">
        <ele>56</ele>
        <time>2020-02-17T22:36:25Z</time>
      </trkpt>
      <trkpt lat="48.0664" lon="-4.66725">
        <ele>56</ele>
        <time>2020-02-17T22:36:33Z</time>
      </trkpt>
      <trkpt lat="48.06635" lon="-4.66737">
        <ele>55</ele>
        <time>2020-02-17T22:36:45Z</time>
      </trkpt>
      <trkpt lat="48.06636" lon="-4.66748">
        <ele>54</ele>
        <time>2020-02-17T22:36:55Z</time>
      </trkpt>
      <trkpt lat="48.06632" lon="-4.66767">
        <ele>50</ele>
        <time>2020-02-17T22:37:13Z</time>
      </trkpt>
      <trkpt lat="48.06628" lon="-4.66774">
        <ele>49</ele>
        <time>2020-02-17T22:37:21Z</time>
      </trkpt>
      <trkpt lat="48.06625" lon="-4.66783">
        <ele>47</ele>
        <time>2020-02-17T22:37:30Z</time>
      </trkpt>
      <trkpt lat="48.06622" lon="-4.66789">
        <ele>46</ele>
        <time>2020-02-17T22:37:37Z</time>
      </trkpt>
      <trkpt lat="48.06609" lon="-4.66799">
        <ele>48</ele>
        <time>2020-02-17T22:37:56Z</time>
      </trkpt>
      <trkpt lat="48.06599" lon="-4.66803">
        <ele>50</ele>
        <time>2020-02-17T22:38:10Z</time>
      </trkpt>
      <trkpt lat="48.06592" lon="-4.66805">
        <ele>52</ele>
        <time>2020-02-17T22:38:19Z</time>
      </trkpt>
      <trkpt lat="48.06575" lon="-4.66805">
        <ele>55</ele>
        <time>2020-02-17T22:38:42Z</time>
      </trkpt>
      <trkpt lat="48.0657" lon="-4.66811">
        <ele>55</ele>
        <time>2020-02-17T22:38:51Z</time>
      </trkpt>
      <trkpt lat="48.06556" lon="-4.66837">
        <ele>54</ele>
        <time>2020-02-17T22:39:20Z</time>
      </trkpt>
      <trkpt lat="48.06554" lon="-4.66845">
        <ele>52</ele>
        <time>2020-02-17T22:39:28Z</time>
      </trkpt>
      <trkpt lat="48.06555" lon="-4.66856">
        <ele>50</ele>
        <time>2020-02-17T22:39:38Z</time>
      </trkpt>
      <trkpt lat="48.06551" lon="-4.66894">
        <ele>43</ele>
        <time>2020-02-17T22:40:12Z</time>
      </trkpt>
      <trkpt lat="48.06546" lon="-4.66909">
        <ele>42</ele>
        <time>2020-02-17T22:40:27Z</time>
      </trkpt>
      <trkpt lat="48.06538" lon="-4.66921">
        <ele>42</ele>
        <time>2020-02-17T22:40:42Z</time>
      </trkpt>
      <trkpt lat="48.06535" lon="-4.6693">
        <ele>42</ele>
        <time>2020-02-17T22:40:51Z</time>
      </trkpt>
      <trkpt lat="48.06529" lon="-4.66934">
        <ele>43</ele>
        <time>2020-02-17T22:41:00Z</time>
      </trkpt>
      <trkpt lat="48.06525" lon="-4.66942">
        <ele>43</ele>
        <time>2020-02-17T22:41:09Z</time>
      </trkpt>
      <trkpt lat="48.06502" lon="-4.66971">
        <ele>46</ele>
        <time>2020-02-17T22:41:49Z</time>
      </trkpt>
      <trkpt lat="48.06491" lon="-4.6698">
        <ele>46</ele>
        <time>2020-02-17T22:42:06Z</time>
      </trkpt>
      <trkpt lat="48.06485" lon="-4.66991">
        <ele>44</ele>
        <time>2020-02-17T22:42:19Z</time>
      </trkpt>
      <trkpt lat="48.06472" lon="-4.67006">
        <ele>42</ele>
        <time>2020-02-17T22:42:40Z</time>
      </trkpt>
      <trkpt lat="48.06461" lon="-4.67015">
        <ele>41</ele>
        <time>2020-02-17T22:42:57Z</time>
      </trkpt>
      <trkpt lat="48.06445" lon="-4.67034">
        <ele>38</ele>
        <time>2020-02-17T22:43:24Z</time>
      </trkpt>
      <trkpt lat="48.06438" lon="-4.67036">
        <ele>39</ele>
        <time>2020-02-17T22:43:34Z</time>
      </trkpt>
      <trkpt lat="48.0643" lon="-4.67044">
        <ele>39</ele>
        <time>2020-02-17T22:43:47Z</time>
      </trkpt>
      <trkpt lat="48.06425" lon="-4.67052">
        <ele>38</ele>
        <time>2020-02-17T22:43:57Z</time>
      </trkpt>
      <trkpt lat="48.06407" lon="-4.67065">
        <ele>37</ele>
        <time>2020-02-17T22:44:23Z</time>
      </trkpt>
      <trkpt lat="48.06401" lon="-4.67075">
        <ele>35</ele>
        <time>2020-02-17T22:44:35Z</time>
      </trkpt>
      <trkpt lat="48.06393" lon="-4.67082">
        <ele>34</ele>
        <time>2020-02-17T22:44:48Z</time>
      </trkpt>
      <trkpt lat="48.0639" lon="-4.6709">
        <ele>32</ele>
        <time>2020-02-17T22:44:56Z</time>
      </trkpt>
      <trkpt lat="48.06386" lon="-4.67094">
        <ele>31</ele>
        <time>2020-02-17T22:45:02Z</time>
      </trkpt>
      <trkpt lat="48.06381" lon="-4.67104">
        <ele>29</ele>
        <time>2020-02-17T22:45:13Z</time>
      </trkpt>
      <trkpt lat="48.06382" lon="-4.67113">
        <ele>26</ele>
        <time>2020-02-17T22:45:21Z</time>
      </trkpt>
      <trkpt lat="48.0638" lon="-4.6712">
        <ele>25</ele>
        <time>2020-02-17T22:45:28Z</time>
      </trkpt>
      <trkpt lat="48.06376" lon="-4.67126">
        <ele>23</ele>
        <time>2020-02-17T22:45:36Z</time>
      </trkpt>
      <trkpt lat="48.06369" lon="-4.67128">
        <ele>23</ele>
        <time>2020-02-17T22:45:45Z</time>
      </trkpt>
      <trkpt lat="48.06361" lon="-4.67121">
        <ele>26</ele>
        <time>2020-02-17T22:45:58Z</time>
      </trkpt>
      <trkpt lat="48.06341" lon="-4.6709">
        <ele>35</ele>
        <time>2020-02-17T22:46:36Z</time>
      </trkpt>
      <trkpt lat="48.06333" lon="-4.67083">
        <ele>37</ele>
        <time>2020-02-17T22:46:48Z</time>
      </trkpt>
      <trkpt lat="48.06317" lon="-4.67078">
        <ele>34</ele>
        <time>2020-02-17T22:47:10Z</time>
      </trkpt>
      <trkpt lat="48.06313" lon="-4.67081">
        <ele>33</ele>
        <time>2020-02-17T22:47:16Z</time>
      </trkpt>
      <trkpt lat="48.06306" lon="-4.6708">
        <ele>31</ele>
        <time>2020-02-17T22:47:26Z</time>
      </trkpt>
      <trkpt lat="48.06291" lon="-4.67086">
        <ele>27</ele>
        <time>2020-02-17T22:47:46Z</time>
      </trkpt>
      <trkpt lat="48.06279" lon="-4.67084">
        <ele>24</ele>
        <time>2020-02-17T22:48:02Z</time>
      </trkpt>
      <trkpt lat="48.06274" lon="-4.67081">
        <ele>24</ele>
        <time>2020-02-17T22:48:10Z</time>
      </trkpt>
      <trkpt lat="48.0627" lon="-4.67075">
        <ele>24</ele>
        <time>2020-02-17T22:48:17Z</time>
      </trkpt>
      <trkpt lat="48.06263" lon="-4.67052">
        <ele>26</ele>
        <time>2020-02-17T22:48:40Z</time>
      </trkpt>
      <trkpt lat="48.06256" lon="-4.67024">
        <ele>28</ele>
        <time>2020-02-17T22:49:06Z</time>
      </trkpt>
      <trkpt lat="48.06253" lon="-4.67036">
        <ele>26</ele>
        <time>2020-02-17T22:49:18Z</time>
      </trkpt>
      <trkpt lat="48.06248" lon="-4.67069">
        <ele>20</ele>
        <time>2020-02-17T22:49:48Z</time>
      </trkpt>
      <trkpt lat="48.06246" lon="-4.67072">
        <ele>20</ele>
        <time>2020-02-17T22:49:52Z</time>
      </trkpt>
      <trkpt lat="48.06246" lon="-4.67061">
        <ele>22</ele>
        <time>2020-02-17T22:50:02Z</time>
      </trkpt>
      <trkpt lat="48.06233" lon="-4.67019">
        <ele>29</ele>
        <time>2020-02-17T22:50:43Z</time>
      </trkpt>
      <trkpt lat="48.06226" lon="-4.67014">
        <ele>30</ele>
        <time>2020-02-17T22:50:53Z</time>
      </trkpt>
      <trkpt lat="48.06222" lon="-4.67006">
        <ele>31</ele>
        <time>2020-02-17T22:51:02Z</time>
      </trkpt>
      <trkpt lat="48.06219" lon="-4.67013">
        <ele>30</ele>
        <time>2020-02-17T22:51:10Z</time>
      </trkpt>
      <trkpt lat="48.06217" lon="-4.6701">
        <ele>31</ele>
        <time>2020-02-17T22:51:13Z</time>
      </trkpt>
      <trkpt lat="48.06219" lon="-4.66998">
        <ele>33</ele>
        <time>2020-02-17T22:51:24Z</time>
      </trkpt>
      <trkpt lat="48.06209" lon="-4.67002">
        <ele>33</ele>
        <time>2020-02-17T22:51:38Z</time>
      </trkpt>
      <trkpt lat="48.0621" lon="-4.67018">
        <ele>30</ele>
        <time>2020-02-17T22:51:53Z</time>
      </trkpt>
      <trkpt lat="48.06206" lon="-4.67035">
        <ele>27</ele>
        <time>2020-02-17T22:52:09Z</time>
      </trkpt>
      <trkpt lat="48.06201" lon="-4.67042">
        <ele>27</ele>
        <time>2020-02-17T22:52:18Z</time>
      </trkpt>
      <trkpt lat="48.06188" lon="-4.67049">
        <ele>26</ele>
        <time>2020-02-17T22:52:36Z</time>
      </trkpt>
      <trkpt lat="48.06184" lon="-4.67059">
        <ele>24</ele>
        <time>2020-02-17T22:52:47Z</time>
      </trkpt>
      <trkpt lat="48.06166" lon="-4.67115">
        <ele>15</ele>
        <time>2020-02-17T22:53:42Z</time>
      </trkpt>
      <trkpt lat="48.06159" lon="-4.67126">
        <ele>14</ele>
        <time>2020-02-17T22:53:56Z</time>
      </trkpt>
      <trkpt lat="48.0615" lon="-4.67132">
        <ele>14</ele>
        <time>2020-02-17T22:54:09Z</time>
      </trkpt>
      <trkpt lat="48.06136" lon="-4.67138">
        <ele>14</ele>
        <time>2020-02-17T22:54:28Z</time>
      </trkpt>
      <trkpt lat="48.06132" lon="-4.67142">
        <ele>14</ele>
        <time>2020-02-17T22:54:35Z</time>
      </trkpt>
      <trkpt lat="48.06121" lon="-4.67143">
        <ele>15</ele>
        <time>2020-02-17T22:54:49Z</time>
      </trkpt>
      <trkpt lat="48.061" lon="-4.67132">
        <ele>19</ele>
        <time>2020-02-17T22:55:19Z</time>
      </trkpt>
      <trkpt lat="48.06091" lon="-4.67123">
        <ele>21</ele>
        <time>2020-02-17T22:55:33Z</time>
      </trkpt>
      <trkpt lat="48.06064" lon="-4.67107">
        <ele>25</ele>
        <time>2020-02-17T22:56:12Z</time>
      </trkpt>
      <trkpt lat="48.06054" lon="-4.67108">
        <ele>25</ele>
        <time>2020-02-17T22:56:26Z</time>
      </trkpt>
      <trkpt lat="48.06045" lon="-4.67095">
        <ele>27</ele>
        <time>2020-02-17T22:56:42Z</time>
      </trkpt>
      <trkpt lat="48.06028" lon="-4.67093">
        <ele>27</ele>
        <time>2020-02-17T22:57:05Z</time>
      </trkpt>
      <trkpt lat="48.06023" lon="-4.67102">
        <ele>26</ele>
        <time>2020-02-17T22:57:15Z</time>
      </trkpt>
      <trkpt lat="48.06022" lon="-4.6712">
        <ele>25</ele>
        <time>2020-02-17T22:57:32Z</time>
      </trkpt>
      <trkpt lat="48.06014" lon="-4.67126">
        <ele>26</ele>
        <time>2020-02-17T22:57:43Z</time>
      </trkpt>
      <trkpt lat="48.0601" lon="-4.67138">
        <ele>26</ele>
        <time>2020-02-17T22:57:55Z</time>
      </trkpt>
      <trkpt lat="48.06007" lon="-4.67139">
        <ele>26</ele>
        <time>2020-02-17T22:58:00Z</time>
      </trkpt>
      <trkpt lat="48.06009" lon="-4.67142">
        <ele>26</ele>
        <time>2020-02-17T22:58:03Z</time>
      </trkpt>
      <trkpt lat="48.06011" lon="-4.67159">
        <ele>25</ele>
        <time>2020-02-17T22:58:19Z</time>
      </trkpt>
      <trkpt lat="48.06032" lon="-4.67204">
        <ele>25</ele>
        <time>2020-02-17T22:59:08Z</time>
      </trkpt>
      <trkpt lat="48.06037" lon="-4.6722">
        <ele>25</ele>
        <time>2020-02-17T22:59:23Z</time>
      </trkpt>
      <trkpt lat="48.06038" lon="-4.67232">
        <ele>26</ele>
        <time>2020-02-17T22:59:34Z</time>
      </trkpt>
      <trkpt lat="48.06047" lon="-4.67252">
        <ele>24</ele>
        <time>2020-02-17T22:59:56Z</time>
      </trkpt>
      <trkpt lat="48.06047" lon="-4.67262">
        <ele>25</ele>
        <time>2020-02-17T23:00:05Z</time>
      </trkpt>
      <trkpt lat="48.06054" lon="-4.67298">
        <ele>25</ele>
        <time>2020-02-17T23:00:38Z</time>
      </trkpt>
      <trkpt lat="48.06049" lon="-4.67318">
        <ele>27</ele>
        <time>2020-02-17T23:00:57Z</time>
      </trkpt>
      <trkpt lat="48.06054" lon="-4.67319">
        <ele>26</ele>
        <time>2020-02-17T23:01:04Z</time>
      </trkpt>
      <trkpt lat="48.06055" lon="-4.67324">
        <ele>26</ele>
        <time>2020-02-17T23:01:08Z</time>
      </trkpt>
      <trkpt lat="48.06052" lon="-4.67332">
        <ele>27</ele>
        <time>2020-02-17T23:01:17Z</time>
      </trkpt>
      <trkpt lat="48.06068" lon="-4.67335">
        <ele>23</ele>
        <time>2020-02-17T23:01:38Z</time>
      </trkpt>
      <trkpt lat="48.06096" lon="-4.674">
        <ele>27</ele>
        <time>2020-02-17T23:02:47Z</time>
      </trkpt>
      <trkpt lat="48.06112" lon="-4.67429">
        <ele>26</ele>
        <time>2020-02-17T23:03:21Z</time>
      </trkpt>
      <trkpt lat="48.06122" lon="-4.67449">
        <ele>25</ele>
        <time>2020-02-17T23:03:43Z</time>
      </trkpt>
      <trkpt lat="48.06134" lon="-4.67466">
        <ele>22</ele>
        <time>2020-02-17T23:04:05Z</time>
      </trkpt>
      <trkpt lat="48.06145" lon="-4.67486">
        <ele>19</ele>
        <time>2020-02-17T23:04:28Z</time>
      </trkpt>
      <trkpt lat="48.06146" lon="-4.67503">
        <ele>20</ele>
        <time>2020-02-17T23:04:43Z</time>
      </trkpt>
      <trkpt lat="48.06143" lon="-4.67511">
        <ele>21</ele>
        <time>2020-02-17T23:04:52Z</time>
      </trkpt>
      <trkpt lat="48.06139" lon="-4.67515">
        <ele>22</ele>
        <time>2020-02-17T23:04:58Z</time>
      </trkpt>
      <trkpt lat="48.06113" lon="-4.67528">
        <ele>33</ele>
        <time>2020-02-17T23:05:35Z</time>
      </trkpt>
      <trkpt lat="48.06109" lon="-4.67531">
        <ele>35</ele>
        <time>2020-02-17T23:05:40Z</time>
      </trkpt>
      <trkpt lat="48.06106" lon="-4.67536">
        <ele>36</ele>
        <time>2020-02-17T23:05:46Z</time>
      </trkpt>
      <trkpt lat="48.06096" lon="-4.67578">
        <ele>39</ele>
        <time>2020-02-17T23:06:26Z</time>
      </trkpt>
      <trkpt lat="48.06078" lon="-4.6763">
        <ele>42</ele>
        <time>2020-02-17T23:07:18Z</time>
      </trkpt>
      <trkpt lat="48.06065" lon="-4.67693">
        <ele>41</ele>
        <time>2020-02-17T23:08:17Z</time>
      </trkpt>
      <trkpt lat="48.06053" lon="-4.67766">
        <ele>42</ele>
        <time>2020-02-17T23:09:24Z</time>
      </trkpt>
      <trkpt lat="48.06057" lon="-4.67819">
        <ele>40</ele>
        <time>2020-02-17T23:10:12Z</time>
      </trkpt>
      <trkpt lat="48.06051" lon="-4.67844">
        <ele>42</ele>
        <time>2020-02-17T23:10:36Z</time>
      </trkpt>
      <trkpt lat="48.06041" lon="-4.67871">
        <ele>47</ele>
        <time>2020-02-17T23:11:03Z</time>
      </trkpt>
      <trkpt lat="48.06035" lon="-4.67912">
        <ele>51</ele>
        <time>2020-02-17T23:11:41Z</time>
      </trkpt>
      <trkpt lat="48.06039" lon="-4.67921">
        <ele>50</ele>
        <time>2020-02-17T23:11:50Z</time>
      </trkpt>
      <trkpt lat="48.06064" lon="-4.67934">
        <ele>46</ele>
        <time>2020-02-17T23:12:26Z</time>
      </trkpt>
      <trkpt lat="48.06072" lon="-4.67944">
        <ele>46</ele>
        <time>2020-02-17T23:12:39Z</time>
      </trkpt>
      <trkpt lat="48.06075" lon="-4.6797">
        <ele>50</ele>
        <time>2020-02-17T23:13:03Z</time>
      </trkpt>
      <trkpt lat="48.06081" lon="-4.67982">
        <ele>52</ele>
        <time>2020-02-17T23:13:16Z</time>
      </trkpt>
      <trkpt lat="48.06086" lon="-4.67998">
        <ele>54</ele>
        <time>2020-02-17T23:13:32Z</time>
      </trkpt>
      <trkpt lat="48.06091" lon="-4.68001">
        <ele>52</ele>
        <time>2020-02-17T23:13:39Z</time>
      </trkpt>
      <trkpt lat="48.06096" lon="-4.68012">
        <ele>51</ele>
        <time>2020-02-17T23:13:51Z</time>
      </trkpt>
      <trkpt lat="48.0611" lon="-4.68028">
        <ele>48</ele>
        <time>2020-02-17T23:14:15Z</time>
      </trkpt>
      <trkpt lat="48.06124" lon="-4.68054">
        <ele>47</ele>
        <time>2020-02-17T23:14:44Z</time>
      </trkpt>
      <trkpt lat="48.06124" lon="-4.68072">
        <ele>50</ele>
        <time>2020-02-17T23:15:00Z</time>
      </trkpt>
      <trkpt lat="48.0613" lon="-4.68084">
        <ele>50</ele>
        <time>2020-02-17T23:15:14Z</time>
      </trkpt>
      <trkpt lat="48.06132" lon="-4.68095">
        <ele>50</ele>
        <time>2020-02-17T23:15:24Z</time>
      </trkpt>
      <trkpt lat="48.0614" lon="-4.68114">
        <ele>49</ele>
        <time>2020-02-17T23:15:44Z</time>
      </trkpt>
      <trkpt lat="48.06124" lon="-4.68129">
        <ele>52</ele>
        <time>2020-02-17T23:16:09Z</time>
      </trkpt>
      <trkpt lat="48.06075" lon="-4.68287">
        <ele>54</ele>
        <time>2020-02-17T23:18:45Z</time>
      </trkpt>
      <trkpt lat="48.06068" lon="-4.68299">
        <ele>54</ele>
        <time>2020-02-17T23:18:59Z</time>
      </trkpt>
      <trkpt lat="48.06041" lon="-4.68321">
        <ele>57</ele>
        <time>2020-02-17T23:19:40Z</time>
      </trkpt>
      <trkpt lat="48.06056" lon="-4.68326">
        <ele>54</ele>
        <time>2020-02-17T23:20:00Z</time>
      </trkpt>
      <trkpt lat="48.06074" lon="-4.68339">
        <ele>51</ele>
        <time>2020-02-17T23:20:27Z</time>
      </trkpt>
      <trkpt lat="48.06068" lon="-4.68362">
        <ele>50</ele>
        <time>2020-02-17T23:20:49Z</time>
      </trkpt>
      <trkpt lat="48.06071" lon="-4.68372">
        <ele>49</ele>
        <time>2020-02-17T23:20:59Z</time>
      </trkpt>
      <trkpt lat="48.06068" lon="-4.68388">
        <ele>48</ele>
        <time>2020-02-17T23:21:14Z</time>
      </trkpt>
      <trkpt lat="48.06067" lon="-4.68412">
        <ele>47</ele>
        <time>2020-02-17T23:21:35Z</time>
      </trkpt>
      <trkpt lat="48.06063" lon="-4.68443">
        <ele>45</ele>
        <time>2020-02-17T23:22:03Z</time>
      </trkpt>
      <trkpt lat="48.0606" lon="-4.68454">
        <ele>44</ele>
        <time>2020-02-17T23:22:14Z</time>
      </trkpt>
      <trkpt lat="48.06058" lon="-4.68458">
        <ele>44</ele>
        <time>2020-02-17T23:22:18Z</time>
      </trkpt>
      <trkpt lat="48.0605" lon="-4.68464">
        <ele>46</ele>
        <time>2020-02-17T23:22:30Z</time>
      </trkpt>
      <trkpt lat="48.0602" lon="-4.68482">
        <ele>52</ele>
        <time>2020-02-17T23:23:13Z</time>
      </trkpt>
      <trkpt lat="48.06006" lon="-4.68496">
        <ele>55</ele>
        <time>2020-02-17T23:23:36Z</time>
      </trkpt>
      <trkpt lat="48.05995" lon="-4.68493">
        <ele>58</ele>
        <time>2020-02-17T23:23:51Z</time>
      </trkpt>
      <trkpt lat="48.0599" lon="-4.68495">
        <ele>59</ele>
        <time>2020-02-17T23:23:58Z</time>
      </trkpt>
      <trkpt lat="48.05988" lon="-4.68498">
        <ele>59</ele>
        <time>2020-02-17T23:24:01Z</time>
      </trkpt>
      <trkpt lat="48.05996" lon="-4.68512">
        <ele>58</ele>
        <time>2020-02-17T23:24:18Z</time>
      </trkpt>
      <trkpt lat="48.05999" lon="-4.6853">
        <ele>58</ele>
        <time>2020-02-17T23:24:34Z</time>
      </trkpt>
      <trkpt lat="48.06003" lon="-4.68535">
        <ele>57</ele>
        <time>2020-02-17T23:24:41Z</time>
      </trkpt>
      <trkpt lat="48.06005" lon="-4.68556">
        <ele>58</ele>
        <time>2020-02-17T23:25:00Z</time>
      </trkpt>
      <trkpt lat="48.06012" lon="-4.68559">
        <ele>56</ele>
        <time>2020-02-17T23:25:10Z</time>
      </trkpt>
      <trkpt lat="48.06017" lon="-4.68565">
        <ele>55</ele>
        <time>2020-02-17T23:25:19Z</time>
      </trkpt>
      <trkpt lat="48.06031" lon="-4.68592">
        <ele>52</ele>
        <time>2020-02-17T23:25:49Z</time>
      </trkpt>
      <trkpt lat="48.06059" lon="-4.68617">
        <ele>49</ele>
        <time>2020-02-17T23:26:33Z</time>
      </trkpt>
      <trkpt lat="48.06075" lon="-4.68626">
        <ele>47</ele>
        <time>2020-02-17T23:26:55Z</time>
      </trkpt>
      <trkpt lat="48.06081" lon="-4.68637">
        <ele>47</ele>
        <time>2020-02-17T23:27:08Z</time>
      </trkpt>
      <trkpt lat="48.06088" lon="-4.68714">
        <ele>54</ele>
        <time>2020-02-17T23:28:17Z</time>
      </trkpt>
      <trkpt lat="48.06091" lon="-4.68724">
        <ele>54</ele>
        <time>2020-02-17T23:28:27Z</time>
      </trkpt>
      <trkpt lat="48.06105" lon="-4.68736">
        <ele>49</ele>
        <time>2020-02-17T23:28:49Z</time>
      </trkpt>
      <trkpt lat="48.06112" lon="-4.68744">
        <ele>47</ele>
        <time>2020-02-17T23:29:00Z</time>
      </trkpt>
      <trkpt lat="48.06111" lon="-4.68764">
        <ele>49</ele>
        <time>2020-02-17T23:29:18Z</time>
      </trkpt>
      <trkpt lat="48.06115" lon="-4.68774">
        <ele>49</ele>
        <time>2020-02-17T23:29:29Z</time>
      </trkpt>
      <trkpt lat="48.06126" lon="-4.68784">
        <ele>46</ele>
        <time>2020-02-17T23:29:46Z</time>
      </trkpt>
      <trkpt lat="48.06133" lon="-4.68796">
        <ele>46</ele>
        <time>2020-02-17T23:30:00Z</time>
      </trkpt>
      <trkpt lat="48.06144" lon="-4.68848">
        <ele>49</ele>
        <time>2020-02-17T23:30:49Z</time>
      </trkpt>
      <trkpt lat="48.06138" lon="-4.68864">
        <ele>49</ele>
        <time>2020-02-17T23:31:05Z</time>
      </trkpt>
      <trkpt lat="48.06122" lon="-4.68889">
        <ele>51</ele>
        <time>2020-02-17T23:31:36Z</time>
      </trkpt>
      <trkpt lat="48.06118" lon="-4.68897">
        <ele>51</ele>
        <time>2020-02-17T23:31:45Z</time>
      </trkpt>
      <trkpt lat="48.06106" lon="-4.68907">
        <ele>53</ele>
        <time>2020-02-17T23:32:03Z</time>
      </trkpt>
      <trkpt lat="48.06107" lon="-4.68912">
        <ele>52</ele>
        <time>2020-02-17T23:32:08Z</time>
      </trkpt>
      <trkpt lat="48.06112" lon="-4.68917">
        <ele>51</ele>
        <time>2020-02-17T23:32:16Z</time>
      </trkpt>
      <trkpt lat="48.06113" lon="-4.6892">
        <ele>50</ele>
        <time>2020-02-17T23:32:19Z</time>
      </trkpt>
      <trkpt lat="48.06112" lon="-4.68921">
        <ele>51</ele>
        <time>2020-02-17T23:32:20Z</time>
      </trkpt>
      <trkpt lat="48.06085" lon="-4.68937">
        <ele>55</ele>
        <time>2020-02-17T23:32:59Z</time>
      </trkpt>
      <trkpt lat="48.06079" lon="-4.68944">
        <ele>56</ele>
        <time>2020-02-17T23:33:09Z</time>
      </trkpt>
      <trkpt lat="48.06075" lon="-4.68951">
        <ele>56</ele>
        <time>2020-02-17T23:33:18Z</time>
      </trkpt>
      <trkpt lat="48.06074" lon="-4.6896">
        <ele>55</ele>
        <time>2020-02-17T23:33:26Z</time>
      </trkpt>
      <trkpt lat="48.06075" lon="-4.68979">
        <ele>54</ele>
        <time>2020-02-17T23:33:43Z</time>
      </trkpt>
      <trkpt lat="48.06081" lon="-4.69008">
        <ele>52</ele>
        <time>2020-02-17T23:34:10Z</time>
      </trkpt>
      <trkpt lat="48.0609" lon="-4.6903">
        <ele>47</ele>
        <time>2020-02-17T23:34:33Z</time>
      </trkpt>
      <trkpt lat="48.06094" lon="-4.69046">
        <ele>44</ele>
        <time>2020-02-17T23:34:48Z</time>
      </trkpt>
      <trkpt lat="48.06094" lon="-4.69057">
        <ele>43</ele>
        <time>2020-02-17T23:34:58Z</time>
      </trkpt>
      <trkpt lat="48.0609" lon="-4.69071">
        <ele>44</ele>
        <time>2020-02-17T23:35:11Z</time>
      </trkpt>
      <trkpt lat="48.06083" lon="-4.6909">
        <ele>45</ele>
        <time>2020-02-17T23:35:31Z</time>
      </trkpt>
      <trkpt lat="48.06089" lon="-4.69115">
        <ele>41</ele>
        <time>2020-02-17T23:35:54Z</time>
      </trkpt>
      <trkpt lat="48.06085" lon="-4.69123">
        <ele>42</ele>
        <time>2020-02-17T23:36:03Z</time>
      </trkpt>
      <trkpt lat="48.0608" lon="-4.69126">
        <ele>43</ele>
        <time>2020-02-17T23:36:11Z</time>
      </trkpt>
      <trkpt lat="48.06076" lon="-4.69132">
        <ele>43</ele>
        <time>2020-02-17T23:36:18Z</time>
      </trkpt>
      <trkpt lat="48.06075" lon="-4.69147">
        <ele>42</ele>
        <time>2020-02-17T23:36:32Z</time>
      </trkpt>
      <trkpt lat="48.06095" lon="-4.69173">
        <ele>33</ele>
        <time>2020-02-17T23:37:07Z</time>
      </trkpt>
      <trkpt lat="48.06101" lon="-4.69178">
        <ele>30</ele>
        <time>2020-02-17T23:37:16Z</time>
      </trkpt>
      <trkpt lat="48.06114" lon="-4.69199">
        <ele>22</ele>
        <time>2020-02-17T23:37:42Z</time>
      </trkpt>
      <trkpt lat="48.06112" lon="-4.69206">
        <ele>22</ele>
        <time>2020-02-17T23:37:48Z</time>
      </trkpt>
      <trkpt lat="48.06101" lon="-4.6921">
        <ele>25</ele>
        <time>2020-02-17T23:38:03Z</time>
      </trkpt>
      <trkpt lat="48.06091" lon="-4.69209">
        <ele>28</ele>
        <time>2020-02-17T23:38:17Z</time>
      </trkpt>
      <trkpt lat="48.06069" lon="-4.69217">
        <ele>33</ele>
        <time>2020-02-17T23:38:47Z</time>
      </trkpt>
      <trkpt lat="48.06059" lon="-4.69218">
        <ele>36</ele>
        <time>2020-02-17T23:39:00Z</time>
      </trkpt>
      <trkpt lat="48.06046" lon="-4.69224">
        <ele>38</ele>
        <time>2020-02-17T23:39:19Z</time>
      </trkpt>
      <trkpt lat="48.06038" lon="-4.69223">
        <ele>41</ele>
        <time>2020-02-17T23:39:29Z</time>
      </trkpt>
      <trkpt lat="48.06031" lon="-4.69234">
        <ele>41</ele>
        <time>2020-02-17T23:39:43Z</time>
      </trkpt>
      <trkpt lat="48.06015" lon="-4.69243">
        <ele>45</ele>
        <time>2020-02-17T23:40:06Z</time>
      </trkpt>
      <trkpt lat="48.06004" lon="-4.69257">
        <ele>46</ele>
        <time>2020-02-17T23:40:25Z</time>
      </trkpt>
      <trkpt lat="48.06" lon="-4.69259">
        <ele>47</ele>
        <time>2020-02-17T23:40:31Z</time>
      </trkpt>
      <trkpt lat="48.0599" lon="-4.69259">
        <ele>49</ele>
        <time>2020-02-17T23:40:44Z</time>
      </trkpt>
      <trkpt lat="48.05978" lon="-4.69249">
        <ele>53</ele>
        <time>2020-02-17T23:41:02Z</time>
      </trkpt>
      <trkpt lat="48.05967" lon="-4.69244">
        <ele>55</ele>
        <time>2020-02-17T23:41:18Z</time>
      </trkpt>
      <trkpt lat="48.0596" lon="-4.69246">
        <ele>56</ele>
        <time>2020-02-17T23:41:27Z</time>
      </trkpt>
      <trkpt lat="48.05952" lon="-4.69251">
        <ele>58</ele>
        <time>2020-02-17T23:41:39Z</time>
      </trkpt>
      <trkpt lat="48.05943" lon="-4.69249">
        <ele>59</ele>
        <time>2020-02-17T23:41:51Z</time>
      </trkpt>
      <trkpt lat="48.05938" lon="-4.6925">
        <ele>60</ele>
        <time>2020-02-17T23:41:58Z</time>
      </trkpt>
      <trkpt lat="48.05931" lon="-4.69245">
        <ele>62</ele>
        <time>2020-02-17T23:42:08Z</time>
      </trkpt>
      <trkpt lat="48.05921" lon="-4.69253">
        <ele>63</ele>
        <time>2020-02-17T23:42:23Z</time>
      </trkpt>
      <trkpt lat="48.05912" lon="-4.6927">
        <ele>64</ele>
        <time>2020-02-17T23:42:42Z</time>
      </trkpt>
      <trkpt lat="48.05906" lon="-4.69298">
        <ele>64</ele>
        <time>2020-02-17T23:43:09Z</time>
      </trkpt>
      <trkpt lat="48.05899" lon="-4.69318">
        <ele>64</ele>
        <time>2020-02-17T23:43:29Z</time>
      </trkpt>
      <trkpt lat="48.05897" lon="-4.69333">
        <ele>64</ele>
        <time>2020-02-17T23:43:42Z</time>
      </trkpt>
      <trkpt lat="48.05907" lon="-4.69337">
        <ele>63</ele>
        <time>2020-02-17T23:43:56Z</time>
      </trkpt>
      <trkpt lat="48.05927" lon="-4.69359">
        <ele>58</ele>
        <time>2020-02-17T23:44:29Z</time>
      </trkpt>
      <trkpt lat="48.0593" lon="-4.69371">
        <ele>57</ele>
        <time>2020-02-17T23:44:41Z</time>
      </trkpt>
      <trkpt lat="48.05934" lon="-4.69377">
        <ele>56</ele>
        <time>2020-02-17T23:44:48Z</time>
      </trkpt>
      <trkpt lat="48.05934" lon="-4.69382">
        <ele>56</ele>
        <time>2020-02-17T23:44:53Z</time>
      </trkpt>
      <trkpt lat="48.05942" lon="-4.69396">
        <ele>53</ele>
        <time>2020-02-17T23:45:09Z</time>
      </trkpt>
      <trkpt lat="48.05955" lon="-4.69412">
        <ele>49</ele>
        <time>2020-02-17T23:45:32Z</time>
      </trkpt>
      <trkpt lat="48.05959" lon="-4.69426">
        <ele>48</ele>
        <time>2020-02-17T23:45:45Z</time>
      </trkpt>
      <trkpt lat="48.05965" lon="-4.69435">
        <ele>48</ele>
        <time>2020-02-17T23:45:57Z</time>
      </trkpt>
      <trkpt lat="48.05969" lon="-4.69445">
        <ele>48</ele>
        <time>2020-02-17T23:46:07Z</time>
      </trkpt>
      <trkpt lat="48.0598" lon="-4.69448">
        <ele>44</ele>
        <time>2020-02-17T23:46:22Z</time>
      </trkpt>
      <trkpt lat="48.05989" lon="-4.69463">
        <ele>44</ele>
        <time>2020-02-17T23:46:40Z</time>
      </trkpt>
      <trkpt lat="48.0599" lon="-4.69472">
        <ele>45</ele>
        <time>2020-02-17T23:46:48Z</time>
      </trkpt>
      <trkpt lat="48.05989" lon="-4.6948">
        <ele>47</ele>
        <time>2020-02-17T23:46:55Z</time>
      </trkpt>
      <trkpt lat="48.05991" lon="-4.69487">
        <ele>48</ele>
        <time>2020-02-17T23:47:02Z</time>
      </trkpt>
      <trkpt lat="48.05987" lon="-4.69496">
        <ele>50</ele>
        <time>2020-02-17T23:47:12Z</time>
      </trkpt>
      <trkpt lat="48.05985" lon="-4.6952">
        <ele>54</ele>
        <time>2020-02-17T23:47:33Z</time>
      </trkpt>
      <trkpt lat="48.05987" lon="-4.69538">
        <ele>55</ele>
        <time>2020-02-17T23:47:50Z</time>
      </trkpt>
      <trkpt lat="48.05993" lon="-4.69551">
        <ele>55</ele>
        <time>2020-02-17T23:48:04Z</time>
      </trkpt>
      <trkpt lat="48.05993" lon="-4.69558">
        <ele>56</ele>
        <time>2020-02-17T23:48:10Z</time>
      </trkpt>
      <trkpt lat="48.06002" lon="-4.69569">
        <ele>55</ele>
        <time>2020-02-17T23:48:25Z</time>
      </trkpt>
      <trkpt lat="48.06012" lon="-4.69602">
        <ele>52</ele>
        <time>2020-02-17T23:48:58Z</time>
      </trkpt>
      <trkpt lat="48.06018" lon="-4.69642">
        <ele>52</ele>
        <time>2020-02-17T23:49:34Z</time>
      </trkpt>
      <trkpt lat="48.06017" lon="-4.69664">
        <ele>54</ele>
        <time>2020-02-17T23:49:54Z</time>
      </trkpt>
      <trkpt lat="48.06026" lon="-4.69688">
        <ele>52</ele>
        <time>2020-02-17T23:50:18Z</time>
      </trkpt>
      <trkpt lat="48.06035" lon="-4.69701">
        <ele>50</ele>
        <time>2020-02-17T23:50:35Z</time>
      </trkpt>
      <trkpt lat="48.06039" lon="-4.69709">
        <ele>49</ele>
        <time>2020-02-17T23:50:44Z</time>
      </trkpt>
      <trkpt lat="48.06041" lon="-4.69709">
        <ele>48</ele>
        <time>2020-02-17T23:50:47Z</time>
      </trkpt>
      <trkpt lat="48.06044" lon="-4.69702">
        <ele>46</ele>
        <time>2020-02-17T23:50:54Z</time>
      </trkpt>
      <trkpt lat="48.06048" lon="-4.69702">
        <ele>45</ele>
        <time>2020-02-17T23:50:59Z</time>
      </trkpt>
      <trkpt lat="48.06052" lon="-4.69695">
        <ele>43</ele>
        <time>2020-02-17T23:51:08Z</time>
      </trkpt>
      <trkpt lat="48.06058" lon="-4.69692">
        <ele>40</ele>
        <time>2020-02-17T23:51:16Z</time>
      </trkpt>
      <trkpt lat="48.06062" lon="-4.69692">
        <ele>38</ele>
        <time>2020-02-17T23:51:21Z</time>
      </trkpt>
      <trkpt lat="48.0608" lon="-4.69726">
        <ele>37</ele>
        <time>2020-02-17T23:52:00Z</time>
      </trkpt>
      <trkpt lat="48.06086" lon="-4.69732">
        <ele>37</ele>
        <time>2020-02-17T23:52:10Z</time>
      </trkpt>
      <trkpt lat="48.0608" lon="-4.6977">
        <ele>44</ele>
        <time>2020-02-17T23:52:45Z</time>
      </trkpt>
      <trkpt lat="48.06091" lon="-4.69798">
        <ele>44</ele>
        <time>2020-02-17T23:53:14Z</time>
      </trkpt>
      <trkpt lat="48.06106" lon="-4.69817">
        <ele>42</ele>
        <time>2020-02-17T23:53:40Z</time>
      </trkpt>
      <trkpt lat="48.06106" lon="-4.69825">
        <ele>43</ele>
        <time>2020-02-17T23:53:47Z</time>
      </trkpt>
      <trkpt lat="48.06111" lon="-4.69838">
        <ele>44</ele>
        <time>2020-02-17T23:54:00Z</time>
      </trkpt>
      <trkpt lat="48.06112" lon="-4.69855">
        <ele>46</ele>
        <time>2020-02-17T23:54:16Z</time>
      </trkpt>
      <trkpt lat="48.0613" lon="-4.69875">
        <ele>44</ele>
        <time>2020-02-17T23:54:45Z</time>
      </trkpt>
      <trkpt lat="48.0614" lon="-4.6987">
        <ele>41</ele>
        <time>2020-02-17T23:55:00Z</time>
      </trkpt>
      <trkpt lat="48.06159" lon="-4.6987">
        <ele>36</ele>
        <time>2020-02-17T23:55:25Z</time>
      </trkpt>
      <trkpt lat="48.06164" lon="-4.69876">
        <ele>36</ele>
        <time>2020-02-17T23:55:33Z</time>
      </trkpt>
      <trkpt lat="48.0617" lon="-4.69889">
        <ele>36</ele>
        <time>2020-02-17T23:55:48Z</time>
      </trkpt>
      <trkpt lat="48.06175" lon="-4.69903">
        <ele>37</ele>
        <time>2020-02-17T23:56:02Z</time>
      </trkpt>
      <trkpt lat="48.06172" lon="-4.69916">
        <ele>40</ele>
        <time>2020-02-17T23:56:14Z</time>
      </trkpt>
      <trkpt lat="48.0616" lon="-4.69937">
        <ele>46</ele>
        <time>2020-02-17T23:56:39Z</time>
      </trkpt>
      <trkpt lat="48.06158" lon="-4.69947">
        <ele>47</ele>
        <time>2020-02-17T23:56:48Z</time>
      </trkpt>
      <trkpt lat="48.06161" lon="-4.69968">
        <ele>48</ele>
        <time>2020-02-17T23:57:07Z</time>
      </trkpt>
      <trkpt lat="48.06172" lon="-4.69991">
        <ele>46</ele>
        <time>2020-02-17T23:57:32Z</time>
      </trkpt>
      <trkpt lat="48.06174" lon="-4.70002">
        <ele>45</ele>
        <time>2020-02-17T23:57:42Z</time>
      </trkpt>
      <trkpt lat="48.06174" lon="-4.7001">
        <ele>45</ele>
        <time>2020-02-17T23:57:50Z</time>
      </trkpt>
      <trkpt lat="48.06165" lon="-4.70029">
        <ele>49</ele>
        <time>2020-02-17T23:58:10Z</time>
      </trkpt>
      <trkpt lat="48.06161" lon="-4.70045">
        <ele>50</ele>
        <time>2020-02-17T23:58:26Z</time>
      </trkpt>
      <trkpt lat="48.06156" lon="-4.70053">
        <ele>51</ele>
        <time>2020-02-17T23:58:35Z</time>
      </trkpt>
      <trkpt lat="48.06153" lon="-4.7006">
        <ele>51</ele>
        <time>2020-02-17T23:58:43Z</time>
      </trkpt>
      <trkpt lat="48.06152" lon="-4.70081">
        <ele>51</ele>
        <time>2020-02-17T23:59:02Z</time>
      </trkpt>
      <trkpt lat="48.0614" lon="-4.70109">
        <ele>53</ele>
        <time>2020-02-17T23:59:31Z</time>
      </trkpt>
      <trkpt lat="48.06136" lon="-4.70121">
        <ele>53</ele>
        <time>2020-02-17T23:59:43Z</time>
      </trkpt>
      <trkpt lat="48.06137" lon="-4.70142">
        <ele>52</ele>
        <time>2020-02-18T00:00:02Z</time>
      </trkpt>
      <trkpt lat="48.06135" lon="-4.70154">
        <ele>52</ele>
        <time>2020-02-18T00:00:13Z</time>
      </trkpt>
      <trkpt lat="48.06137" lon="-4.70164">
        <ele>51</ele>
        <time>2020-02-18T00:00:22Z</time>
      </trkpt>
      <trkpt lat="48.06141" lon="-4.70172">
        <ele>50</ele>
        <time>2020-02-18T00:00:31Z</time>
      </trkpt>
      <trkpt lat="48.06132" lon="-4.70191">
        <ele>53</ele>
        <time>2020-02-18T00:00:52Z</time>
      </trkpt>
      <trkpt lat="48.06129" lon="-4.70203">
        <ele>54</ele>
        <time>2020-02-18T00:01:03Z</time>
      </trkpt>
      <trkpt lat="48.06125" lon="-4.70206">
        <ele>56</ele>
        <time>2020-02-18T00:01:09Z</time>
      </trkpt>
      <trkpt lat="48.06123" lon="-4.7021">
        <ele>56</ele>
        <time>2020-02-18T00:01:14Z</time>
      </trkpt>
      <trkpt lat="48.06127" lon="-4.70235">
        <ele>56</ele>
        <time>2020-02-18T00:01:37Z</time>
      </trkpt>
      <trkpt lat="48.0613" lon="-4.70242">
        <ele>55</ele>
        <time>2020-02-18T00:01:44Z</time>
      </trkpt>
      <trkpt lat="48.06131" lon="-4.70249">
        <ele>55</ele>
        <time>2020-02-18T00:01:51Z</time>
      </trkpt>
      <trkpt lat="48.06126" lon="-4.70265">
        <ele>57</ele>
        <time>2020-02-18T00:02:06Z</time>
      </trkpt>
      <trkpt lat="48.0613" lon="-4.70294">
        <ele>58</ele>
        <time>2020-02-18T00:02:33Z</time>
      </trkpt>
      <trkpt lat="48.06136" lon="-4.70318">
        <ele>58</ele>
        <time>2020-02-18T00:02:56Z</time>
      </trkpt>
      <trkpt lat="48.06145" lon="-4.70338">
        <ele>57</ele>
        <time>2020-02-18T00:03:17Z</time>
      </trkpt>
      <trkpt lat="48.06148" lon="-4.70358">
        <ele>58</ele>
        <time>2020-02-18T00:03:35Z</time>
      </trkpt>
      <trkpt lat="48.06159" lon="-4.70388">
        <ele>59</ele>
        <time>2020-02-18T00:04:06Z</time>
      </trkpt>
      <trkpt lat="48.06171" lon="-4.70426">
        <ele>59</ele>
        <time>2020-02-18T00:04:43Z</time>
      </trkpt>
      <trkpt lat="48.06187" lon="-4.70455">
        <ele>53</ele>
        <time>2020-02-18T00:05:17Z</time>
      </trkpt>
      <trkpt lat="48.06187" lon="-4.70462">
        <ele>54</ele>
        <time>2020-02-18T00:05:23Z</time>
      </trkpt>
      <trkpt lat="48.06188" lon="-4.70467">
        <ele>54</ele>
        <time>2020-02-18T00:05:28Z</time>
      </trkpt>
      <trkpt lat="48.06196" lon="-4.70474">
        <ele>51</ele>
        <time>2020-02-18T00:05:40Z</time>
      </trkpt>
      <trkpt lat="48.062" lon="-4.70481">
        <ele>50</ele>
        <time>2020-02-18T00:05:48Z</time>
      </trkpt>
      <trkpt lat="48.06203" lon="-4.70515">
        <ele>51</ele>
        <time>2020-02-18T00:06:19Z</time>
      </trkpt>
      <trkpt lat="48.06207" lon="-4.70527">
        <ele>51</ele>
        <time>2020-02-18T00:06:31Z</time>
      </trkpt>
      <trkpt lat="48.06218" lon="-4.70546">
        <ele>49</ele>
        <time>2020-02-18T00:06:53Z</time>
      </trkpt>
      <trkpt lat="48.06232" lon="-4.70615">
        <ele>52</ele>
        <time>2020-02-18T00:07:58Z</time>
      </trkpt>
      <trkpt lat="48.06236" lon="-4.70643">
        <ele>54</ele>
        <time>2020-02-18T00:08:23Z</time>
      </trkpt>
      <trkpt lat="48.0624" lon="-4.70683">
        <ele>56</ele>
        <time>2020-02-18T00:08:59Z</time>
      </trkpt>
      <trkpt lat="48.06245" lon="-4.70712">
        <ele>56</ele>
        <time>2020-02-18T00:09:26Z</time>
      </trkpt>
      <trkpt lat="48.06249" lon="-4.70762">
        <ele>56</ele>
        <time>2020-02-18T00:10:11Z</time>
      </trkpt>
      <trkpt lat="48.0625" lon="-4.70836">
        <ele>56</ele>
        <time>2020-02-18T00:11:17Z</time>
      </trkpt>
      <trkpt lat="48.06243" lon="-4.70867">
        <ele>56</ele>
        <time>2020-02-18T00:11:46Z</time>
      </trkpt>
      <trkpt lat="48.06245" lon="-4.70931">
        <ele>55</ele>
        <time>2020-02-18T00:12:43Z</time>
      </trkpt>
      <trkpt lat="48.06248" lon="-4.70952">
        <ele>55</ele>
        <time>2020-02-18T00:13:02Z</time>
      </trkpt>
      <trkpt lat="48.06253" lon="-4.70962">
        <ele>54</ele>
        <time>2020-02-18T00:13:13Z</time>
      </trkpt>
      <trkpt lat="48.06257" lon="-4.70973">
        <ele>53</ele>
        <time>2020-02-18T00:13:25Z</time>
      </trkpt>
      <trkpt lat="48.06271" lon="-4.70996">
        <ele>49</ele>
        <time>2020-02-18T00:13:52Z</time>
      </trkpt>
      <trkpt lat="48.06274" lon="-4.71007">
        <ele>49</ele>
        <time>2020-02-18T00:14:03Z</time>
      </trkpt>
      <trkpt lat="48.06286" lon="-4.71032">
        <ele>49</ele>
        <time>2020-02-18T00:14:30Z</time>
      </trkpt>
      <trkpt lat="48.06307" lon="-4.71056">
        <ele>49</ele>
        <time>2020-02-18T00:15:06Z</time>
      </trkpt>
      <trkpt lat="48.06315" lon="-4.7107">
        <ele>50</ele>
        <time>2020-02-18T00:15:22Z</time>
      </trkpt>
      <trkpt lat="48.06321" lon="-4.71072">
        <ele>50</ele>
        <time>2020-02-18T00:15:30Z</time>
      </trkpt>
      <trkpt lat="48.06335" lon="-4.71083">
        <ele>50</ele>
        <time>2020-02-18T00:15:51Z</time>
      </trkpt>
      <trkpt lat="48.06343" lon="-4.711">
        <ele>50</ele>
        <time>2020-02-18T00:16:10Z</time>
      </trkpt>
      <trkpt lat="48.06348" lon="-4.71107">
        <ele>49</ele>
        <time>2020-02-18T00:16:19Z</time>
      </trkpt>
      <trkpt lat="48.06371" lon="-4.71132">
        <ele>46</ele>
        <time>2020-02-18T00:16:57Z</time>
      </trkpt>
      <trkpt lat="48.06378" lon="-4.71145">
        <ele>46</ele>
        <time>2020-02-18T00:17:12Z</time>
      </trkpt>
      <trkpt lat="48.06387" lon="-4.71176">
        <ele>47</ele>
        <time>2020-02-18T00:17:42Z</time>
      </trkpt>
      <trkpt lat="48.0639" lon="-4.71182">
        <ele>46</ele>
        <time>2020-02-18T00:17:49Z</time>
      </trkpt>
      <trkpt lat="48.06378" lon="-4.71213">
        <ele>48</ele>
        <time>2020-02-18T00:18:21Z</time>
      </trkpt>
      <trkpt lat="48.06375" lon="-4.71233">
        <ele>48</ele>
        <time>2020-02-18T00:18:39Z</time>
      </trkpt>
      <trkpt lat="48.06367" lon="-4.71264">
        <ele>49</ele>
        <time>2020-02-18T00:19:09Z</time>
      </trkpt>
      <trkpt lat="48.06354" lon="-4.71353">
        <ele>49</ele>
        <time>2020-02-18T00:20:30Z</time>
      </trkpt>
      <trkpt lat="48.06347" lon="-4.71377">
        <ele>49</ele>
        <time>2020-02-18T00:20:53Z</time>
      </trkpt>
      <trkpt lat="48.06318" lon="-4.71453">
        <ele>45</ele>
        <time>2020-02-18T00:22:11Z</time>
      </trkpt>
      <trkpt lat="48.06321" lon="-4.71458">
        <ele>44</ele>
        <time>2020-02-18T00:22:17Z</time>
      </trkpt>
      <trkpt lat="48.06314" lon="-4.71488">
        <ele>39</ele>
        <time>2020-02-18T00:22:46Z</time>
      </trkpt>
      <trkpt lat="48.06309" lon="-4.71494">
        <ele>38</ele>
        <time>2020-02-18T00:22:54Z</time>
      </trkpt>
      <trkpt lat="48.06303" lon="-4.71496">
        <ele>38</ele>
        <time>2020-02-18T00:23:02Z</time>
      </trkpt>
      <trkpt lat="48.06296" lon="-4.71494">
        <ele>39</ele>
        <time>2020-02-18T00:23:12Z</time>
      </trkpt>
      <trkpt lat="48.06292" lon="-4.71495">
        <ele>39</ele>
        <time>2020-02-18T00:23:17Z</time>
      </trkpt>
      <trkpt lat="48.06287" lon="-4.715">
        <ele>39</ele>
        <time>2020-02-18T00:23:25Z</time>
      </trkpt>
      <trkpt lat="48.06279" lon="-4.71515">
        <ele>35</ele>
        <time>2020-02-18T00:23:42Z</time>
      </trkpt>
      <trkpt lat="48.06269" lon="-4.71523">
        <ele>33</ele>
        <time>2020-02-18T00:23:58Z</time>
      </trkpt>
      <trkpt lat="48.06263" lon="-4.71524">
        <ele>33</ele>
        <time>2020-02-18T00:24:06Z</time>
      </trkpt>
      <trkpt lat="48.06226" lon="-4.71499">
        <ele>36</ele>
        <time>2020-02-18T00:25:00Z</time>
      </trkpt>
      <trkpt lat="48.0619" lon="-4.71468">
        <ele>33</ele>
        <time>2020-02-18T00:25:55Z</time>
      </trkpt>
      <trkpt lat="48.06183" lon="-4.7146">
        <ele>34</ele>
        <time>2020-02-18T00:26:07Z</time>
      </trkpt>
      <trkpt lat="48.06175" lon="-4.71429">
        <ele>39</ele>
        <time>2020-02-18T00:26:37Z</time>
      </trkpt>
      <trkpt lat="48.06167" lon="-4.71424">
        <ele>38</ele>
        <time>2020-02-18T00:26:48Z</time>
      </trkpt>
      <trkpt lat="48.06101" lon="-4.71334">
        <ele>36</ele>
        <time>2020-02-18T00:28:47Z</time>
      </trkpt>
      <trkpt lat="48.06056" lon="-4.71262">
        <ele>37</ele>
        <time>2020-02-18T00:30:15Z</time>
      </trkpt>
      <trkpt lat="48.06045" lon="-4.71239">
        <ele>39</ele>
        <time>2020-02-18T00:30:40Z</time>
      </trkpt>
      <trkpt lat="48.06033" lon="-4.71206">
        <ele>43</ele>
        <time>2020-02-18T00:31:14Z</time>
      </trkpt>
      <trkpt lat="48.06016" lon="-4.71192">
        <ele>44</ele>
        <time>2020-02-18T00:31:40Z</time>
      </trkpt>
      <trkpt lat="48.05996" lon="-4.71181">
        <ele>46</ele>
        <time>2020-02-18T00:32:08Z</time>
      </trkpt>
      <trkpt lat="48.05991" lon="-4.71172">
        <ele>48</ele>
        <time>2020-02-18T00:32:19Z</time>
      </trkpt>
      <trkpt lat="48.05978" lon="-4.71186">
        <ele>45</ele>
        <time>2020-02-18T00:32:40Z</time>
      </trkpt>
      <trkpt lat="48.05966" lon="-4.71188">
        <ele>45</ele>
        <time>2020-02-18T00:32:56Z</time>
      </trkpt>
      <trkpt lat="48.05922" lon="-4.7117">
        <ele>49</ele>
        <time>2020-02-18T00:33:57Z</time>
      </trkpt>
      <trkpt lat="48.05907" lon="-4.71197">
        <ele>46</ele>
        <time>2020-02-18T00:34:28Z</time>
      </trkpt>
      <trkpt lat="48.05897" lon="-4.71231">
        <ele>42</ele>
        <time>2020-02-18T00:35:02Z</time>
      </trkpt>
      <trkpt lat="48.05896" lon="-4.71241">
        <ele>40</ele>
        <time>2020-02-18T00:35:11Z</time>
      </trkpt>
      <trkpt lat="48.05885" lon="-4.71269">
        <ele>35</ele>
        <time>2020-02-18T00:35:40Z</time>
      </trkpt>
      <trkpt lat="48.05876" lon="-4.71282">
        <ele>32</ele>
        <time>2020-02-18T00:35:56Z</time>
      </trkpt>
      <trkpt lat="48.05856" lon="-4.71294">
        <ele>30</ele>
        <time>2020-02-18T00:36:25Z</time>
      </trkpt>
      <trkpt lat="48.05836" lon="-4.71298">
        <ele>32</ele>
        <time>2020-02-18T00:36:52Z</time>
      </trkpt>
      <trkpt lat="48.0582" lon="-4.71304">
        <ele>29</ele>
        <time>2020-02-18T00:37:14Z</time>
      </trkpt>
      <trkpt lat="48.05826" lon="-4.71297">
        <ele>32</ele>
        <time>2020-02-18T00:37:24Z</time>
      </trkpt>
      <trkpt lat="48.05841" lon="-4.71286">
        <ele>35</ele>
        <time>2020-02-18T00:37:46Z</time>
      </trkpt>
      <trkpt lat="48.05829" lon="-4.71279">
        <ele>37</ele>
        <time>2020-02-18T00:38:04Z</time>
      </trkpt>
      <trkpt lat="48.0579" lon="-4.71266">
        <ele>36</ele>
        <time>2020-02-18T00:38:57Z</time>
      </trkpt>
      <trkpt lat="48.0577" lon="-4.71268">
        <ele>33</ele>
        <time>2020-02-18T00:39:24Z</time>
      </trkpt>
      <trkpt lat="48.0575" lon="-4.71262">
        <ele>33</ele>
        <time>2020-02-18T00:39:51Z</time>
      </trkpt>
      <trkpt lat="48.05746" lon="-4.71259">
        <ele>33</ele>
        <time>2020-02-18T00:39:57Z</time>
      </trkpt>
      <trkpt lat="48.05721" lon="-4.7125">
        <ele>30</ele>
        <time>2020-02-18T00:40:31Z</time>
      </trkpt>
      <trkpt lat="48.05702" lon="-4.71246">
        <ele>26</ele>
        <time>2020-02-18T00:40:57Z</time>
      </trkpt>
      <trkpt lat="48.05684" lon="-4.71238">
        <ele>22</ele>
        <time>2020-02-18T00:41:22Z</time>
      </trkpt>
      <trkpt lat="48.0568" lon="-4.71233">
        <ele>22</ele>
        <time>2020-02-18T00:41:29Z</time>
      </trkpt>
      <trkpt lat="48.05676" lon="-4.71211">
        <ele>24</ele>
        <time>2020-02-18T00:41:49Z</time>
      </trkpt>
      <trkpt lat="48.05682" lon="-4.71192">
        <ele>29</ele>
        <time>2020-02-18T00:42:08Z</time>
      </trkpt>
      <trkpt lat="48.05688" lon="-4.71167">
        <ele>34</ele>
        <time>2020-02-18T00:42:32Z</time>
      </trkpt>
      <trkpt lat="48.05685" lon="-4.71158">
        <ele>35</ele>
        <time>2020-02-18T00:42:41Z</time>
      </trkpt>
      <trkpt lat="48.05679" lon="-4.71159">
        <ele>33</ele>
        <time>2020-02-18T00:42:49Z</time>
      </trkpt>
      <trkpt lat="48.05668" lon="-4.7117">
        <ele>29</ele>
        <time>2020-02-18T00:43:06Z</time>
      </trkpt>
      <trkpt lat="48.05655" lon="-4.71147">
        <ele>30</ele>
        <time>2020-02-18T00:43:33Z</time>
      </trkpt>
      <trkpt lat="48.05669" lon="-4.71129">
        <ele>36</ele>
        <time>2020-02-18T00:43:58Z</time>
      </trkpt>
      <trkpt lat="48.05671" lon="-4.71123">
        <ele>37</ele>
        <time>2020-02-18T00:44:04Z</time>
      </trkpt>
      <trkpt lat="48.05668" lon="-4.71117">
        <ele>38</ele>
        <time>2020-02-18T00:44:10Z</time>
      </trkpt>
      <trkpt lat="48.05661" lon="-4.71113">
        <ele>37</ele>
        <time>2020-02-18T00:44:20Z</time>
      </trkpt>
      <trkpt lat="48.05651" lon="-4.71117">
        <ele>34</ele>
        <time>2020-02-18T00:44:34Z</time>
      </trkpt>
      <trkpt lat="48.05637" lon="-4.71124">
        <ele>30</ele>
        <time>2020-02-18T00:44:54Z</time>
      </trkpt>
      <trkpt lat="48.05629" lon="-4.71134">
        <ele>26</ele>
        <time>2020-02-18T00:45:08Z</time>
      </trkpt>
      <trkpt lat="48.05624" lon="-4.71135">
        <ele>25</ele>
        <time>2020-02-18T00:45:15Z</time>
      </trkpt>
      <trkpt lat="48.0562" lon="-4.71131">
        <ele>25</ele>
        <time>2020-02-18T00:45:21Z</time>
      </trkpt>
      <trkpt lat="48.05611" lon="-4.71115">
        <ele>25</ele>
        <time>2020-02-18T00:45:40Z</time>
      </trkpt>
      <trkpt lat="48.05587" lon="-4.71093">
        <ele>24</ele>
        <time>2020-02-18T00:46:17Z</time>
      </trkpt>
      <trkpt lat="48.05571" lon="-4.71071">
        <ele>28</ele>
        <time>2020-02-18T00:46:46Z</time>
      </trkpt>
      <trkpt lat="48.05562" lon="-4.71067">
        <ele>29</ele>
        <time>2020-02-18T00:46:59Z</time>
      </trkpt>
      <trkpt lat="48.05554" lon="-4.7105">
        <ele>31</ele>
        <time>2020-02-18T00:47:17Z</time>
      </trkpt>
      <trkpt lat="48.05551" lon="-4.71035">
        <ele>33</ele>
        <time>2020-02-18T00:47:31Z</time>
      </trkpt>
      <trkpt lat="48.05546" lon="-4.71021">
        <ele>35</ele>
        <time>2020-02-18T00:47:45Z</time>
      </trkpt>
      <trkpt lat="48.05542" lon="-4.71021">
        <ele>35</ele>
        <time>2020-02-18T00:47:51Z</time>
      </trkpt>
      <trkpt lat="48.05538" lon="-4.71026">
        <ele>35</ele>
        <time>2020-02-18T00:47:58Z</time>
      </trkpt>
      <trkpt lat="48.05534" lon="-4.71035">
        <ele>34</ele>
        <time>2020-02-18T00:48:07Z</time>
      </trkpt>
      <trkpt lat="48.05526" lon="-4.71042">
        <ele>33</ele>
        <time>2020-02-18T00:48:20Z</time>
      </trkpt>
      <trkpt lat="48.05525" lon="-4.71047">
        <ele>32</ele>
        <time>2020-02-18T00:48:24Z</time>
      </trkpt>
      <trkpt lat="48.05522" lon="-4.71046">
        <ele>33</ele>
        <time>2020-02-18T00:48:28Z</time>
      </trkpt>
      <trkpt lat="48.05512" lon="-4.71026">
        <ele>35</ele>
        <time>2020-02-18T00:48:51Z</time>
      </trkpt>
      <trkpt lat="48.05502" lon="-4.71076">
        <ele>31</ele>
        <time>2020-02-18T00:49:37Z</time>
      </trkpt>
      <trkpt lat="48.0549" lon="-4.71093">
        <ele>30</ele>
        <time>2020-02-18T00:49:59Z</time>
      </trkpt>
      <trkpt lat="48.05487" lon="-4.71107">
        <ele>28</ele>
        <time>2020-02-18T00:50:12Z</time>
      </trkpt>
      <trkpt lat="48.05481" lon="-4.71116">
        <ele>28</ele>
        <time>2020-02-18T00:50:24Z</time>
      </trkpt>
      <trkpt lat="48.05477" lon="-4.71128">
        <ele>26</ele>
        <time>2020-02-18T00:50:36Z</time>
      </trkpt>
      <trkpt lat="48.05468" lon="-4.71135">
        <ele>27</ele>
        <time>2020-02-18T00:50:49Z</time>
      </trkpt>
      <trkpt lat="48.05463" lon="-4.71136">
        <ele>28</ele>
        <time>2020-02-18T00:50:56Z</time>
      </trkpt>
      <trkpt lat="48.05449" lon="-4.71157">
        <ele>28</ele>
        <time>2020-02-18T00:51:22Z</time>
      </trkpt>
      <trkpt lat="48.05447" lon="-4.71168">
        <ele>28</ele>
        <time>2020-02-18T00:51:33Z</time>
      </trkpt>
      <trkpt lat="48.0543" lon="-4.71205">
        <ele>26</ele>
        <time>2020-02-18T00:52:13Z</time>
      </trkpt>
      <trkpt lat="48.05426" lon="-4.71215">
        <ele>26</ele>
        <time>2020-02-18T00:52:23Z</time>
      </trkpt>
      <trkpt lat="48.05399" lon="-4.71248">
        <ele>22</ele>
        <time>2020-02-18T00:53:10Z</time>
      </trkpt>
      <trkpt lat="48.05375" lon="-4.71306">
        <ele>13</ele>
        <time>2020-02-18T00:54:10Z</time>
      </trkpt>
      <trkpt lat="48.05371" lon="-4.71311">
        <ele>13</ele>
        <time>2020-02-18T00:54:17Z</time>
      </trkpt>
      <trkpt lat="48.05383" lon="-4.71225">
        <ele>22</ele>
        <time>2020-02-18T00:55:36Z</time>
      </trkpt>
      <trkpt lat="48.05397" lon="-4.71161">
        <ele>31</ele>
        <time>2020-02-18T00:56:36Z</time>
      </trkpt>
      <trkpt lat="48.05394" lon="-4.71134">
        <ele>32</ele>
        <time>2020-02-18T00:57:00Z</time>
      </trkpt>
      <trkpt lat="48.05394" lon="-4.71114">
        <ele>34</ele>
        <time>2020-02-18T00:57:18Z</time>
      </trkpt>
      <trkpt lat="48.05399" lon="-4.71078">
        <ele>37</ele>
        <time>2020-02-18T00:57:51Z</time>
      </trkpt>
      <trkpt lat="48.05389" lon="-4.71044">
        <ele>37</ele>
        <time>2020-02-18T00:58:24Z</time>
      </trkpt>
      <trkpt lat="48.05386" lon="-4.71024">
        <ele>37</ele>
        <time>2020-02-18T00:58:42Z</time>
      </trkpt>
      <trkpt lat="48.05385" lon="-4.71008">
        <ele>38</ele>
        <time>2020-02-18T00:58:57Z</time>
      </trkpt>
      <trkpt lat="48.0538" lon="-4.70974">
        <ele>39</ele>
        <time>2020-02-18T00:59:28Z</time>
      </trkpt>
      <trkpt lat="48.05372" lon="-4.70939">
        <ele>41</ele>
        <time>2020-02-18T01:00:01Z</time>
      </trkpt>
      <trkpt lat="48.05313" lon="-4.70879">
        <ele>40</ele>
        <time>2020-02-18T01:01:36Z</time>
      </trkpt>
      <trkpt lat="48.05304" lon="-4.70864">
        <ele>41</ele>
        <time>2020-02-18T01:01:54Z</time>
      </trkpt>
      <trkpt lat="48.053" lon="-4.70851">
        <ele>43</ele>
        <time>2020-02-18T01:02:07Z</time>
      </trkpt>
      <trkpt lat="48.05298" lon="-4.70834">
        <ele>46</ele>
        <time>2020-02-18T01:02:22Z</time>
      </trkpt>
      <trkpt lat="48.05293" lon="-4.70842">
        <ele>44</ele>
        <time>2020-02-18T01:02:32Z</time>
      </trkpt>
      <trkpt lat="48.05287" lon="-4.70871">
        <ele>38</ele>
        <time>2020-02-18T01:02:59Z</time>
      </trkpt>
      <trkpt lat="48.05287" lon="-4.7088">
        <ele>37</ele>
        <time>2020-02-18T01:03:07Z</time>
      </trkpt>
      <trkpt lat="48.05282" lon="-4.70883">
        <ele>36</ele>
        <time>2020-02-18T01:03:14Z</time>
      </trkpt>
      <trkpt lat="48.05278" lon="-4.70879">
        <ele>36</ele>
        <time>2020-02-18T01:03:21Z</time>
      </trkpt>
      <trkpt lat="48.05254" lon="-4.70872">
        <ele>35</ele>
        <time>2020-02-18T01:03:53Z</time>
      </trkpt>
      <trkpt lat="48.05237" lon="-4.70858">
        <ele>39</ele>
        <time>2020-02-18T01:04:19Z</time>
      </trkpt>
      <trkpt lat="48.05222" lon="-4.70854">
        <ele>41</ele>
        <time>2020-02-18T01:04:39Z</time>
      </trkpt>
      <trkpt lat="48.05207" lon="-4.70844">
        <ele>44</ele>
        <time>2020-02-18T01:05:01Z</time>
      </trkpt>
      <trkpt lat="48.05149" lon="-4.70819">
        <ele>46</ele>
        <time>2020-02-18T01:06:22Z</time>
      </trkpt>
      <trkpt lat="48.05095" lon="-4.70781">
        <ele>40</ele>
        <time>2020-02-18T01:07:41Z</time>
      </trkpt>
      <trkpt lat="48.05077" lon="-4.70763">
        <ele>39</ele>
        <time>2020-02-18T01:08:10Z</time>
      </trkpt>
      <trkpt lat="48.0507" lon="-4.7076">
        <ele>36</ele>
        <time>2020-02-18T01:08:20Z</time>
      </trkpt>
      <trkpt lat="48.05062" lon="-4.70742">
        <ele>35</ele>
        <time>2020-02-18T01:08:39Z</time>
      </trkpt>
      <trkpt lat="48.05057" lon="-4.70739">
        <ele>33</ele>
        <time>2020-02-18T01:08:47Z</time>
      </trkpt>
      <trkpt lat="48.05058" lon="-4.70744">
        <ele>33</ele>
        <time>2020-02-18T01:08:51Z</time>
      </trkpt>
      <trkpt lat="48.05057" lon="-4.70739">
        <ele>33</ele>
        <time>2020-02-18T01:08:56Z</time>
      </trkpt>
      <trkpt lat="48.05038" lon="-4.70714">
        <ele>27</ele>
        <time>2020-02-18T01:09:30Z</time>
      </trkpt>
      <trkpt lat="48.05021" lon="-4.7068">
        <ele>23</ele>
        <time>2020-02-18T01:10:07Z</time>
      </trkpt>
      <trkpt lat="48.0501" lon="-4.70662">
        <ele>19</ele>
        <time>2020-02-18T01:10:29Z</time>
      </trkpt>
      <trkpt lat="48.05005" lon="-4.70643">
        <ele>19</ele>
        <time>2020-02-18T01:10:47Z</time>
      </trkpt>
      <trkpt lat="48.04996" lon="-4.7062">
        <ele>19</ele>
        <time>2020-02-18T01:11:11Z</time>
      </trkpt>
      <trkpt lat="48.04974" lon="-4.70604">
        <ele>16</ele>
        <time>2020-02-18T01:11:44Z</time>
      </trkpt>
      <trkpt lat="48.04968" lon="-4.70588">
        <ele>16</ele>
        <time>2020-02-18T01:12:00Z</time>
      </trkpt>
      <trkpt lat="48.04967" lon="-4.70567">
        <ele>17</ele>
        <time>2020-02-18T01:12:19Z</time>
      </trkpt>
      <trkpt lat="48.04968" lon="-4.70558">
        <ele>18</ele>
        <time>2020-02-18T01:12:27Z</time>
      </trkpt>
      <trkpt lat="48.04967" lon="-4.70556">
        <ele>17</ele>
        <time>2020-02-18T01:12:29Z</time>
      </trkpt>
      <trkpt lat="48.04958" lon="-4.70553">
        <ele>16</ele>
        <time>2020-02-18T01:12:42Z</time>
      </trkpt>
      <trkpt lat="48.04958" lon="-4.7055">
        <ele>16</ele>
        <time>2020-02-18T01:12:44Z</time>
      </trkpt>
      <trkpt lat="48.04965" lon="-4.70534">
        <ele>18</ele>
        <time>2020-02-18T01:13:01Z</time>
      </trkpt>
      <trkpt lat="48.04969" lon="-4.70516">
        <ele>19</ele>
        <time>2020-02-18T01:13:18Z</time>
      </trkpt>
      <trkpt lat="48.04961" lon="-4.70478">
        <ele>21</ele>
        <time>2020-02-18T01:13:54Z</time>
      </trkpt>
      <trkpt lat="48.04854" lon="-4.70508">
        <ele>10</ele>
        <time>2020-02-18T01:16:19Z</time>
      </trkpt>
      <trkpt lat="48.04834" lon="-4.70509">
        <ele>9</ele>
        <time>2020-02-18T01:16:46Z</time>
      </trkpt>
      <trkpt lat="48.04801" lon="-4.70503">
        <ele>9</ele>
        <time>2020-02-18T01:17:30Z</time>
      </trkpt>
      <trkpt lat="48.04763" lon="-4.70492">
        <ele>8</ele>
        <time>2020-02-18T01:18:22Z</time>
      </trkpt>
      <trkpt lat="48.04744" lon="-4.70479">
        <ele>8</ele>
        <time>2020-02-18T01:18:50Z</time>
      </trkpt>
      <trkpt lat="48.04724" lon="-4.70447">
        <ele>7</ele>
        <time>2020-02-18T01:19:29Z</time>
      </trkpt>
      <trkpt lat="48.0472" lon="-4.70453">
        <ele>7</ele>
        <time>2020-02-18T01:19:36Z</time>
      </trkpt>
      <trkpt lat="48.04721" lon="-4.70464">
        <ele>7</ele>
        <time>2020-02-18T01:19:46Z</time>
      </trkpt>
      <trkpt lat="48.04638" lon="-4.70484">
        <ele>6</ele>
        <time>2020-02-18T01:21:39Z</time>
      </trkpt>
      <trkpt lat="48.04637" lon="-4.70479">
        <ele>6</ele>
        <time>2020-02-18T01:21:43Z</time>
      </trkpt>
      <trkpt lat="48.0461" lon="-4.70481">
        <ele>6</ele>
        <time>2020-02-18T01:22:19Z</time>
      </trkpt>
      <trkpt lat="48.0457" lon="-4.70477">
        <ele>6</ele>
        <time>2020-02-18T01:23:13Z</time>
      </trkpt>
      <trkpt lat="48.04573" lon="-4.70552">
        <ele>6</ele>
        <time>2020-02-18T01:24:20Z</time>
      </trkpt>
      <trkpt lat="48.04429" lon="-4.70685">
        <ele>26</ele>
        <time>2020-02-18T01:28:06Z</time>
      </trkpt>
      <trkpt lat="48.04359" lon="-4.70743">
        <ele>39</ele>
        <time>2020-02-18T01:29:52Z</time>
      </trkpt>
      <trkpt lat="48.04294" lon="-4.70944">
        <ele>41</ele>
        <time>2020-02-18T01:33:12Z</time>
      </trkpt>
      <trkpt lat="48.04268" lon="-4.70959">
        <ele>50</ele>
        <time>2020-02-18T01:33:49Z</time>
      </trkpt>
      <trkpt lat="48.04254" lon="-4.71107">
        <ele>32</ele>
        <time>2020-02-18T01:36:02Z</time>
      </trkpt>
      <trkpt lat="48.04187" lon="-4.71168">
        <ele>44</ele>
        <time>2020-02-18T01:37:47Z</time>
      </trkpt>
      <trkpt lat="48.04128" lon="-4.71301">
        <ele>36</ele>
        <time>2020-02-18T01:40:09Z</time>
      </trkpt>
      <trkpt lat="48.04125" lon="-4.71676">
        <ele>32</ele>
        <time>2020-02-18T01:45:44Z</time>
      </trkpt>
      <trkpt lat="48.04175" lon="-4.71826">
        <ele>23</ele>
        <time>2020-02-18T01:48:13Z</time>
      </trkpt>
      <trkpt lat="48.04167" lon="-4.7194">
        <ele>18</ele>
        <time>2020-02-18T01:49:56Z</time>
      </trkpt>
      <trkpt lat="48.03982" lon="-4.71964">
        <ele>58</ele>
        <time>2020-02-18T01:54:03Z</time>
      </trkpt>
      <trkpt lat="48.0396" lon="-4.71996">
        <ele>58</ele>
        <time>2020-02-18T01:54:44Z</time>
      </trkpt>
      <trkpt lat="48.04059" lon="-4.72225">
        <ele>40</ele>
        <time>2020-02-18T01:58:48Z</time>
      </trkpt>
      <trkpt lat="48.04002" lon="-4.72455">
        <ele>62</ele>
        <time>2020-02-18T02:02:27Z</time>
      </trkpt>
      <trkpt lat="48.03989" lon="-4.73009">
        <ele>58</ele>
        <time>2020-02-18T02:10:41Z</time>
      </trkpt>
      <trkpt lat="48.0394" lon="-4.73086">
        <ele>65</ele>
        <time>2020-02-18T02:12:16Z</time>
      </trkpt>
      <trkpt lat="48.03931" lon="-4.73159">
        <ele>66</ele>
        <time>2020-02-18T02:13:22Z</time>
      </trkpt>
      <trkpt lat="48.03953" lon="-4.73253">
        <ele>64</ele>
        <time>2020-02-18T02:14:51Z</time>
      </trkpt>
      <trkpt lat="48.03984" lon="-4.733">
        <ele>60</ele>
        <time>2020-02-18T02:15:50Z</time>
      </trkpt>
      <trkpt lat="48.03983" lon="-4.73364">
        <ele>57</ele>
        <time>2020-02-18T02:16:47Z</time>
      </trkpt>
      <trkpt lat="48.03961" lon="-4.73437">
        <ele>51</ele>
        <time>2020-02-18T02:17:59Z</time>
      </trkpt>
      <trkpt lat="48.03979" lon="-4.73567">
        <ele>39</ele>
        <time>2020-02-18T02:19:57Z</time>
      </trkpt>
      <trkpt lat="48.03944" lon="-4.73582">
        <ele>36</ele>
        <time>2020-02-18T02:20:46Z</time>
      </trkpt>
      <trkpt lat="48.03926" lon="-4.73511">
        <ele>42</ele>
        <time>2020-02-18T02:21:53Z</time>
      </trkpt>
      <trkpt lat="48.039" lon="-4.73335">
        <ele>59</ele>
        <time>2020-02-18T02:24:34Z</time>
      </trkpt>
      <trkpt lat="48.03877" lon="-4.73329">
        <ele>54</ele>
        <time>2020-02-18T02:25:05Z</time>
      </trkpt>
      <trkpt lat="48.0382" lon="-4.73237">
        <ele>54</ele>
        <time>2020-02-18T02:26:57Z</time>
      </trkpt>
      <trkpt lat="48.03798" lon="-4.73174">
        <ele>55</ele>
        <time>2020-02-18T02:28:01Z</time>
      </trkpt>
      <trkpt lat="48.03728" lon="-4.7304">
        <ele>54</ele>
        <time>2020-02-18T02:30:32Z</time>
      </trkpt>
      <trkpt lat="48.03674" lon="-4.72974">
        <ele>51</ele>
        <time>2020-02-18T02:32:05Z</time>
      </trkpt>
      <trkpt lat="48.03614" lon="-4.7283">
        <ele>49</ele>
        <time>2020-02-18T02:34:37Z</time>
      </trkpt>
      <trkpt lat="48.03534" lon="-4.72754">
        <ele>45</ele>
        <time>2020-02-18T02:36:43Z</time>
      </trkpt>
      <trkpt lat="48.03367" lon="-4.72651">
        <ele>27</ele>
        <time>2020-02-18T02:40:44Z</time>
      </trkpt>
      <trkpt lat="48.03342" lon="-4.72564">
        <ele>30</ele>
        <time>2020-02-18T02:42:09Z</time>
      </trkpt>
      <trkpt lat="48.03325" lon="-4.72488">
        <ele>25</ele>
        <time>2020-02-18T02:43:20Z</time>
      </trkpt>
      <trkpt lat="48.03351" lon="-4.72418">
        <ele>27</ele>
        <time>2020-02-18T02:44:32Z</time>
      </trkpt>
      <trkpt lat="48.034" lon="-4.72364">
        <ele>35</ele>
        <time>2020-02-18T02:45:53Z</time>
      </trkpt>
      <trkpt lat="48.03446" lon="-4.72219">
        <ele>34</ele>
        <time>2020-02-18T02:48:16Z</time>
      </trkpt>
      <trkpt lat="48.03421" lon="-4.72111">
        <ele>26</ele>
        <time>2020-02-18T02:49:58Z</time>
      </trkpt>
      <trkpt lat="48.03436" lon="-4.72049">
        <ele>32</ele>
        <time>2020-02-18T02:50:57Z</time>
      </trkpt>
      <trkpt lat="48.03399" lon="-4.72011">
        <ele>19</ele>
        <time>2020-02-18T02:51:57Z</time>
      </trkpt>
      <trkpt lat="48.03396" lon="-4.71962">
        <ele>19</ele>
        <time>2020-02-18T02:52:41Z</time>
      </trkpt>
      <trkpt lat="48.03417" lon="-4.71934">
        <ele>24</ele>
        <time>2020-02-18T02:53:18Z</time>
      </trkpt>
      <trkpt lat="48.03392" lon="-4.71792">
        <ele>29</ele>
        <time>2020-02-18T02:55:30Z</time>
      </trkpt>
      <trkpt lat="48.03412" lon="-4.71741">
        <ele>39</ele>
        <time>2020-02-18T02:56:22Z</time>
      </trkpt>
      <trkpt lat="48.03389" lon="-4.71684">
        <ele>32</ele>
        <time>2020-02-18T02:57:22Z</time>
      </trkpt>
      <trkpt lat="48.03347" lon="-4.71646">
        <ele>21</ele>
        <time>2020-02-18T02:58:27Z</time>
      </trkpt>
      <trkpt lat="48.03377" lon="-4.71528">
        <ele>20</ele>
        <time>2020-02-18T03:00:20Z</time>
      </trkpt>
      <trkpt lat="48.03418" lon="-4.71473">
        <ele>25</ele>
        <time>2020-02-18T03:01:33Z</time>
      </trkpt>
      <trkpt lat="48.03397" lon="-4.71362">
        <ele>17</ele>
        <time>2020-02-18T03:03:16Z</time>
      </trkpt>
      <trkpt lat="48.03359" lon="-4.71277">
        <ele>9</ele>
        <time>2020-02-18T03:04:48Z</time>
      </trkpt>
      <trkpt lat="48.03447" lon="-4.71259">
        <ele>14</ele>
        <time>2020-02-18T03:06:46Z</time>
      </trkpt>
      <trkpt lat="48.03456" lon="-4.71241">
        <ele>15</ele>
        <time>2020-02-18T03:07:06Z</time>
      </trkpt>
      <trkpt lat="48.03427" lon="-4.7119">
        <ele>12</ele>
        <time>2020-02-18T03:08:06Z</time>
      </trkpt>
      <trkpt lat="48.03421" lon="-4.71157">
        <ele>12</ele>
        <time>2020-02-18T03:08:36Z</time>
      </trkpt>
      <trkpt lat="48.03358" lon="-4.71094">
        <ele>14</ele>
        <time>2020-02-18T03:10:17Z</time>
      </trkpt>
      <trkpt lat="48.03328" lon="-4.7101">
        <ele>24</ele>
        <time>2020-02-18T03:11:42Z</time>
      </trkpt>
      <trkpt lat="48.0322" lon="-4.70888">
        <ele>25</ele>
        <time>2020-02-18T03:14:43Z</time>
      </trkpt>
      <trkpt lat="48.03224" lon="-4.70767">
        <ele>38</ele>
        <time>2020-02-18T03:16:31Z</time>
      </trkpt>
      <trkpt lat="48.03205" lon="-4.70726">
        <ele>37</ele>
        <time>2020-02-18T03:17:16Z</time>
      </trkpt>
      <trkpt lat="48.032" lon="-4.70685">
        <ele>41</ele>
        <time>2020-02-18T03:17:53Z</time>
      </trkpt>
      <trkpt lat="48.03146" lon="-4.70626">
        <ele>36</ele>
        <time>2020-02-18T03:19:22Z</time>
      </trkpt>
      <trkpt lat="48.03116" lon="-4.70556">
        <ele>37</ele>
        <time>2020-02-18T03:20:36Z</time>
      </trkpt>
      <trkpt lat="48.03084" lon="-4.70496">
        <ele>35</ele>
        <time>2020-02-18T03:21:45Z</time>
      </trkpt>
      <trkpt lat="48.03046" lon="-4.70333">
        <ele>39</ele>
        <time>2020-02-18T03:24:19Z</time>
      </trkpt>
      <trkpt lat="48.03017" lon="-4.70263">
        <ele>40</ele>
        <time>2020-02-18T03:25:32Z</time>
      </trkpt>
      <trkpt lat="48.02935" lon="-4.70131">
        <ele>35</ele>
        <time>2020-02-18T03:28:13Z</time>
      </trkpt>
      <trkpt lat="48.02836" lon="-4.69931">
        <ele>37</ele>
        <time>2020-02-18T03:31:55Z</time>
      </trkpt>
      <trkpt lat="48.02782" lon="-4.69872">
        <ele>33</ele>
        <time>2020-02-18T03:33:24Z</time>
      </trkpt>
      <trkpt lat="48.02724" lon="-4.69851">
        <ele>24</ele>
        <time>2020-02-18T03:34:44Z</time>
      </trkpt>
      <trkpt lat="48.02688" lon="-4.69812">
        <ele>21</ele>
        <time>2020-02-18T03:35:43Z</time>
      </trkpt>
      <trkpt lat="48.02645" lon="-4.69733">
        <ele>15</ele>
        <time>2020-02-18T03:37:14Z</time>
      </trkpt>
      <trkpt lat="48.02654" lon="-4.69714">
        <ele>15</ele>
        <time>2020-02-18T03:37:35Z</time>
      </trkpt>
      <trkpt lat="48.02706" lon="-4.69681">
        <ele>22</ele>
        <time>2020-02-18T03:38:50Z</time>
      </trkpt>
      <trkpt lat="48.02709" lon="-4.69608">
        <ele>12</ele>
        <time>2020-02-18T03:39:56Z</time>
      </trkpt>
      <trkpt lat="48.02722" lon="-4.69581">
        <ele>9</ele>
        <time>2020-02-18T03:40:25Z</time>
      </trkpt>
      <trkpt lat="48.02741" lon="-4.69589">
        <ele>11</ele>
        <time>2020-02-18T03:40:52Z</time>
      </trkpt>
      <trkpt lat="48.02847" lon="-4.69628">
        <ele>28</ele>
        <time>2020-02-18T03:43:17Z</time>
      </trkpt>
      <trkpt lat="48.02889" lon="-4.69623">
        <ele>34</ele>
        <time>2020-02-18T03:44:14Z</time>
      </trkpt>
      <trkpt lat="48.02891" lon="-4.69594">
        <ele>29</ele>
        <time>2020-02-18T03:44:40Z</time>
      </trkpt>
      <trkpt lat="48.0288" lon="-4.69539">
        <ele>24</ele>
        <time>2020-02-18T03:45:31Z</time>
      </trkpt>
      <trkpt lat="48.02877" lon="-4.69405">
        <ele>28</ele>
        <time>2020-02-18T03:47:31Z</time>
      </trkpt>
      <trkpt lat="48.02843" lon="-4.69317">
        <ele>23</ele>
        <time>2020-02-18T03:49:01Z</time>
      </trkpt>
      <trkpt lat="48.02798" lon="-4.69232">
        <ele>22</ele>
        <time>2020-02-18T03:50:38Z</time>
      </trkpt>
      <trkpt lat="48.0279" lon="-4.6916">
        <ele>30</ele>
        <time>2020-02-18T03:51:43Z</time>
      </trkpt>
      <trkpt lat="48.02742" lon="-4.69031">
        <ele>32</ele>
        <time>2020-02-18T03:53:55Z</time>
      </trkpt>
      <trkpt lat="48.02705" lon="-4.68959">
        <ele>24</ele>
        <time>2020-02-18T03:55:16Z</time>
      </trkpt>
      <trkpt lat="48.0273" lon="-4.68872">
        <ele>33</ele>
        <time>2020-02-18T03:56:40Z</time>
      </trkpt>
      <trkpt lat="48.02732" lon="-4.68728">
        <ele>27</ele>
        <time>2020-02-18T03:58:49Z</time>
      </trkpt>
      <trkpt lat="48.02754" lon="-4.6866">
        <ele>29</ele>
        <time>2020-02-18T03:59:56Z</time>
      </trkpt>
      <trkpt lat="48.02751" lon="-4.68632">
        <ele>28</ele>
        <time>2020-02-18T04:00:22Z</time>
      </trkpt>
      <trkpt lat="48.02727" lon="-4.68512">
        <ele>18</ele>
        <time>2020-02-18T04:02:14Z</time>
      </trkpt>
      <trkpt lat="48.0272" lon="-4.68447">
        <ele>14</ele>
        <time>2020-02-18T04:03:12Z</time>
      </trkpt>
      <trkpt lat="48.02722" lon="-4.68396">
        <ele>13</ele>
        <time>2020-02-18T04:03:58Z</time>
      </trkpt>
      <trkpt lat="48.02738" lon="-4.68344">
        <ele>15</ele>
        <time>2020-02-18T04:04:49Z</time>
      </trkpt>
      <trkpt lat="48.02745" lon="-4.68302">
        <ele>19</ele>
        <time>2020-02-18T04:05:28Z</time>
      </trkpt>
      <trkpt lat="48.02734" lon="-4.68212">
        <ele>24</ele>
        <time>2020-02-18T04:06:49Z</time>
      </trkpt>
      <trkpt lat="48.02742" lon="-4.67993">
        <ele>30</ele>
        <time>2020-02-18T04:10:05Z</time>
      </trkpt>
      <trkpt lat="48.02755" lon="-4.67892">
        <ele>26</ele>
        <time>2020-02-18T04:11:37Z</time>
      </trkpt>
      <trkpt lat="48.02726" lon="-4.67707">
        <ele>24</ele>
        <time>2020-02-18T04:14:26Z</time>
      </trkpt>
      <trkpt lat="48.02729" lon="-4.67657">
        <ele>22</ele>
        <time>2020-02-18T04:15:11Z</time>
      </trkpt>
      <trkpt lat="48.02781" lon="-4.67563">
        <ele>26</ele>
        <time>2020-02-18T04:17:00Z</time>
      </trkpt>
      <trkpt lat="48.02799" lon="-4.67581">
        <ele>32</ele>
        <time>2020-02-18T04:17:29Z</time>
      </trkpt>
      <trkpt lat="48.02825" lon="-4.67579">
        <ele>38</ele>
        <time>2020-02-18T04:18:04Z</time>
      </trkpt>
      <trkpt lat="48.02791" lon="-4.67466">
        <ele>26</ele>
        <time>2020-02-18T04:19:54Z</time>
      </trkpt>
      <trkpt lat="48.02783" lon="-4.67414">
        <ele>27</ele>
        <time>2020-02-18T04:20:42Z</time>
      </trkpt>
      <trkpt lat="48.02746" lon="-4.67352">
        <ele>32</ele>
        <time>2020-02-18T04:21:56Z</time>
      </trkpt>
      <trkpt lat="48.02724" lon="-4.67303">
        <ele>31</ele>
        <time>2020-02-18T04:22:49Z</time>
      </trkpt>
      <trkpt lat="48.027" lon="-4.67166">
        <ele>32</ele>
        <time>2020-02-18T04:24:55Z</time>
      </trkpt>
      <trkpt lat="48.02676" lon="-4.67112">
        <ele>27</ele>
        <time>2020-02-18T04:25:53Z</time>
      </trkpt>
      <trkpt lat="48.0264" lon="-4.66954">
        <ele>18</ele>
        <time>2020-02-18T04:28:22Z</time>
      </trkpt>
      <trkpt lat="48.0265" lon="-4.66919">
        <ele>19</ele>
        <time>2020-02-18T04:28:56Z</time>
      </trkpt>
      <trkpt lat="48.02643" lon="-4.66859">
        <ele>19</ele>
        <time>2020-02-18T04:29:50Z</time>
      </trkpt>
      <trkpt lat="48.02615" lon="-4.66726">
        <ele>12</ele>
        <time>2020-02-18T04:31:55Z</time>
      </trkpt>
      <trkpt lat="48.0263" lon="-4.66666">
        <ele>12</ele>
        <time>2020-02-18T04:32:52Z</time>
      </trkpt>
      <trkpt lat="48.02623" lon="-4.6663">
        <ele>10</ele>
        <time>2020-02-18T04:33:25Z</time>
      </trkpt>
      <trkpt lat="48.02665" lon="-4.66574">
        <ele>14</ele>
        <time>2020-02-18T04:34:40Z</time>
      </trkpt>
      <trkpt lat="48.02695" lon="-4.66512">
        <ele>17</ele>
        <time>2020-02-18T04:35:49Z</time>
      </trkpt>
      <trkpt lat="48.02703" lon="-4.6644">
        <ele>15</ele>
        <time>2020-02-18T04:36:54Z</time>
      </trkpt>
      <trkpt lat="48.02707" lon="-4.66357">
        <ele>22</ele>
        <time>2020-02-18T04:38:08Z</time>
      </trkpt>
      <trkpt lat="48.02671" lon="-4.66316">
        <ele>19</ele>
        <time>2020-02-18T04:39:08Z</time>
      </trkpt>
      <trkpt lat="48.02646" lon="-4.66237">
        <ele>27</ele>
        <time>2020-02-18T04:40:26Z</time>
      </trkpt>
      <trkpt lat="48.02623" lon="-4.66201">
        <ele>32</ele>
        <time>2020-02-18T04:41:11Z</time>
      </trkpt>
      <trkpt lat="48.02539" lon="-4.66261">
        <ele>11</ele>
        <time>2020-02-18T04:43:15Z</time>
      </trkpt>
      <trkpt lat="48.02512" lon="-4.66237">
        <ele>12</ele>
        <time>2020-02-18T04:43:57Z</time>
      </trkpt>
      <trkpt lat="48.02477" lon="-4.66152">
        <ele>18</ele>
        <time>2020-02-18T04:45:26Z</time>
      </trkpt>
      <trkpt lat="48.02434" lon="-4.66011">
        <ele>22</ele>
        <time>2020-02-18T04:47:44Z</time>
      </trkpt>
      <trkpt lat="48.02429" lon="-4.65932">
        <ele>25</ele>
        <time>2020-02-18T04:48:55Z</time>
      </trkpt>
      <trkpt lat="48.02397" lon="-4.65861">
        <ele>18</ele>
        <time>2020-02-18T04:50:12Z</time>
      </trkpt>
      <trkpt lat="48.02394" lon="-4.65775">
        <ele>22</ele>
        <time>2020-02-18T04:51:29Z</time>
      </trkpt>
      <trkpt lat="48.02357" lon="-4.65667">
        <ele>22</ele>
        <time>2020-02-18T04:53:17Z</time>
      </trkpt>
      <trkpt lat="48.02308" lon="-4.65638">
        <ele>17</ele>
        <time>2020-02-18T04:54:27Z</time>
      </trkpt>
      <trkpt lat="48.02272" lon="-4.65613">
        <ele>13</ele>
        <time>2020-02-18T04:55:20Z</time>
      </trkpt>
      <trkpt lat="48.02236" lon="-4.65534">
        <ele>13</ele>
        <time>2020-02-18T04:56:45Z</time>
      </trkpt>
      <trkpt lat="48.02226" lon="-4.65449">
        <ele>14</ele>
        <time>2020-02-18T04:58:02Z</time>
      </trkpt>
      <trkpt lat="48.02246" lon="-4.65324">
        <ele>14</ele>
        <time>2020-02-18T04:59:57Z</time>
      </trkpt>
      <trkpt lat="48.02235" lon="-4.65257">
        <ele>12</ele>
        <time>2020-02-18T05:00:59Z</time>
      </trkpt>
      <trkpt lat="48.02217" lon="-4.65094">
        <ele>9</ele>
        <time>2020-02-18T05:03:26Z</time>
      </trkpt>
      <trkpt lat="48.02242" lon="-4.65044">
        <ele>7</ele>
        <time>2020-02-18T05:04:22Z</time>
      </trkpt>
      <trkpt lat="48.02324" lon="-4.65066">
        <ele>16</ele>
        <time>2020-02-18T05:06:13Z</time>
      </trkpt>
      <trkpt lat="48.0237" lon="-4.64997">
        <ele>10</ele>
        <time>2020-02-18T05:07:40Z</time>
      </trkpt>
      <trkpt lat="48.02389" lon="-4.64899">
        <ele>13</ele>
        <time>2020-02-18T05:09:11Z</time>
      </trkpt>
      <trkpt lat="48.02365" lon="-4.64695">
        <ele>17</ele>
        <time>2020-02-18T05:12:16Z</time>
      </trkpt>
      <trkpt lat="48.02387" lon="-4.64542">
        <ele>26</ele>
        <time>2020-02-18T05:14:36Z</time>
      </trkpt>
      <trkpt lat="48.02381" lon="-4.64364">
        <ele>19</ele>
        <time>2020-02-18T05:17:15Z</time>
      </trkpt>
      <trkpt lat="48.02382" lon="-4.64299">
        <ele>12</ele>
        <time>2020-02-18T05:18:13Z</time>
      </trkpt>
      <trkpt lat="48.02503" lon="-4.64187">
        <ele>8</ele>
        <time>2020-02-18T05:21:23Z</time>
      </trkpt>
      <trkpt lat="48.02554" lon="-4.64165">
        <ele>8</ele>
        <time>2020-02-18T05:22:34Z</time>
      </trkpt>
      <trkpt lat="48.02608" lon="-4.64124">
        <ele>7</ele>
        <time>2020-02-18T05:23:54Z</time>
      </trkpt>
      <trkpt lat="48.02632" lon="-4.64126">
        <ele>7</ele>
        <time>2020-02-18T05:24:26Z</time>
      </trkpt>
      <trkpt lat="48.02662" lon="-4.64082">
        <ele>6</ele>
        <time>2020-02-18T05:25:23Z</time>
      </trkpt>
      <trkpt lat="48.02682" lon="-4.64034">
        <ele>6</ele>
        <time>2020-02-18T05:26:13Z</time>
      </trkpt>
      <trkpt lat="48.02688" lon="-4.63995">
        <ele>5</ele>
        <time>2020-02-18T05:26:49Z</time>
      </trkpt>
      <trkpt lat="48.02722" lon="-4.63971">
        <ele>8</ele>
        <time>2020-02-18T05:27:39Z</time>
      </trkpt>
      <trkpt lat="48.02709" lon="-4.63902">
        <ele>5</ele>
        <time>2020-02-18T05:28:43Z</time>
      </trkpt>
      <trkpt lat="48.02718" lon="-4.63859">
        <ele>6</ele>
        <time>2020-02-18T05:29:23Z</time>
      </trkpt>
      <trkpt lat="48.02788" lon="-4.63775">
        <ele>7</ele>
        <time>2020-02-18T05:31:23Z</time>
      </trkpt>
      <trkpt lat="48.02813" lon="-4.63798">
        <ele>11</ele>
        <time>2020-02-18T05:32:02Z</time>
      </trkpt>
      <trkpt lat="48.02826" lon="-4.63791">
        <ele>11</ele>
        <time>2020-02-18T05:32:20Z</time>
      </trkpt>
      <trkpt lat="48.02875" lon="-4.63733">
        <ele>11</ele>
        <time>2020-02-18T05:33:44Z</time>
      </trkpt>
      <trkpt lat="48.02885" lon="-4.63622">
        <ele>8</ele>
        <time>2020-02-18T05:35:24Z</time>
      </trkpt>
      <trkpt lat="48.02904" lon="-4.63559">
        <ele>7</ele>
        <time>2020-02-18T05:36:25Z</time>
      </trkpt>
      <trkpt lat="48.02924" lon="-4.63514">
        <ele>7</ele>
        <time>2020-02-18T05:37:14Z</time>
      </trkpt>
      <trkpt lat="48.02944" lon="-4.63521">
        <ele>9</ele>
        <time>2020-02-18T05:37:41Z</time>
      </trkpt>
      <trkpt lat="48.02958" lon="-4.63407">
        <ele>6</ele>
        <time>2020-02-18T05:39:25Z</time>
      </trkpt>
      <trkpt lat="48.02957" lon="-4.63304">
        <ele>3</ele>
        <time>2020-02-18T05:40:56Z</time>
      </trkpt>
      <trkpt lat="48.02925" lon="-4.63196">
        <ele>4</ele>
        <time>2020-02-18T05:42:42Z</time>
      </trkpt>
      <trkpt lat="48.02879" lon="-4.63118">
        <ele>5</ele>
        <time>2020-02-18T05:44:15Z</time>
      </trkpt>
      <trkpt lat="48.0286" lon="-4.63085">
        <ele>6</ele>
        <time>2020-02-18T05:44:54Z</time>
      </trkpt>
      <trkpt lat="48.02836" lon="-4.63104">
        <ele>5</ele>
        <time>2020-02-18T05:45:30Z</time>
      </trkpt>
      <trkpt lat="48.02776" lon="-4.63086">
        <ele>3</ele>
        <time>2020-02-18T05:46:51Z</time>
      </trkpt>
      <trkpt lat="48.02735" lon="-4.62993">
        <ele>6</ele>
        <time>2020-02-18T05:48:31Z</time>
      </trkpt>
      <trkpt lat="48.02703" lon="-4.62984">
        <ele>5</ele>
        <time>2020-02-18T05:49:14Z</time>
      </trkpt>
      <trkpt lat="48.0266" lon="-4.63004">
        <ele>3</ele>
        <time>2020-02-18T05:50:14Z</time>
      </trkpt>
      <trkpt lat="48.02636" lon="-4.62957">
        <ele>4</ele>
        <time>2020-02-18T05:51:07Z</time>
      </trkpt>
      <trkpt lat="48.02615" lon="-4.62915">
        <ele>6</ele>
        <time>2020-02-18T05:51:54Z</time>
      </trkpt>
      <trkpt lat="48.02581" lon="-4.62868">
        <ele>7</ele>
        <time>2020-02-18T05:52:56Z</time>
      </trkpt>
      <trkpt lat="48.02519" lon="-4.62831">
        <ele>8</ele>
        <time>2020-02-18T05:54:25Z</time>
      </trkpt>
      <trkpt lat="48.02465" lon="-4.62861">
        <ele>4</ele>
        <time>2020-02-18T05:55:42Z</time>
      </trkpt>
      <trkpt lat="48.02375" lon="-4.6275">
        <ele>9</ele>
        <time>2020-02-18T05:58:17Z</time>
      </trkpt>
      <trkpt lat="48.02307" lon="-4.62783">
        <ele>6</ele>
        <time>2020-02-18T05:59:53Z</time>
      </trkpt>
      <trkpt lat="48.02295" lon="-4.62806">
        <ele>5</ele>
        <time>2020-02-18T06:00:19Z</time>
      </trkpt>
      <trkpt lat="48.02272" lon="-4.62794">
        <ele>7</ele>
        <time>2020-02-18T06:00:51Z</time>
      </trkpt>
      <trkpt lat="48.02223" lon="-4.6275">
        <ele>10</ele>
        <time>2020-02-18T06:02:08Z</time>
      </trkpt>
      <trkpt lat="48.0221" lon="-4.6272">
        <ele>11</ele>
        <time>2020-02-18T06:02:40Z</time>
      </trkpt>
      <trkpt lat="48.0218" lon="-4.62675">
        <ele>12</ele>
        <time>2020-02-18T06:03:36Z</time>
      </trkpt>
      <trkpt lat="48.02148" lon="-4.62642">
        <ele>9</ele>
        <time>2020-02-18T06:04:28Z</time>
      </trkpt>
      <trkpt lat="48.02162" lon="-4.62581">
        <ele>10</ele>
        <time>2020-02-18T06:05:26Z</time>
      </trkpt>
      <trkpt lat="48.02197" lon="-4.62542">
        <ele>16</ele>
        <time>2020-02-18T06:06:24Z</time>
      </trkpt>
      <trkpt lat="48.02193" lon="-4.62501">
        <ele>16</ele>
        <time>2020-02-18T06:07:01Z</time>
      </trkpt>
      <trkpt lat="48.0215" lon="-4.62501">
        <ele>11</ele>
        <time>2020-02-18T06:07:58Z</time>
      </trkpt>
      <trkpt lat="48.02121" lon="-4.62472">
        <ele>8</ele>
        <time>2020-02-18T06:08:45Z</time>
      </trkpt>
      <trkpt lat="48.02103" lon="-4.62366">
        <ele>8</ele>
        <time>2020-02-18T06:10:22Z</time>
      </trkpt>
      <trkpt lat="48.02119" lon="-4.62344">
        <ele>11</ele>
        <time>2020-02-18T06:10:51Z</time>
      </trkpt>
      <trkpt lat="48.02113" lon="-4.6231">
        <ele>11</ele>
        <time>2020-02-18T06:11:23Z</time>
      </trkpt>
      <trkpt lat="48.02046" lon="-4.6223">
        <ele>9</ele>
        <time>2020-02-18T06:13:17Z</time>
      </trkpt>
      <trkpt lat="48.02009" lon="-4.62217">
        <ele>8</ele>
        <time>2020-02-18T06:14:08Z</time>
      </trkpt>
      <trkpt lat="48.01946" lon="-4.62171">
        <ele>11</ele>
        <time>2020-02-18T06:15:42Z</time>
      </trkpt>
      <trkpt lat="48.01929" lon="-4.62171">
        <ele>11</ele>
        <time>2020-02-18T06:16:04Z</time>
      </trkpt>
      <trkpt lat="48.01912" lon="-4.62202">
        <ele>8</ele>
        <time>2020-02-18T06:16:40Z</time>
      </trkpt>
      <trkpt lat="48.01888" lon="-4.62203">
        <ele>8</ele>
        <time>2020-02-18T06:17:12Z</time>
      </trkpt>
      <trkpt lat="48.01867" lon="-4.62214">
        <ele>7</ele>
        <time>2020-02-18T06:17:42Z</time>
      </trkpt>
      <trkpt lat="48.0184" lon="-4.62258">
        <ele>5</ele>
        <time>2020-02-18T06:18:35Z</time>
      </trkpt>
      <trkpt lat="48.01819" lon="-4.62256">
        <ele>5</ele>
        <time>2020-02-18T06:19:03Z</time>
      </trkpt>
      <trkpt lat="48.01799" lon="-4.62114">
        <ele>6</ele>
        <time>2020-02-18T06:21:13Z</time>
      </trkpt>
      <trkpt lat="48.01824" lon="-4.62085">
        <ele>7</ele>
        <time>2020-02-18T06:21:55Z</time>
      </trkpt>
      <trkpt lat="48.01859" lon="-4.6199">
        <ele>11</ele>
        <time>2020-02-18T06:23:32Z</time>
      </trkpt>
      <trkpt lat="48.01849" lon="-4.61934">
        <ele>11</ele>
        <time>2020-02-18T06:24:23Z</time>
      </trkpt>
      <trkpt lat="48.01797" lon="-4.61814">
        <ele>15</ele>
        <time>2020-02-18T06:26:31Z</time>
      </trkpt>
      <trkpt lat="48.01739" lon="-4.61735">
        <ele>14</ele>
        <time>2020-02-18T06:28:16Z</time>
      </trkpt>
      <trkpt lat="48.01721" lon="-4.61667">
        <ele>15</ele>
        <time>2020-02-18T06:29:21Z</time>
      </trkpt>
      <trkpt lat="48.01715" lon="-4.61478">
        <ele>13</ele>
        <time>2020-02-18T06:32:10Z</time>
      </trkpt>
      <trkpt lat="48.01731" lon="-4.61412">
        <ele>13</ele>
        <time>2020-02-18T06:33:13Z</time>
      </trkpt>
      <trkpt lat="48.01742" lon="-4.61362">
        <ele>11</ele>
        <time>2020-02-18T06:34:00Z</time>
      </trkpt>
      <trkpt lat="48.01762" lon="-4.61317">
        <ele>9</ele>
        <time>2020-02-18T06:34:48Z</time>
      </trkpt>
      <trkpt lat="48.01776" lon="-4.6133">
        <ele>12</ele>
        <time>2020-02-18T06:35:10Z</time>
      </trkpt>
      <trkpt lat="48.01799" lon="-4.61308">
        <ele>14</ele>
        <time>2020-02-18T06:35:46Z</time>
      </trkpt>
      <trkpt lat="48.01803" lon="-4.61282">
        <ele>13</ele>
        <time>2020-02-18T06:36:10Z</time>
      </trkpt>
      <trkpt lat="48.01836" lon="-4.61227">
        <ele>14</ele>
        <time>2020-02-18T06:37:16Z</time>
      </trkpt>
      <trkpt lat="48.0188" lon="-4.61192">
        <ele>18</ele>
        <time>2020-02-18T06:38:23Z</time>
      </trkpt>
      <trkpt lat="48.01878" lon="-4.61166">
        <ele>16</ele>
        <time>2020-02-18T06:38:46Z</time>
      </trkpt>
      <trkpt lat="48.01856" lon="-4.61031">
        <ele>13</ele>
        <time>2020-02-18T06:40:50Z</time>
      </trkpt>
      <trkpt lat="48.0179" lon="-4.60993">
        <ele>10</ele>
        <time>2020-02-18T06:42:24Z</time>
      </trkpt>
      <trkpt lat="48.01752" lon="-4.60952">
        <ele>11</ele>
        <time>2020-02-18T06:43:27Z</time>
      </trkpt>
      <trkpt lat="48.01747" lon="-4.60929">
        <ele>12</ele>
        <time>2020-02-18T06:43:48Z</time>
      </trkpt>
      <trkpt lat="48.01717" lon="-4.60919">
        <ele>9</ele>
        <time>2020-02-18T06:44:29Z</time>
      </trkpt>
      <trkpt lat="48.01694" lon="-4.60872">
        <ele>8</ele>
        <time>2020-02-18T06:45:21Z</time>
      </trkpt>
      <trkpt lat="48.01656" lon="-4.60799">
        <ele>8</ele>
        <time>2020-02-18T06:46:44Z</time>
      </trkpt>
      <trkpt lat="48.01614" lon="-4.60636">
        <ele>8</ele>
        <time>2020-02-18T06:49:20Z</time>
      </trkpt>
      <trkpt lat="48.01599" lon="-4.6057">
        <ele>8</ele>
        <time>2020-02-18T06:50:22Z</time>
      </trkpt>
      <trkpt lat="48.01588" lon="-4.60517">
        <ele>8</ele>
        <time>2020-02-18T06:51:12Z</time>
      </trkpt>
      <trkpt lat="48.01579" lon="-4.60468">
        <ele>9</ele>
        <time>2020-02-18T06:51:57Z</time>
      </trkpt>
      <trkpt lat="48.01576" lon="-4.60423">
        <ele>11</ele>
        <time>2020-02-18T06:52:37Z</time>
      </trkpt>
      <trkpt lat="48.01554" lon="-4.60359">
        <ele>10</ele>
        <time>2020-02-18T06:53:42Z</time>
      </trkpt>
      <trkpt lat="48.01553" lon="-4.60251">
        <ele>9</ele>
        <time>2020-02-18T06:55:18Z</time>
      </trkpt>
      <trkpt lat="48.01536" lon="-4.60163">
        <ele>5</ele>
        <time>2020-02-18T06:56:40Z</time>
      </trkpt>
      <trkpt lat="48.01553" lon="-4.60096">
        <ele>7</ele>
        <time>2020-02-18T06:57:44Z</time>
      </trkpt>
      <trkpt lat="48.01551" lon="-4.59906">
        <ele>7</ele>
        <time>2020-02-18T07:00:33Z</time>
      </trkpt>
      <trkpt lat="48.01541" lon="-4.59871">
        <ele>6</ele>
        <time>2020-02-18T07:01:07Z</time>
      </trkpt>
      <trkpt lat="48.01564" lon="-4.59803">
        <ele>7</ele>
        <time>2020-02-18T07:02:15Z</time>
      </trkpt>
      <trkpt lat="48.01553" lon="-4.59731">
        <ele>7</ele>
        <time>2020-02-18T07:03:21Z</time>
      </trkpt>
      <trkpt lat="48.01544" lon="-4.59702">
        <ele>8</ele>
        <time>2020-02-18T07:03:50Z</time>
      </trkpt>
      <trkpt lat="48.01521" lon="-4.59684">
        <ele>8</ele>
        <time>2020-02-18T07:04:25Z</time>
      </trkpt>
      <trkpt lat="48.0145" lon="-4.59624">
        <ele>6</ele>
        <time>2020-02-18T07:06:13Z</time>
      </trkpt>
      <trkpt lat="48.01408" lon="-4.59485">
        <ele>10</ele>
        <time>2020-02-18T07:08:30Z</time>
      </trkpt>
      <trkpt lat="48.01364" lon="-4.59442">
        <ele>9</ele>
        <time>2020-02-18T07:09:40Z</time>
      </trkpt>
      <trkpt lat="48.01289" lon="-4.59279">
        <ele>10</ele>
        <time>2020-02-18T07:12:36Z</time>
      </trkpt>
      <trkpt lat="48.01313" lon="-4.59212">
        <ele>12</ele>
        <time>2020-02-18T07:13:44Z</time>
      </trkpt>
      <trkpt lat="48.0123" lon="-4.59228">
        <ele>9</ele>
        <time>2020-02-18T07:15:36Z</time>
      </trkpt>
      <trkpt lat="48.01118" lon="-4.59132">
        <ele>9</ele>
        <time>2020-02-18T07:18:28Z</time>
      </trkpt>
      <trkpt lat="48.0108" lon="-4.59087">
        <ele>10</ele>
        <time>2020-02-18T07:19:33Z</time>
      </trkpt>
      <trkpt lat="48.01008" lon="-4.59092">
        <ele>6</ele>
        <time>2020-02-18T07:21:09Z</time>
      </trkpt>
      <trkpt lat="48.00962" lon="-4.5915">
        <ele>5</ele>
        <time>2020-02-18T07:22:29Z</time>
      </trkpt>
      <trkpt lat="48.00912" lon="-4.59168">
        <ele>5</ele>
        <time>2020-02-18T07:23:38Z</time>
      </trkpt>
      <trkpt lat="48.00839" lon="-4.59205">
        <ele>5</ele>
        <time>2020-02-18T07:25:21Z</time>
      </trkpt>
      <trkpt lat="48.00763" lon="-4.59226">
        <ele>5</ele>
        <time>2020-02-18T07:27:04Z</time>
      </trkpt>
      <trkpt lat="48.00698" lon="-4.59202">
        <ele>4</ele>
        <time>2020-02-18T07:28:33Z</time>
      </trkpt>
      <trkpt lat="48.00674" lon="-4.59151">
        <ele>4</ele>
        <time>2020-02-18T07:29:29Z</time>
      </trkpt>
      <trkpt lat="48.00699" lon="-4.59102">
        <ele>6</ele>
        <time>2020-02-18T07:30:24Z</time>
      </trkpt>
      <trkpt lat="48.00722" lon="-4.58984">
        <ele>5</ele>
        <time>2020-02-18T07:32:14Z</time>
      </trkpt>
      <trkpt lat="48.00746" lon="-4.58898">
        <ele>5</ele>
        <time>2020-02-18T07:33:37Z</time>
      </trkpt>
      <trkpt lat="48.00748" lon="-4.5879">
        <ele>10</ele>
        <time>2020-02-18T07:35:13Z</time>
      </trkpt>
      <trkpt lat="48.00717" lon="-4.58759">
        <ele>10</ele>
        <time>2020-02-18T07:36:03Z</time>
      </trkpt>
      <trkpt lat="48.00683" lon="-4.58703">
        <ele>11</ele>
        <time>2020-02-18T07:37:11Z</time>
      </trkpt>
      <trkpt lat="48.00687" lon="-4.58664">
        <ele>15</ele>
        <time>2020-02-18T07:37:46Z</time>
      </trkpt>
      <trkpt lat="48.00659" lon="-4.58614">
        <ele>15</ele>
        <time>2020-02-18T07:38:44Z</time>
      </trkpt>
      <trkpt lat="48.00612" lon="-4.58574">
        <ele>11</ele>
        <time>2020-02-18T07:39:56Z</time>
      </trkpt>
      <trkpt lat="48.00567" lon="-4.58521">
        <ele>8</ele>
        <time>2020-02-18T07:41:13Z</time>
      </trkpt>
      <trkpt lat="48.00529" lon="-4.58434">
        <ele>7</ele>
        <time>2020-02-18T07:42:45Z</time>
      </trkpt>
      <trkpt lat="48.00505" lon="-4.58366">
        <ele>5</ele>
        <time>2020-02-18T07:43:54Z</time>
      </trkpt>
      <trkpt lat="48.00514" lon="-4.58232">
        <ele>10</ele>
        <time>2020-02-18T07:45:54Z</time>
      </trkpt>
      <trkpt lat="48.00495" lon="-4.58138">
        <ele>11</ele>
        <time>2020-02-18T07:47:22Z</time>
      </trkpt>
      <trkpt lat="48.00436" lon="-4.58072">
        <ele>7</ele>
        <time>2020-02-18T07:49:00Z</time>
      </trkpt>
      <trkpt lat="48.00409" lon="-4.58019">
        <ele>6</ele>
        <time>2020-02-18T07:50:00Z</time>
      </trkpt>
      <trkpt lat="48.00414" lon="-4.57955">
        <ele>5</ele>
        <time>2020-02-18T07:50:57Z</time>
      </trkpt>
      <trkpt lat="48.00452" lon="-4.57848">
        <ele>7</ele>
        <time>2020-02-18T07:52:46Z</time>
      </trkpt>
      <trkpt lat="48.00494" lon="-4.57726">
        <ele>10</ele>
        <time>2020-02-18T07:54:48Z</time>
      </trkpt>
      <trkpt lat="48.00484" lon="-4.57647">
        <ele>11</ele>
        <time>2020-02-18T07:56:00Z</time>
      </trkpt>
      <trkpt lat="48.00433" lon="-4.57598">
        <ele>8</ele>
        <time>2020-02-18T07:57:21Z</time>
      </trkpt>
      <trkpt lat="48.0039" lon="-4.57497">
        <ele>10</ele>
        <time>2020-02-18T07:59:08Z</time>
      </trkpt>
      <trkpt lat="48.00367" lon="-4.57388">
        <ele>10</ele>
        <time>2020-02-18T08:00:50Z</time>
      </trkpt>
      <trkpt lat="48.00355" lon="-4.57249">
        <ele>8</ele>
        <time>2020-02-18T08:02:55Z</time>
      </trkpt>
      <trkpt lat="48.00039" lon="-4.5687">
        <ele>4</ele>
        <time>2020-02-18T08:11:55Z</time>
      </trkpt>
      <trkpt lat="48.00041" lon="-4.5678">
        <ele>5</ele>
        <time>2020-02-18T08:13:16Z</time>
      </trkpt>
      <trkpt lat="47.99998" lon="-4.566">
        <ele>3</ele>
        <time>2020-02-18T08:16:07Z</time>
      </trkpt>
      <trkpt lat="48.00008" lon="-4.56511">
        <ele>3</ele>
        <time>2020-02-18T08:17:27Z</time>
      </trkpt>
      <trkpt lat="48.00048" lon="-4.56455">
        <ele>3</ele>
        <time>2020-02-18T08:18:40Z</time>
      </trkpt>
      <trkpt lat="48.00244" lon="-4.5622">
        <ele>5</ele>
        <time>2020-02-18T08:24:16Z</time>
      </trkpt>
      <trkpt lat="48.00257" lon="-4.56167">
        <ele>4</ele>
        <time>2020-02-18T08:25:06Z</time>
      </trkpt>
      <trkpt lat="48.00262" lon="-4.56017">
        <ele>3</ele>
        <time>2020-02-18T08:27:20Z</time>
      </trkpt>
      <trkpt lat="48.00353" lon="-4.55941">
        <ele>5</ele>
        <time>2020-02-18T08:29:39Z</time>
      </trkpt>
      <trkpt lat="48.00395" lon="-4.55869">
        <ele>5</ele>
        <time>2020-02-18T08:31:05Z</time>
      </trkpt>
      <trkpt lat="48.00413" lon="-4.55795">
        <ele>3</ele>
        <time>2020-02-18T08:32:15Z</time>
      </trkpt>
      <trkpt lat="48.00482" lon="-4.55762">
        <ele>6</ele>
        <time>2020-02-18T08:33:51Z</time>
      </trkpt>
      <trkpt lat="48.00527" lon="-4.55663">
        <ele>2</ele>
        <time>2020-02-18T08:35:38Z</time>
      </trkpt>
      <trkpt lat="48.00625" lon="-4.55658">
        <ele>2</ele>
        <time>2020-02-18T08:37:49Z</time>
      </trkpt>
      <trkpt lat="48.00629" lon="-4.55735">
        <ele>5</ele>
        <time>2020-02-18T08:38:58Z</time>
      </trkpt>
      <trkpt lat="48.00752" lon="-4.55743">
        <ele>6</ele>
        <time>2020-02-18T08:41:42Z</time>
      </trkpt>
      <trkpt lat="48.00816" lon="-4.55661">
        <ele>6</ele>
        <time>2020-02-18T08:43:35Z</time>
      </trkpt>
      <trkpt lat="48.0086" lon="-4.55619">
        <ele>5</ele>
        <time>2020-02-18T08:44:45Z</time>
      </trkpt>
      <trkpt lat="48.00885" lon="-4.55595">
        <ele>5</ele>
        <time>2020-02-18T08:45:24Z</time>
      </trkpt>
      <trkpt lat="48.00909" lon="-4.55619">
        <ele>7</ele>
        <time>2020-02-18T08:46:03Z</time>
      </trkpt>
      <trkpt lat="48.00934" lon="-4.55637">
        <ele>9</ele>
        <time>2020-02-18T08:46:40Z</time>
      </trkpt>
      <trkpt lat="48.0097" lon="-4.55621">
        <ele>9</ele>
        <time>2020-02-18T08:47:30Z</time>
      </trkpt>
      <trkpt lat="48.01029" lon="-4.55538">
        <ele>12</ele>
        <time>2020-02-18T08:49:18Z</time>
      </trkpt>
      <trkpt lat="48.01036" lon="-4.55438">
        <ele>9</ele>
        <time>2020-02-18T08:50:48Z</time>
      </trkpt>
      <trkpt lat="48.01084" lon="-4.5528">
        <ele>12</ele>
        <time>2020-02-18T08:53:23Z</time>
      </trkpt>
      <trkpt lat="48.01119" lon="-4.55242">
        <ele>15</ele>
        <time>2020-02-18T08:54:20Z</time>
      </trkpt>
      <trkpt lat="48.01172" lon="-4.55192">
        <ele>16</ele>
        <time>2020-02-18T08:55:44Z</time>
      </trkpt>
      <trkpt lat="48.01185" lon="-4.55075">
        <ele>9</ele>
        <time>2020-02-18T08:57:30Z</time>
      </trkpt>
      <trkpt lat="48.01236" lon="-4.54896">
        <ele>8</ele>
        <time>2020-02-18T09:00:24Z</time>
      </trkpt>
      <trkpt lat="48.01242" lon="-4.54725">
        <ele>13</ele>
        <time>2020-02-18T09:02:57Z</time>
      </trkpt>
      <trkpt lat="48.01191" lon="-4.54349">
        <ele>14</ele>
        <time>2020-02-18T09:08:39Z</time>
      </trkpt>
      <trkpt lat="48.01173" lon="-4.54278">
        <ele>13</ele>
        <time>2020-02-18T09:09:47Z</time>
      </trkpt>
      <trkpt lat="48.0116" lon="-4.54276">
        <ele>12</ele>
        <time>2020-02-18T09:10:04Z</time>
      </trkpt>
      <trkpt lat="48.01148" lon="-4.54225">
        <ele>9</ele>
        <time>2020-02-18T09:10:53Z</time>
      </trkpt>
      <trkpt lat="48.01123" lon="-4.54195">
        <ele>5</ele>
        <time>2020-02-18T09:11:35Z</time>
      </trkpt>
      <trkpt lat="48.01124" lon="-4.54178">
        <ele>4</ele>
        <time>2020-02-18T09:11:51Z</time>
      </trkpt>
      <trkpt lat="48.01107" lon="-4.54137">
        <ele>3</ele>
        <time>2020-02-18T09:12:34Z</time>
      </trkpt>
      <trkpt lat="48.01106" lon="-4.54082">
        <ele>2</ele>
        <time>2020-02-18T09:13:23Z</time>
      </trkpt>
      <trkpt lat="48.01274" lon="-4.54077">
        <ele>4</ele>
        <time>2020-02-18T09:17:07Z</time>
      </trkpt>
      <trkpt lat="48.01381" lon="-4.53986">
        <ele>9</ele>
        <time>2020-02-18T09:19:51Z</time>
      </trkpt>
      <trkpt lat="48.01583" lon="-4.53837">
        <ele>3</ele>
        <time>2020-02-18T09:24:52Z</time>
      </trkpt>
      <trkpt lat="48.01678" lon="-4.53755">
        <ele>3</ele>
        <time>2020-02-18T09:27:18Z</time>
      </trkpt>
      <trkpt lat="48.01704" lon="-4.53572">
        <ele>1</ele>
        <time>2020-02-18T09:30:05Z</time>
      </trkpt>
      <trkpt lat="48.01745" lon="-4.53587">
        <ele>3</ele>
        <time>2020-02-18T09:31:02Z</time>
      </trkpt>
      <trkpt lat="48.01763" lon="-4.53568">
        <ele>4</ele>
        <time>2020-02-18T09:31:31Z</time>
      </trkpt>
      <trkpt lat="48.01785" lon="-4.53573">
        <ele>7</ele>
        <time>2020-02-18T09:32:01Z</time>
      </trkpt>
      <trkpt lat="48.01825" lon="-4.53531">
        <ele>8</ele>
        <time>2020-02-18T09:33:06Z</time>
      </trkpt>
      <trkpt lat="48.01837" lon="-4.53536">
        <ele>9</ele>
        <time>2020-02-18T09:33:22Z</time>
      </trkpt>
      <trkpt lat="48.01905" lon="-4.53509">
        <ele>5</ele>
        <time>2020-02-18T09:34:56Z</time>
      </trkpt>
      <trkpt lat="48.02254" lon="-4.53876">
        <ele>6</ele>
        <time>2020-02-18T09:44:26Z</time>
      </trkpt>
      <trkpt lat="48.02325" lon="-4.53862">
        <ele>5</ele>
        <time>2020-02-18T09:46:01Z</time>
      </trkpt>
      <trkpt lat="48.0247" lon="-4.53578">
        <ele>2</ele>
        <time>2020-02-18T09:51:20Z</time>
      </trkpt>
      <trkpt lat="48.02479" lon="-4.53535">
        <ele>1</ele>
        <time>2020-02-18T09:52:00Z</time>
      </trkpt>
      <trkpt lat="48.02544" lon="-4.536">
        <ele>3</ele>
        <time>2020-02-18T09:53:45Z</time>
      </trkpt>
      <trkpt lat="48.0259" lon="-4.5361">
        <ele>3</ele>
        <time>2020-02-18T09:54:47Z</time>
      </trkpt>
      <trkpt lat="48.02632" lon="-4.53635">
        <ele>4</ele>
        <time>2020-02-18T09:55:47Z</time>
      </trkpt>
      <trkpt lat="48.02666" lon="-4.53639">
        <ele>4</ele>
        <time>2020-02-18T09:56:33Z</time>
      </trkpt>
      <trkpt lat="48.02714" lon="-4.53603">
        <ele>3</ele>
        <time>2020-02-18T09:57:44Z</time>
      </trkpt>
      <trkpt lat="48.02745" lon="-4.53611">
        <ele>3</ele>
        <time>2020-02-18T09:58:26Z</time>
      </trkpt>
      <trkpt lat="48.02755" lon="-4.53634">
        <ele>4</ele>
        <time>2020-02-18T09:58:51Z</time>
      </trkpt>
      <trkpt lat="48.0278" lon="-4.53626">
        <ele>4</ele>
        <time>2020-02-18T09:59:25Z</time>
      </trkpt>
      <trkpt lat="48.02801" lon="-4.53583">
        <ele>4</ele>
        <time>2020-02-18T10:00:12Z</time>
      </trkpt>
      <trkpt lat="48.02828" lon="-4.53607">
        <ele>5</ele>
        <time>2020-02-18T10:00:54Z</time>
      </trkpt>
      <trkpt lat="48.02848" lon="-4.53556">
        <ele>6</ele>
        <time>2020-02-18T10:01:47Z</time>
      </trkpt>
      <trkpt lat="48.02892" lon="-4.53499">
        <ele>8</ele>
        <time>2020-02-18T10:03:05Z</time>
      </trkpt>
      <trkpt lat="48.02937" lon="-4.53475">
        <ele>8</ele>
        <time>2020-02-18T10:04:09Z</time>
      </trkpt>
      <trkpt lat="48.02985" lon="-4.53476">
        <ele>11</ele>
        <time>2020-02-18T10:05:13Z</time>
      </trkpt>
      <trkpt lat="48.0307" lon="-4.53513">
        <ele>12</ele>
        <time>2020-02-18T10:07:11Z</time>
      </trkpt>
      <trkpt lat="48.0311" lon="-4.53537">
        <ele>15</ele>
        <time>2020-02-18T10:08:08Z</time>
      </trkpt>
      <trkpt lat="48.03162" lon="-4.53551">
        <ele>15</ele>
        <time>2020-02-18T10:09:19Z</time>
      </trkpt>
      <trkpt lat="48.03228" lon="-4.53522">
        <ele>14</ele>
        <time>2020-02-18T10:10:51Z</time>
      </trkpt>
      <trkpt lat="48.03299" lon="-4.53469">
        <ele>15</ele>
        <time>2020-02-18T10:12:36Z</time>
      </trkpt>
      <trkpt lat="48.03358" lon="-4.53413">
        <ele>7</ele>
        <time>2020-02-18T10:14:10Z</time>
      </trkpt>
      <trkpt lat="48.03424" lon="-4.53395">
        <ele>10</ele>
        <time>2020-02-18T10:15:39Z</time>
      </trkpt>
      <trkpt lat="48.03467" lon="-4.53376">
        <ele>7</ele>
        <time>2020-02-18T10:16:39Z</time>
      </trkpt>
      <trkpt lat="48.03504" lon="-4.53333">
        <ele>4</ele>
        <time>2020-02-18T10:17:42Z</time>
      </trkpt>
      <trkpt lat="48.0355" lon="-4.53223">
        <ele>11</ele>
        <time>2020-02-18T10:19:37Z</time>
      </trkpt>
      <trkpt lat="48.03578" lon="-4.5318">
        <ele>12</ele>
        <time>2020-02-18T10:20:31Z</time>
      </trkpt>
      <trkpt lat="48.03655" lon="-4.53126">
        <ele>10</ele>
        <time>2020-02-18T10:22:24Z</time>
      </trkpt>
      <trkpt lat="48.03701" lon="-4.53073">
        <ele>9</ele>
        <time>2020-02-18T10:23:42Z</time>
      </trkpt>
      <trkpt lat="48.0377" lon="-4.52945">
        <ele>10</ele>
        <time>2020-02-18T10:26:09Z</time>
      </trkpt>
      <trkpt lat="48.03796" lon="-4.52815">
        <ele>4</ele>
        <time>2020-02-18T10:28:10Z</time>
      </trkpt>
      <trkpt lat="48.03843" lon="-4.52657">
        <ele>7</ele>
        <time>2020-02-18T10:30:44Z</time>
      </trkpt>
      <trkpt lat="48.03839" lon="-4.52499">
        <ele>6</ele>
        <time>2020-02-18T10:33:05Z</time>
      </trkpt>
      <trkpt lat="48.03863" lon="-4.52411">
        <ele>5</ele>
        <time>2020-02-18T10:34:30Z</time>
      </trkpt>
      <trkpt lat="48.03883" lon="-4.52329">
        <ele>3</ele>
        <time>2020-02-18T10:35:48Z</time>
      </trkpt>
      <trkpt lat="48.03873" lon="-4.5222">
        <ele>4</ele>
        <time>2020-02-18T10:37:26Z</time>
      </trkpt>
      <trkpt lat="48.03843" lon="-4.52105">
        <ele>5</ele>
        <time>2020-02-18T10:39:16Z</time>
      </trkpt>
      <trkpt lat="48.03849" lon="-4.51923">
        <ele>9</ele>
        <time>2020-02-18T10:41:59Z</time>
      </trkpt>
      <trkpt lat="48.03871" lon="-4.5178">
        <ele>12</ele>
        <time>2020-02-18T10:44:10Z</time>
      </trkpt>
      <trkpt lat="48.03888" lon="-4.51282">
        <ele>9</ele>
        <time>2020-02-18T10:51:34Z</time>
      </trkpt>
      <trkpt lat="48.03962" lon="-4.51028">
        <ele>3</ele>
        <time>2020-02-18T10:55:42Z</time>
      </trkpt>
      <trkpt lat="48.0395" lon="-4.50992">
        <ele>4</ele>
        <time>2020-02-18T10:56:18Z</time>
      </trkpt>
      <trkpt lat="48.03927" lon="-4.50977">
        <ele>6</ele>
        <time>2020-02-18T10:56:51Z</time>
      </trkpt>
      <trkpt lat="48.03898" lon="-4.5093">
        <ele>7</ele>
        <time>2020-02-18T10:57:48Z</time>
      </trkpt>
      <trkpt lat="48.03889" lon="-4.509">
        <ele>8</ele>
        <time>2020-02-18T10:58:17Z</time>
      </trkpt>
      <trkpt lat="48.03868" lon="-4.50854">
        <ele>7</ele>
        <time>2020-02-18T10:59:07Z</time>
      </trkpt>
      <trkpt lat="48.0384" lon="-4.50712">
        <ele>8</ele>
        <time>2020-02-18T11:01:19Z</time>
      </trkpt>
      <trkpt lat="48.03809" lon="-4.5067">
        <ele>5</ele>
        <time>2020-02-18T11:02:15Z</time>
      </trkpt>
      <trkpt lat="48.0379" lon="-4.50584">
        <ele>4</ele>
        <time>2020-02-18T11:03:36Z</time>
      </trkpt>
      <trkpt lat="48.03789" lon="-4.50485">
        <ele>4</ele>
        <time>2020-02-18T11:05:04Z</time>
      </trkpt>
      <trkpt lat="48.03802" lon="-4.5035">
        <ele>5</ele>
        <time>2020-02-18T11:07:06Z</time>
      </trkpt>
      <trkpt lat="48.03829" lon="-4.50248">
        <ele>7</ele>
        <time>2020-02-18T11:08:44Z</time>
      </trkpt>
      <trkpt lat="48.03883" lon="-4.5014">
        <ele>9</ele>
        <time>2020-02-18T11:10:44Z</time>
      </trkpt>
      <trkpt lat="48.03884" lon="-4.50099">
        <ele>7</ele>
        <time>2020-02-18T11:11:21Z</time>
      </trkpt>
      <trkpt lat="48.03935" lon="-4.49945">
        <ele>6</ele>
        <time>2020-02-18T11:13:54Z</time>
      </trkpt>
      <trkpt lat="48.03995" lon="-4.49723">
        <ele>6</ele>
        <time>2020-02-18T11:17:28Z</time>
      </trkpt>
      <trkpt lat="48.04025" lon="-4.4949">
        <ele>7</ele>
        <time>2020-02-18T11:20:59Z</time>
      </trkpt>
      <trkpt lat="48.04018" lon="-4.49441">
        <ele>7</ele>
        <time>2020-02-18T11:21:44Z</time>
      </trkpt>
      <trkpt lat="48.04002" lon="-4.49348">
        <ele>6</ele>
        <time>2020-02-18T11:23:10Z</time>
      </trkpt>
      <trkpt lat="48.03994" lon="-4.49269">
        <ele>8</ele>
        <time>2020-02-18T11:24:21Z</time>
      </trkpt>
      <trkpt lat="48.03955" lon="-4.49136">
        <ele>7</ele>
        <time>2020-02-18T11:26:31Z</time>
      </trkpt>
      <trkpt lat="48.03937" lon="-4.49092">
        <ele>5</ele>
        <time>2020-02-18T11:27:17Z</time>
      </trkpt>
      <trkpt lat="48.03952" lon="-4.49077">
        <ele>7</ele>
        <time>2020-02-18T11:27:41Z</time>
      </trkpt>
      <trkpt lat="48.03942" lon="-4.49037">
        <ele>7</ele>
        <time>2020-02-18T11:28:19Z</time>
      </trkpt>
      <trkpt lat="48.03962" lon="-4.4899">
        <ele>10</ele>
        <time>2020-02-18T11:29:09Z</time>
      </trkpt>
      <trkpt lat="48.03995" lon="-4.48964">
        <ele>15</ele>
        <time>2020-02-18T11:29:58Z</time>
      </trkpt>
      <trkpt lat="48.04005" lon="-4.48986">
        <ele>16</ele>
        <time>2020-02-18T11:30:22Z</time>
      </trkpt>
      <trkpt lat="48.04029" lon="-4.49009">
        <ele>19</ele>
        <time>2020-02-18T11:31:00Z</time>
      </trkpt>
      <trkpt lat="48.0403" lon="-4.48937">
        <ele>22</ele>
        <time>2020-02-18T11:32:04Z</time>
      </trkpt>
      <trkpt lat="48.04061" lon="-4.4894">
        <ele>27</ele>
        <time>2020-02-18T11:32:46Z</time>
      </trkpt>
      <trkpt lat="48.04078" lon="-4.4894">
        <ele>30</ele>
        <time>2020-02-18T11:33:09Z</time>
      </trkpt>
      <trkpt lat="48.0408" lon="-4.48935">
        <ele>31</ele>
        <time>2020-02-18T11:33:14Z</time>
      </trkpt>
      <trkpt lat="48.04081" lon="-4.48928">
        <ele>31</ele>
        <time>2020-02-18T11:33:20Z</time>
      </trkpt>
    </trkseg>
  </trk>
</gpx>